[[{"header":{"parameterUnit":"m.s-1","parameterCategory":1,"la1":30.6,"la2":28.766,"lo1":-90.7593,"lo2":-88.6598,"dy":0.0162,"dx":0.0183,"nx":116,"ny":114,"refTime":"2023-11-04T00:00:00:Z","depth":0,"parameterNumber":2,"parameterNumberName":"U-component_of_WINDS"},"data":[0.0,0.0,0.0,0.0,0.0,0.0,0.0,0.0,0.0,0.0,0.0,0.0,0.0,0.0,0.0,0.0,0.0,0.0,0.0,0.0,0.0,0.0,0.0,0.0,0.0,0.0,0.0,0.0,0.0,0.0,0.0,0.0,0.0,0.0,0.0,0.0,0.0,0.0,0.0,0.0,0.0,0.0,0.0,0.0,0.0,0.0,0.0,0.0,0.0,0.0,0.0,0.0,0.0,0.0,0.0,0.0,0.0,0.0,0.0,0.0,0.0,0.0,0.0,0.0,0.0,0.0,0.0,0.0,0.0,0.0,0.0,0.0,0.0,0.0,0.0,0.0,0.0,0.0,0.0,0.0,0.0,0.0,0.0,0.0,0.0,0.0,0.0,0.0,0.0,0.0,0.0,0.0,0.0,0.0,0.0,0.0,0.0,0.0,0.0,0.0,0.0,0.0,0.0,0.0,0.0,0.0,0.0,0.0,0.0,0.0,0.0,0.0,0.0,0.0,0.0,0.0,0.0,0.0,0.0,0.0,0.0,0.0,0.0,0.0,0.0,0.0,0.0,0.0,0.0,0.0,0.0,0.0,0.0,0.0,0.0,0.0,0.0,0.0,0.0,0.0,0.0,0.0,0.0,0.0,0.0,0.0,0.0,0.0,0.0,0.0,0.0,0.0,0.0,0.0,0.0,0.0,0.0,0.0,0.0,0.0,0.0,0.0,0.0,0.0,0.0,0.0,0.0,0.0,0.0,0.0,0.0,0.0,0.0,0.0,0.0,0.0,0.0,0.0,0.0,0.0,0.0,0.0,0.0,0.0,0.0,0.0,0.0,0.0,0.0,0.0,0.0,0.0,0.0,0.0,0.0,0.0,0.0,0.0,0.0,0.0,0.0,0.0,0.0,0.0,0.0,0.0,0.0,0.0,0.0,0.0,0.0,0.0,0.0,0.0,0.0,0.0,0.0,0.0,0.0,0.0,0.0,0.0,0.0,0.0,0.0,0.0,0.0,0.0,0.0,0.0,0.0,0.0,0.0,0.0,0.0,0.0,0.0,0.0,0.0,0.0,0.0,0.0,0.0,0.0,0.0,0.0,0.0,0.0,0.0,0.0,0.0,0.0,0.0,0.0,0.0,0.0,0.0,0.0,0.0,0.0,0.0,0.0,0.0,0.0,0.0,0.0,0.0,0.0,0.0,0.0,0.0,0.0,0.0,0.0,0.0,0.0,0.0,0.0,0.0,0.0,0.0,0.0,0.0,0.0,0.0,0.0,0.0,0.0,0.0,0.0,0.0,0.0,0.0,0.0,0.0,0.0,0.0,0.0,0.0,0.0,0.0,0.0,0.0,0.0,0.0,0.0,0.0,0.0,0.0,0.0,0.0,0.0,0.0,0.0,0.0,0.0,0.0,0.0,0.0,0.0,0.0,0.0,0.0,0.0,0.0,0.0,0.0,0.0,0.0,0.0,0.0,0.0,0.0,0.0,0.0,0.0,0.0,0.0,0.0,0.0,0.0,0.0,0.0,0.0,0.0,0.0,0.0,0.0,0.0,0.0,0.0,0.0,0.0,0.0,0.0,0.0,0.0,0.0,0.0,0.0,0.0,0.0,0.0,0.0,0.0,0.0,0.0,0.0,0.0,0.0,0.0,0.0,0.0,0.0,0.0,0.0,0.0,0.0,0.0,0.0,0.0,0.0,0.0,0.0,0.0,0.0,0.0,0.0,0.0,0.0,0.0,0.0,0.0,0.0,0.0,0.0,0.0,0.0,0.0,0.0,0.0,0.0,0.0,0.0,0.0,0.0,0.0,0.0,0.0,0.0,0.0,0.0,0.0,0.0,0.0,0.0,0.0,0.0,0.0,0.0,0.0,0.0,0.0,0.0,0.0,0.0,0.0,0.0,0.0,0.0,0.0,0.0,0.0,0.0,0.0,0.0,0.0,0.0,0.0,0.0,0.0,0.0,0.0,0.0,0.0,0.0,0.0,0.0,0.0,0.0,0.0,0.0,0.0,0.0,0.0,0.0,0.0,0.0,0.0,0.0,0.0,0.0,0.0,0.0,0.0,0.0,0.0,0.0,0.0,0.0,0.0,0.0,0.0,0.0,0.0,0.0,0.0,0.0,0.0,0.0,0.0,0.0,0.0,0.0,0.0,0.0,0.0,0.0,0.0,0.0,0.0,0.0,0.0,0.0,0.0,0.0,0.0,0.0,0.0,0.0,0.0,0.0,0.0,0.0,0.0,0.0,0.0,0.0,0.0,0.0,0.0,0.0,0.0,0.0,0.0,0.0,0.0,0.0,0.0,0.0,0.0,0.0,0.0,0.0,0.0,0.0,0.0,0.0,0.0,0.0,0.0,0.0,0.0,0.0,0.0,0.0,0.0,0.0,0.0,0.0,0.0,0.0,0.0,0.0,0.0,0.0,0.0,0.0,0.0,0.0,0.0,0.0,0.0,0.0,0.0,0.0,0.0,0.0,0.0,0.0,0.0,0.0,0.0,0.0,0.0,0.0,0.0,0.0,0.0,0.0,0.0,0.0,0.0,0.0,0.0,0.0,0.0,0.0,0.0,0.0,0.0,0.0,0.0,0.0,0.0,0.0,0.0,0.0,0.0,0.0,0.0,0.0,0.0,0.0,0.0,0.0,0.0,0.0,0.0,0.0,0.0,0.0,0.0,0.0,0.0,0.0,0.0,0.0,0.0,0.0,0.0,0.0,0.0,0.0,0.0,0.0,0.0,0.0,0.0,0.0,0.0,0.0,0.0,0.0,0.0,0.0,0.0,0.0,0.0,0.0,0.0,0.0,0.0,0.0,0.0,0.0,0.0,0.0,0.0,0.0,0.0,0.0,0.0,0.0,0.0,0.0,0.0,0.0,0.0,0.0,0.0,0.0,0.0,0.0,0.0,0.0,0.0,0.0,0.0,0.0,0.0,0.0,0.0,0.0,0.0,0.0,0.0,0.0,0.0,0.0,0.0,0.0,0.0,0.0,0.0,0.0,0.0,0.0,0.0,0.0,0.0,0.0,0.0,0.0,0.0,0.0,0.0,0.0,0.0,0.0,0.0,0.0,0.0,0.0,0.0,0.0,0.0,0.0,0.0,0.0,0.0,0.0,0.0,0.0,0.0,0.0,0.0,0.0,0.0,0.0,0.0,0.0,0.0,0.0,0.0,0.0,0.0,0.0,0.0,0.0,0.0,0.0,0.0,0.0,0.0,0.0,0.0,0.0,0.0,0.0,0.0,0.0,0.0,0.0,0.0,0.0,0.0,0.0,0.0,0.0,0.0,0.0,0.0,0.0,0.0,0.0,0.0,0.0,0.0,0.0,0.0,0.0,0.0,0.0,0.0,0.0,0.0,0.0,0.0,0.0,0.0,0.0,0.0,0.0,0.0,0.0,0.0,0.0,0.0,0.0,0.0,0.0,0.0,0.0,0.0,0.0,0.0,0.0,0.0,0.0,0.0,0.0,0.0,0.0,0.0,0.0,0.0,0.0,0.0,0.0,0.0,0.0,0.0,0.0,0.0,0.0,0.0,0.0,0.0,0.0,0.0,0.0,0.0,0.0,0.0,0.0,0.0,0.0,0.0,0.0,0.0,0.0,0.0,0.0,0.0,0.0,0.0,0.0,0.0,0.0,0.0,0.0,0.0,0.0,0.0,0.0,0.0,0.0,0.0,0.0,0.0,0.0,0.0,0.0,0.0,0.0,0.0,0.0,0.0,0.0,0.0,0.0,0.0,0.0,0.0,0.0,0.0,0.0,0.0,0.0,0.0,0.0,0.0,0.0,0.0,0.0,0.0,0.0,0.0,0.0,0.0,0.0,0.0,0.0,0.0,0.0,0.0,0.0,0.0,0.0,0.0,0.0,0.0,0.0,0.0,0.0,0.0,0.0,0.0,0.0,0.0,0.0,0.0,0.0,0.0,0.0,0.0,0.0,0.0,0.0,0.0,0.0,0.0,0.0,0.0,0.0,0.0,0.0,0.0,0.0,0.0,0.0,0.0,0.0,0.0,0.0,0.0,0.0,0.0,0.0,0.0,0.0,0.0,0.0,0.0,0.0,0.0,0.0,0.0,0.0,0.0,0.0,0.0,0.0,0.0,0.0,0.0,0.0,0.0,0.0,0.0,0.0,0.0,0.0,0.0,0.0,0.0,0.0,0.0,0.0,0.0,0.0,0.0,0.0,0.0,0.0,0.0,0.0,0.0,0.0,0.0,0.0,0.0,0.0,0.0,0.0,0.0,0.0,0.0,0.0,0.0,0.0,0.0,0.0,0.0,0.0,0.0,0.0,0.0,0.0,0.0,0.0,0.0,0.0,0.0,0.0,0.0,0.0,0.0,0.0,0.0,0.0,0.0,0.0,0.0,0.0,0.0,0.0,0.0,0.0,0.0,0.0,0.0,0.0,0.0,0.0,0.0,0.0,0.0,0.0,0.0,0.0,0.0,0.0,0.0,0.0,0.0,0.0,0.0,0.0,0.0,0.0,0.0,0.0,0.0,0.0,0.0,0.0,0.0,0.0,0.0,0.0,0.0,0.0,0.0,0.0,0.0,0.0,0.0,0.0,0.0,0.0,0.0,0.0,0.0,0.0,0.0,0.0,0.0,0.0,0.0,0.0,0.0,0.0,0.0,0.0,0.0,0.0,0.0,0.0,0.0,0.0,0.0,0.0,0.0,0.0,0.0,0.0,0.0,0.0,0.0,0.0,0.0,0.0,0.0,0.0,0.0,0.0,0.0,0.0,0.0,0.0,0.0,0.0,0.0,0.0,0.0,0.0,0.0,0.0,0.0,0.0,0.0,0.0,0.0,0.0,0.0,0.0,0.0,0.0,0.0,0.0,0.0,0.0,0.0,0.0,0.0,0.0,0.0,0.0,0.0,0.0,0.0,0.0,0.0,0.0,0.0,0.0,0.0,0.0,0.0,0.0,0.0,0.0,0.0,0.0,0.0,0.0,0.0,0.0,0.0,0.0,0.0,0.0,0.0,0.0,0.0,0.0,0.0,0.0,0.0,0.0,0.0,0.0,0.0,0.0,0.0,0.0,0.0,0.0,0.0,0.0,0.0,0.0,0.0,0.0,0.0,0.0,0.0,0.0,0.0,0.0,0.0,0.0,0.0,0.0,0.0,0.0,0.0,0.0,0.0,0.0,0.0,0.0,0.0,0.0,0.0,0.0,0.0,0.0,0.0,0.0,0.0,0.0,0.0,0.0,0.0,0.0,0.0,0.0,0.0,0.0,0.0,0.0,0.0,0.0,0.0,0.0,0.0,0.0,0.0,0.0,0.0,0.0,0.0,0.0,0.0,0.0,0.0,0.0,0.0,0.0,0.0,0.0,0.0,0.0,0.0,0.0,0.0,0.0,0.0,0.0,0.0,0.0,0.0,0.0,0.0,0.0,0.0,0.0,0.0,0.0,0.0,0.0,0.0,0.0,0.0,0.0,0.0,0.0,0.0,0.0,0.0,0.0,0.0,0.0,0.0,0.0,0.0,0.0,0.0,0.0,0.0,0.0,0.0,0.0,0.0,0.0,0.0,0.0,0.0,0.0,0.0,0.0,0.0,0.0,0.0,0.0,0.0,0.0,0.0,0.0,0.0,0.0,0.0,0.0,0.0,0.0,0.0,0.0,0.0,0.0,0.0,0.0,0.0,0.0,0.0,0.0,0.0,0.0,0.0,0.0,0.0,0.0,0.0,0.0,0.0,0.0,0.0,0.0,0.0,0.0,0.0,0.0,0.0,0.0,0.0,0.0,0.0,0.0,0.0,0.0,0.0,0.0,0.0,0.0,0.0,0.0,0.0,0.0,0.0,0.0,0.0,0.0,0.0,0.0,0.0,0.0,0.0,0.0,0.0,0.0,0.0,0.0,0.0,0.0,0.0,0.0,0.0,0.0,0.0,0.0,0.0,0.0,0.0,0.0,0.0,0.0,0.0,0.0,0.0,0.0,0.0,0.0,0.0,0.0,0.0,0.0,0.0,0.0,0.0,0.0,0.0,0.0,0.0,0.0,0.0,0.0,0.0,0.0,0.0,0.0,0.0,0.0,0.0,0.0,0.0,0.0,0.0,0.0,0.0,0.0,0.0,0.0,0.0,0.0,0.0,0.0,0.0,0.0,-0.7626,0.0,0.0,0.0,0.0,0.0,0.0,0.0,0.0,0.0,0.0,0.0,0.0,0.0,0.0,0.0,0.0,0.0,0.0,0.0,0.0,0.0,0.0,0.0,0.0,0.0,0.0,0.0,0.0,0.0,0.0,0.0,0.0,0.0,0.0,0.0,0.0,0.0,0.0,0.0,-2.0521,-2.0462,-2.0849,-2.1726,-2.2499,-2.3169,0.0,0.0,0.0,0.0,0.0,0.0,0.0,0.0,0.0,0.0,0.0,0.0,0.0,0.0,0.0,0.0,0.0,0.0,0.0,0.0,0.0,0.0,0.0,0.0,0.0,0.0,0.0,0.0,0.0,0.0,0.0,0.0,0.0,0.0,0.0,0.0,0.0,0.0,0.0,0.0,0.0,0.0,0.0,0.0,0.0,0.0,0.0,0.0,0.0,0.0,0.0,0.0,0.0,0.0,0.0,0.0,0.0,0.0,0.0,0.0,0.0,0.0,0.0,0.0,0.0,0.0,0.0,0.0,0.0,0.0,0.0,-0.4846,0.0,0.0,0.0,0.0,0.0,0.0,0.0,0.0,0.0,0.0,0.0,0.0,0.0,0.0,0.0,0.0,0.0,0.0,0.0,0.0,0.0,0.0,0.0,0.0,0.0,0.0,0.0,0.0,0.0,0.0,0.0,0.0,0.0,0.0,0.0,0.0,0.0,0.0,-2.0024,-1.9817,-2.0589,-2.2026,-2.2474,-2.2069,-2.3386,0.0,0.0,0.0,0.0,0.0,0.0,0.0,0.0,0.0,0.0,0.0,0.0,0.0,0.0,0.0,0.0,0.0,0.0,0.0,0.0,0.0,0.0,0.0,0.0,0.0,0.0,0.0,0.0,0.0,0.0,0.0,0.0,0.0,0.0,0.0,0.0,0.0,0.0,0.0,0.0,0.0,0.0,0.0,0.0,0.0,0.0,0.0,0.0,0.0,0.0,0.0,0.0,0.0,0.0,0.0,0.0,0.0,0.0,0.0,0.0,0.0,0.0,0.0,-1.2721,-1.1717,-1.1173,-0.9055,-0.7743,-0.7084,-0.5131,-0.3834,-0.3098,-0.2547,0.0,0.0,0.0,0.0,0.0,0.0,0.0,0.0,0.0,0.0,0.0,0.0,0.0,0.0,0.0,0.0,0.0,0.0,0.0,0.0,0.0,-2.003,-2.0161,-2.0282,-2.0231,-2.02,0.0,0.0,0.0,0.0,0.0,0.0,0.0,-2.0308,-2.0056,-1.9532,-2.0078,-2.0741,-2.1546,-2.3197,-2.3444,-2.2489,-2.1833,-2.2897,-2.5038,0.0,0.0,0.0,0.0,0.0,0.0,0.0,0.0,0.0,0.0,0.0,0.0,0.0,0.0,0.0,0.0,0.0,0.0,0.0,0.0,0.0,0.0,0.0,0.0,0.0,0.0,0.0,0.0,0.0,0.0,0.0,0.0,0.0,0.0,0.0,0.0,0.0,0.0,0.0,0.0,0.0,-1.9022,-1.9685,0.0,0.0,0.0,0.0,0.0,0.0,0.0,0.0,0.0,0.0,0.0,0.0,0.0,-1.6255,-1.6315,-1.5591,-1.4786,-1.4006,-1.3194,-1.1861,-1.0265,-0.9599,-0.8325,-0.6632,-0.6086,0.0,-0.4035,-0.3749,0.0,0.0,0.0,0.0,0.0,0.0,0.0,0.0,0.0,0.0,0.0,0.0,0.0,0.0,0.0,0.0,0.0,0.0,0.0,0.0,0.0,-2.0746,-2.1079,-2.1656,-2.2168,-2.2018,-2.1004,0.0,0.0,0.0,0.0,0.0,0.0,-1.9823,-1.9458,-1.9195,-2.2045,-2.3105,-2.2514,-2.3691,-2.428,-2.4227,-2.2793,-2.2731,-2.364,-2.3032,0.0,0.0,0.0,0.0,0.0,0.0,0.0,0.0,0.0,0.0,0.0,0.0,0.0,0.0,0.0,0.0,0.0,0.0,0.0,0.0,0.0,0.0,0.0,0.0,0.0,0.0,0.0,0.0,0.0,0.0,0.0,0.0,0.0,0.0,0.0,0.0,0.0,0.0,0.0,-2.071,-2.0191,-1.914,-1.9314,-1.9209,0.0,0.0,0.0,0.0,0.0,0.0,0.0,0.0,0.0,-1.8617,-1.8125,-1.7974,-1.8231,-1.6971,-1.6097,-1.5655,-1.4121,-1.2992,-1.2084,-1.021,-0.8859,-0.8028,-0.7022,-0.6039,-0.5155,-0.42,-0.3617,-0.3234,0.0,0.0,0.0,0.0,0.159,0.1852,0.0,0.0,0.0,0.0,0.0,0.0,0.0,0.0,0.0,0.0,0.0,0.0,-2.1437,-2.1655,-2.2114,-2.3064,-2.3396,-2.304,-2.1908,-2.1822,0.0,0.0,0.0,0.0,0.0,0.0,-1.9744,-2.0494,-2.3742,-2.491,-2.4099,-2.4902,-2.5641,-2.621,-2.4918,-2.4057,-2.3559,-2.283,-2.2746,-2.3095,0.0,0.0,0.0,0.0,0.0,0.0,0.0,0.0,0.0,0.0,0.0,0.0,0.0,0.0,0.0,0.0,0.0,0.0,0.0,0.0,0.0,0.0,0.0,0.0,0.0,0.0,0.0,0.0,0.0,0.0,0.0,0.0,0.0,0.0,0.0,0.0,0.0,-2.129,-2.0808,-1.8979,-1.9117,-1.9084,0.0,0.0,0.0,0.0,0.0,0.0,-1.8519,-1.8454,-1.9075,-2.0575,-2.0049,-1.985,-2.0178,-1.8462,-1.7466,-1.7337,-1.5032,-1.3775,-1.3386,-1.0832,-0.9442,-0.9046,-0.7609,-0.6639,-0.5847,-0.4555,-0.3848,-0.3596,-0.2886,-0.1693,-0.0262,0.0265,0.0695,0.0857,0.0,0.0,0.0,0.0,0.0,0.0,0.0,0.0,0.0,0.0,0.0,-2.0565,-2.2331,-2.2585,-2.3043,-2.4041,-2.2651,-2.2011,-2.2694,-2.05,-1.9857,-2.1367,-2.0629,0.0,0.0,0.0,0.0,-2.4044,-2.4258,-2.5161,-2.6724,-2.7599,-2.8028,-2.8066,-2.7988,-2.7436,-2.6373,-2.3193,-2.2725,-2.4122,-2.4122,0.0,0.0,0.0,0.0,0.0,0.0,0.0,0.0,0.0,0.0,0.0,0.0,0.0,0.0,0.0,0.0,0.0,0.0,0.0,0.0,0.0,0.0,0.0,0.0,0.0,0.0,0.0,0.0,0.0,0.0,0.0,0.0,0.0,0.0,0.0,0.0,0.0,0.0,-1.9764,-2.0411,0.0,0.0,0.0,0.0,-1.813,-1.8278,-1.8986,-2.0279,-2.0045,-2.0659,-2.231,-2.1738,-2.1615,-2.2065,-1.9921,-1.8669,-1.8283,-1.5652,-1.3756,-1.2613,-1.1466,-1.0072,-0.8484,-0.7683,-0.6828,-0.5799,-0.4875,-0.4181,-0.3663,-0.2366,-0.1047,-0.0,-0.0599,-0.0434,-0.011,0.0,0.0,0.0,0.0,0.0,0.0,0.0,0.0,0.0,-1.9628,-2.0788,-2.2321,-2.4066,-2.487,-2.5858,-2.7351,-2.5933,-2.4803,-2.4491,-2.2597,-2.1772,-2.2315,-2.1532,0.0,0.0,0.0,-2.4287,-2.5191,-2.6837,-2.7954,-2.8578,-2.8881,-2.9335,-2.9855,-2.9291,-2.8871,-2.8379,-2.4922,-2.3158,-2.2552,-2.1423,-2.2115,0.0,0.0,0.0,0.0,0.0,0.0,0.0,0.0,0.0,0.0,0.0,0.0,0.0,0.0,0.0,0.0,0.0,0.0,0.0,0.0,0.0,0.0,0.0,0.0,0.0,0.0,0.0,0.0,0.0,0.0,0.0,0.0,0.0,0.0,0.0,0.0,0.0,-2.0871,-2.1602,0.0,-2.0748,-2.0414,-2.021,-2.0047,-1.9568,-2.0064,-2.1874,-2.1825,-2.279,-2.509,-2.4554,-2.4142,-2.396,-2.1958,-2.0461,-1.938,-1.696,-1.5392,-1.4501,-1.2336,-1.0828,-0.9849,-0.8161,-0.7058,-0.6324,-0.4824,-0.3972,-0.338,-0.2011,-0.1541,-0.1646,-0.17,-0.1818,-0.194,0.0,0.0,0.0,0.0,0.0,0.0,0.0,0.0,0.0,-2.0132,-2.1852,-2.3839,-2.5864,-2.6969,-2.8046,-2.9197,-2.7508,-2.5952,-2.5031,-2.3415,-2.259,-2.2816,-2.2624,0.0,0.0,-2.5331,-2.6384,-2.6984,-2.8664,-2.9658,-2.9945,-2.992,-3.0232,-3.0774,-3.0197,-2.9811,-2.9411,-2.7121,-2.4803,-2.2558,-2.1094,-2.1873,-2.3701,0.0,0.0,0.0,0.0,0.0,0.0,0.0,0.0,0.0,0.0,0.0,0.0,0.0,0.0,0.0,0.0,0.0,0.0,0.0,0.0,0.0,0.0,0.0,0.0,0.0,0.0,0.0,0.0,0.0,0.0,0.0,0.0,0.0,0.0,0.0,-2.2732,-2.2556,-2.3572,-2.3967,-2.3191,-2.252,-2.2118,-2.2098,-2.1192,-2.1439,-2.3305,-2.3451,-2.4461,-2.6479,-2.6,-2.5393,-2.4764,-2.2955,-2.1292,-1.9843,-1.7864,-1.6515,-1.5697,-1.3262,-1.1724,-1.0816,-0.8842,-0.7384,-0.6306,-0.4716,-0.3735,-0.3097,-0.2013,-0.1897,-0.2339,-0.2345,-0.259,-0.2972,0.0,0.0,0.0,0.0,0.0,0.0,0.0,-1.9757,-2.0297,-2.1093,-2.2879,-2.5042,-2.7569,-2.8753,-2.9379,-2.9371,-2.7003,-2.5112,-2.4237,-2.2617,-2.2072,-2.2959,0.0,0.0,-2.5693,-2.6523,-2.7803,-2.9537,-2.9546,-2.9994,-3.0838,-3.0773,-3.0787,-3.0872,-3.0891,-3.0403,-2.9627,-2.9665,-2.7737,-2.4553,-2.3521,-2.3114,-2.3137,0.0,0.0,0.0,0.0,0.0,0.0,0.0,0.0,0.0,0.0,0.0,0.0,0.0,0.0,0.0,0.0,0.0,0.0,0.0,0.0,0.0,0.0,0.0,0.0,0.0,0.0,0.0,0.0,0.0,0.0,0.0,0.0,0.0,-2.1276,-2.3341,-2.4804,-2.4835,-2.6241,-2.6789,-2.5681,-2.5058,-2.4583,-2.4259,-2.3151,-2.315,-2.4612,-2.4946,-2.5501,-2.6391,-2.5935,-2.5297,-2.454,-2.2844,-2.1237,-1.9808,-1.8298,-1.7033,-1.6007,-1.4298,-1.2733,-1.1281,-0.9626,-0.7799,-0.5874,-0.4484,-0.3532,-0.2888,-0.2426,-0.2056,-0.1921,-0.2419,-0.2778,-0.3161,0.0,0.0,0.0,0.0,0.0,0.0,0.0,-1.9896,-2.0308,-2.1164,-2.3965,-2.6612,-2.8525,-3.0192,-3.1166,-3.111,-2.7641,-2.5595,-2.5953,-2.3302,-2.2644,-2.4771,0.0,0.0,-2.8446,-2.8121,-2.875,-3.0448,-3.0446,-3.0862,-3.1675,-3.1651,-3.1985,-3.2608,-3.2602,-3.2508,-3.2296,-3.1679,-3.0849,-2.9572,-2.4965,-2.3482,-2.3911,0.0,0.0,0.0,0.0,0.0,0.0,0.0,0.0,0.0,0.0,0.0,0.0,0.0,0.0,0.0,0.0,0.0,0.0,0.0,0.0,0.0,0.0,0.0,0.0,0.0,0.0,0.0,0.0,0.0,0.0,0.0,0.0,-2.2215,-2.2766,-2.359,-2.4612,-2.5831,-2.7026,-2.7707,-2.7466,-2.7229,-2.6961,-2.6733,-2.5466,-2.5228,-2.6428,-2.5339,-2.5313,-2.6711,-2.5894,-2.5437,-2.542,-2.4135,-2.2978,-2.1856,-2.0149,-1.8588,-1.7053,-1.5193,-1.358,-1.2154,-1.0256,-0.8494,-0.6941,-0.5561,-0.4739,-0.4302,-0.2808,-0.2599,-0.3076,-0.3377,-0.3993,-0.4673,0.0,0.0,0.0,0.0,0.0,0.0,0.0,-1.9919,-2.044,-2.165,-2.4536,-2.7146,-2.8833,-3.0384,-3.0994,-3.0221,-2.7602,-2.5588,-2.4664,-2.3481,-2.3805,-2.6083,0.0,-2.819,-3.011,-2.9979,-3.0527,-3.1854,-3.1821,-3.2065,-3.2542,-3.2519,-3.2798,-3.3304,-3.3304,-3.3345,-3.3344,-3.2466,-3.1895,-3.1227,-2.7341,-2.5875,-2.5772,-2.3327,-2.3778,-2.5519,-2.4137,-2.4514,-2.5437,-2.4062,0.0,0.0,0.0,0.0,0.0,0.0,0.0,0.0,0.0,0.0,0.0,0.0,0.0,0.0,0.0,0.0,0.0,0.0,0.0,0.0,0.0,0.0,0.0,0.0,-2.3031,-2.3772,-2.5065,-2.5317,-2.595,-2.7437,-2.8404,-2.9074,-2.9477,-2.8771,-2.8252,-2.804,-2.6513,-2.5905,-2.6619,-2.5423,-2.5298,-2.648,-2.542,-2.4844,-2.4975,-2.3971,-2.2953,-2.1805,-2.0485,-1.8982,-1.7305,-1.5563,-1.4072,-1.2811,-1.0914,-0.94,-0.814,-0.6817,-0.6102,0.0,0.0,0.0,0.0,0.0,-0.5236,-0.5886,0.0,0.0,0.0,0.0,0.0,0.0,0.0,-1.996,-2.0706,-2.2296,-2.4693,-2.6866,-2.8453,-2.9586,-2.9554,-2.7903,-2.6981,-2.5233,-2.2204,-2.3625,-2.5403,-2.7206,-2.8865,-3.0193,-3.115,-3.1873,-3.2588,-3.3287,-3.3239,-3.3291,-3.3433,-3.3371,-3.3421,-3.3589,-3.3596,-3.3629,-3.3629,-3.2871,-3.2086,-3.1285,-3.0212,-2.9179,-2.7929,-2.4723,-2.4471,-2.5664,-2.4616,-2.4879,-2.554,-2.4507,0.0,0.0,0.0,0.0,0.0,0.0,0.0,0.0,0.0,0.0,0.0,0.0,0.0,0.0,0.0,0.0,0.0,0.0,0.0,0.0,0.0,0.0,0.0,0.0,-2.4248,-2.5282,-2.7688,-2.7818,-2.8045,-2.9189,-2.9807,-3.0385,-3.098,-2.9681,-2.872,-2.8553,-2.6782,-2.5812,-2.6018,0.0,0.0,0.0,0.0,-2.4022,-2.3999,-2.3178,-2.2128,-2.0795,-2.004,-1.8771,-1.7115,-1.567,-1.4403,-1.3253,-1.1661,-1.0368,-0.9308,-0.8121,-0.7402,-0.6877,-0.5184,-0.4781,-0.5268,-0.6016,-0.6467,-0.6737,0.0,0.0,0.0,0.0,0.0,0.0,0.0,-2.0432,-2.135,-2.2372,-2.4216,-2.5806,-2.6776,-2.7836,-2.8066,-2.7013,-2.5573,-2.4469,-2.391,-2.5464,-2.7219,-2.9023,-3.0098,-3.1347,-3.2805,-3.2996,-3.3113,-3.3223,-3.3219,-3.3575,-3.4276,-3.424,-3.4637,-3.5321,-3.5366,-3.5393,-3.5408,-3.524,-3.5078,-3.471,-3.2426,-3.0155,-2.7998,-2.662,-2.6256,-2.6213,-2.405,-2.4275,-2.5391,-2.3858,-2.4237,-2.5166,-2.4141,0.0,0.0,0.0,0.0,0.0,0.0,0.0,0.0,0.0,0.0,0.0,0.0,0.0,0.0,0.0,0.0,0.0,0.0,0.0,0.0,-2.481,-2.5544,-2.668,-2.9219,-2.9287,-2.9194,-2.9423,-2.9653,-2.9716,-2.9559,-2.909,-2.8736,-2.8678,-2.7771,-2.7081,-2.6878,-2.5605,-2.5062,-2.5478,-2.4313,-2.4119,-2.4985,-2.397,-2.3009,-2.2114,0.0,0.0,-1.6758,-1.6218,-1.5074,-1.3494,-1.2628,-1.1381,-0.9895,-0.9205,-0.8338,-0.7363,-0.6202,-0.6284,-0.705,-0.7221,-0.7081,-0.6699,0.0,0.0,0.0,0.0,0.0,0.0,0.0,-2.0997,-2.1551,-2.2968,-2.3907,-2.4927,-2.6219,-2.6469,-2.6217,-2.537,-2.3864,-2.3717,-2.5531,-2.6849,-2.8367,-3.0176,-3.1465,-3.2734,-3.3961,-3.3939,-3.4096,-3.4503,-3.4459,-3.4695,-3.5162,-3.5162,-3.5386,-3.5791,-3.5832,-3.5833,-3.576,-3.5232,-3.4779,-3.4237,-3.24,-3.0602,-2.8887,-2.7843,-2.7167,-2.6592,-2.5343,-2.5171,-2.5359,-2.4079,-2.4238,-2.4646,-2.289,-2.2672,-2.2953,0.0,0.0,0.0,0.0,0.0,0.0,0.0,0.0,0.0,0.0,0.0,0.0,0.0,0.0,-2.2108,0.0,0.0,-2.4481,-2.6353,-2.716,-2.8169,-2.9932,-3.0006,-2.9892,-2.9799,-2.9614,-2.9576,-2.9717,-2.9379,-2.9068,-2.8864,-2.8068,-2.7492,-2.7162,-2.5853,-2.5337,-2.578,-2.4409,-2.404,-2.4761,-2.3851,-2.2937,-2.2101,-2.1135,-1.9418,-1.7119,-1.6329,-1.5303,-1.4078,-1.3107,-1.2147,-1.1202,-1.0588,-0.984,-0.8994,-0.8187,-0.7835,-0.7874,-0.8274,-0.8248,-0.7877,0.0,0.0,0.0,0.0,0.0,0.0,0.0,0.0,-2.1537,-2.3272,-2.3341,-2.3759,-2.5151,-2.4732,-2.4173,-2.3735,-2.2771,-2.3528,0.0,-2.7875,-2.9259,-3.1074,-3.2754,-3.4043,-3.4902,-3.4827,-3.5115,-3.5791,-3.5752,-3.5752,-3.5786,-3.5786,-3.5767,-3.5761,-3.5779,-3.5737,-3.5574,-3.4684,-3.3877,-3.3114,-3.1903,-3.0948,-3.0098,-2.8869,-2.7772,-2.6854,-2.6576,-2.5795,-2.4795,-2.3985,-2.3734,-2.3389,-2.1138,-2.1299,-2.2266,-2.1915,-2.0957,0.0,0.0,0.0,0.0,0.0,0.0,0.0,0.0,0.0,-2.1326,-2.1007,-2.2019,-2.3084,-2.3463,-2.4878,-2.6385,-2.7605,-2.8355,-2.9138,-3.0158,-2.9986,-2.9763,-2.9692,-2.9403,-2.9369,-2.9796,-2.9386,-2.8939,-2.866,-2.7988,-2.7453,-2.7088,-2.6274,-2.594,-2.6269,-2.4807,-2.4199,-2.4574,-2.3724,-2.2804,-2.1812,-2.0954,-1.9539,-1.7581,-1.6424,-1.5484,-1.468,-1.3338,-1.2618,-1.2359,-1.18,-1.1288,-1.0748,-1.0187,-0.9356,-0.8541,-0.8922,-0.8995,-0.8672,0.0,0.0,0.0,0.0,0.0,0.0,0.0,0.0,0.0,-2.2337,-2.189,-2.1547,-2.1756,-2.1741,-2.2067,-2.2945,-2.3579,-2.4773,-2.6763,-2.844,-3.015,-3.1973,-3.3652,-3.4939,-3.5742,-3.5757,-3.5756,-3.5791,-3.58,-3.5758,-3.5712,-3.5712,-3.5683,-3.5628,-3.5674,-3.5618,-3.5418,-3.5102,-3.4765,-3.4255,-3.2539,-3.1695,-3.1349,-2.9959,-2.8506,-2.7058,-2.5759,-2.4226,-2.2752,-2.2177,-2.1958,-2.1735,-2.0791,-2.0094,-1.9916,-2.1362,0.0,-1.8982,-2.2201,-2.1586,-2.0361,-2.1847,-2.099,-2.0304,0.0,0.0,-2.1126,-2.1087,-2.2076,-2.2975,-2.3197,-2.489,-2.6615,-2.7695,-2.8146,-2.883,-3.0103,-2.893,-2.7987,-2.8217,-2.8609,-2.8596,-2.7958,-2.7678,-2.7532,-2.7405,-2.7589,-2.738,-2.6691,-2.7038,-2.7016,-2.6467,-2.5705,-2.5389,-2.5535,-2.4502,-2.3381,-2.2217,-2.1425,-1.9898,-1.7767,-1.7018,-1.602,-1.4777,-1.326,-1.255,-1.2387,-1.2327,-1.1953,-1.1449,-1.1258,-1.0458,-0.9392,-0.8771,-0.8143,-0.7362,0.0,0.0,0.0,0.0,0.0,0.0,0.0,0.0,0.0,0.0,-2.1639,-2.1396,-2.1907,-2.1559,-2.1512,-2.2034,-2.2886,0.0,-2.7409,-2.9234,-3.1201,-3.3445,-3.4761,-3.5584,-3.5849,-3.584,-3.5817,-3.5741,-3.5734,-3.572,-3.5693,-3.5581,-3.548,-3.5397,-3.5164,-3.4999,-3.4859,-3.4529,-3.3923,-3.3027,-3.1745,-3.0852,-3.0088,-2.7662,-2.591,-2.4828,-2.5503,-2.4026,0.0,0.0,-2.1497,-2.1314,-1.9999,-2.007,-2.0698,-2.0924,-2.023,0.0,-1.9332,-2.0502,0.0,0.0,-2.101,-2.1819,-2.2234,-2.2116,-2.1944,-2.2006,-2.3012,-2.3897,-2.3914,-2.5446,-2.6975,0.0,-2.8423,-2.8941,-2.9116,-2.8091,-2.7032,-2.6272,-2.6462,-2.696,-2.7752,-2.788,-2.7982,-2.825,-2.8253,-2.7969,-2.7224,-2.7278,-2.7147,-2.674,-2.6282,-2.598,-2.5835,-2.4608,-2.3468,-2.2412,-2.127,-1.987,-1.8236,-1.7557,-1.6599,-1.5367,-1.447,-1.4021,-1.3964,-1.3878,-1.3369,-1.2589,-1.2239,-1.1358,-1.0131,-0.8928,-0.7576,-0.6146,0.0,0.0,0.0,0.0,0.0,0.0,0.0,0.0,0.0,0.0,0.0,-2.1058,-2.1737,-2.129,-2.1081,-2.1423,-2.2043,0.0,0.0,-2.8783,-3.0769,-3.3336,-3.4608,-3.5313,-3.5466,-3.5698,-3.5647,-3.5346,-3.5584,-3.5525,-3.5198,-3.5211,-3.5183,-3.5047,-3.4679,-3.4369,-3.4157,-3.3788,-3.2912,-3.1711,-3.0749,-2.965,-2.8198,-2.5392,-2.3382,-2.2264,-2.4023,-2.2665,0.0,0.0,-2.0614,-2.0491,-1.9284,-1.9851,-2.0988,-2.1094,-2.1301,-2.0991,-1.8645,0.0,0.0,-2.0537,-2.1594,-2.3015,-2.2945,-2.2922,-2.3009,-2.3265,-2.3876,-2.4331,-2.4219,-2.545,-2.6647,-2.7263,-2.8183,-2.8622,-2.8185,-2.7278,-2.6291,-2.5269,-2.487,-2.5322,-2.6917,-2.7432,-2.7896,-2.8464,-2.8435,-2.8252,-2.7862,-2.7799,-2.7648,-2.74,-2.6918,-2.6455,-2.6067,-2.4733,-2.3549,-2.2536,-2.1292,-2.0049,-1.8826,-1.7875,-1.6896,-1.5844,-1.5381,-1.5161,-1.5106,-1.4892,-1.434,-1.3569,-1.2725,-1.1791,-1.0689,-0.8954,-0.7377,-0.5923,0.0,0.0,0.0,0.0,0.0,0.0,0.0,0.0,0.0,0.0,0.0,0.0,0.0,0.0,-2.0378,-2.1224,0.0,0.0,0.0,-2.639,-2.8087,-3.0696,-3.2454,-3.378,-3.4613,-3.5407,-3.5352,-3.4439,-3.5281,-3.5097,-3.3974,-3.4557,-3.4713,-3.4519,-3.4311,-3.3883,-3.3323,-3.3049,-3.2201,-3.0935,-2.9936,-2.8241,-2.6075,-2.4106,-2.191,-1.9966,-2.0554,0.0,-1.7287,-1.8332,-1.8674,-1.8716,-1.8863,-1.8981,0.0,-2.2165,-2.356,-2.388,0.0,0.0,-2.2051,-2.3399,-2.3031,-2.289,-2.5018,-2.4745,-2.4196,-2.4739,-2.431,-2.3789,-2.3718,-2.445,-2.5312,-2.6126,-2.6993,-2.756,-2.761,-2.6405,-2.5596,-2.5747,-2.4505,-2.3945,0.0,-2.5564,-2.6387,-2.7204,-2.7556,-2.7954,-2.8453,-2.8899,-2.898,-2.867,-2.7756,-2.7033,-2.6497,-2.5163,-2.3878,-2.2667,-2.1654,-2.0603,-1.9507,-1.7853,-1.6738,-1.6046,-1.5584,-1.5363,-1.5269,-1.4641,-1.4373,-1.4176,-1.2502,-1.158,-1.0915,-0.8629,-0.769,-0.7182,0.0,0.0,0.0,0.0,0.0,0.0,0.0,0.0,0.0,0.0,0.0,0.0,0.0,0.0,0.0,0.0,-2.0986,0.0,0.0,-2.5952,-2.7692,-2.9671,-3.1479,-3.2499,-3.2677,-3.3514,-3.3731,-3.3338,-3.3506,-3.3316,-3.2836,-3.2541,-3.2594,-3.2877,-3.1941,-3.1485,-3.1323,-3.0745,-2.9763,-2.8415,-2.7059,-2.5944,-2.4731,-2.1541,-1.9636,-1.865,0.0,0.0,-1.7719,-1.812,-1.8348,-1.8396,-1.7965,-1.8706,-2.0271,-2.2997,-2.3232,-2.2747,-2.3338,0.0,-2.3519,-2.3879,-2.4013,-2.42,-2.4858,-2.4591,-2.3971,-2.3033,-2.3013,-2.2811,-2.1771,-2.2647,-2.4054,-2.557,-2.645,-2.7048,-2.7251,-2.686,-2.6059,-2.4708,-2.4492,0.0,0.0,0.0,0.0,-2.7042,-2.7166,-2.7724,-2.9027,-2.898,-2.8876,-2.8766,-2.8322,-2.7869,-2.7377,-2.5648,-2.4349,-2.352,-2.144,-2.0183,-1.9702,-1.8688,-1.8078,-1.7879,-1.741,-1.7011,-1.6718,-1.6386,-1.5712,-1.4744,-1.3482,-1.2256,-1.0966,-0.8805,-0.7475,-0.646,0.0,0.0,0.0,0.0,0.0,0.0,0.0,0.0,0.0,0.0,0.0,0.0,0.0,0.0,0.0,0.0,0.0,-2.1559,0.0,0.0,-2.5686,-2.7387,-2.8884,-2.9737,-2.9869,-3.0723,-3.0912,-3.0404,-3.0605,-3.0357,-2.9757,-2.9773,-2.9853,-2.9952,-2.9286,-2.8827,-2.8461,-2.7893,-2.6765,-2.5271,-2.4423,-2.3383,-2.2046,-1.9395,-1.8223,0.0,0.0,-1.7436,-1.8207,-1.8471,-1.8679,-1.8821,-1.8745,-2.0002,-2.173,-2.2887,-2.317,-2.3341,-2.4508,-2.4804,-2.4833,-2.498,-2.5037,-2.5091,-2.5191,-2.4606,-2.3627,-2.2152,-2.1961,-2.1561,-1.9957,-2.0735,-2.2314,-2.4426,-2.5224,-2.5962,-2.7123,-2.7059,-2.6498,-2.5452,-2.5432,-2.5284,0.0,0.0,0.0,-2.657,-2.712,-2.7886,-2.8988,-2.9042,-2.906,-2.9082,-2.8772,-2.8139,-2.7193,-2.5743,-2.4384,-2.3091,-2.121,-2.0128,-1.9808,-1.9207,-1.8898,-1.8784,-1.8355,-1.7935,-1.7475,-1.7047,-1.6182,-1.4983,-1.3924,-1.2498,-1.08,-0.895,-0.7282,-0.5689,0.0,0.0,0.0,0.0,0.0,0.0,0.0,0.0,0.0,0.0,0.0,0.0,0.0,0.0,0.0,0.0,0.0,0.0,0.0,0.0,0.0,-2.3976,-2.4923,-2.5749,-2.6439,-2.7306,-2.7179,-2.6006,-2.6778,-2.6437,-2.5136,-2.6331,-2.6595,-2.6045,-2.6353,-2.5912,-2.4852,-2.4606,-2.3377,-2.1698,-2.2134,-2.0757,-1.8435,-1.7826,0.0,0.0,0.0,0.0,0.0,0.0,0.0,0.0,0.0,-2.2546,-2.3648,-2.2145,-2.3541,-2.5615,-2.5762,-2.5813,-2.5994,-2.6688,-2.6162,-2.5553,-2.5913,-2.4689,-2.3169,-2.2032,-2.1157,-2.0121,0.0,0.0,-2.0373,-2.2974,-2.3484,-2.4511,-2.7235,-2.7086,-2.7009,0.0,0.0,0.0,0.0,0.0,0.0,-2.5973,0.0,-2.8293,-2.8462,-2.9139,-2.9551,-2.9607,-2.9067,-2.7944,-2.6172,-2.5508,-2.3933,-2.1568,-2.1166,-2.0632,-1.9989,-1.9522,-1.9169,-1.8884,-1.8539,-1.8068,-1.7544,-1.6744,-1.5896,-1.504,-1.3893,-1.2319,-1.0535,-0.9013,-0.7122,-0.5087,0.0,0.0,0.0,0.0,0.0,0.0,0.0,0.0,0.0,0.0,0.0,0.0,0.0,0.0,0.0,0.0,0.0,0.0,0.0,0.0,0.0,0.0,0.0,0.0,0.0,0.0,0.0,-2.476,-2.4133,-2.3818,-2.3777,-2.2915,-2.298,-2.3769,-2.276,-2.2229,-2.2009,-2.1568,-2.0797,-1.994,0.0,-1.9147,-1.8435,0.0,0.0,0.0,0.0,0.0,0.0,0.0,0.0,0.0,0.0,-2.2642,-2.3272,-2.4091,-2.4869,-2.5887,-2.789,-2.7971,-2.753,-2.7729,-2.7094,-2.6126,-2.4896,-2.3274,-2.1742,-2.0709,-1.9764,-1.9228,0.0,0.0,0.0,-2.4174,-2.4693,0.0,-2.747,-2.866,0.0,-2.8152,0.0,-2.8371,-2.7748,-2.8055,0.0,0.0,-2.7101,-2.7709,-2.9573,-2.9807,-2.982,-2.9681,-2.897,-2.814,-2.7232,-2.5468,-2.3877,-2.2468,-2.2141,-2.1786,-2.1383,-2.0911,-2.0585,-2.0416,-1.9778,-1.9236,-1.8788,-1.8014,-1.7063,-1.5855,-1.4479,-1.2733,-1.0807,-0.8808,-0.6904,-0.4626,0.0,0.0,0.0,0.0,0.0,0.0,0.0,0.0,0.0,0.0,0.0,0.0,0.0,0.0,0.0,0.0,0.0,0.0,0.0,0.0,0.0,0.0,0.0,0.0,0.0,0.0,0.0,0.0,0.0,0.0,-2.0447,-2.0164,-2.0307,-2.0834,-2.0177,-1.9813,-1.9641,-1.8778,0.0,0.0,0.0,0.0,0.0,0.0,0.0,0.0,0.0,0.0,0.0,0.0,0.0,-2.3267,-2.3189,-2.3987,-2.5069,-2.5655,0.0,-2.7359,-2.8869,-2.8923,-2.8515,-2.8172,-2.7167,-2.5854,-2.4452,-2.2824,-2.1196,-1.9835,-1.942,0.0,0.0,0.0,0.0,0.0,0.0,0.0,-2.7007,-2.8491,-2.9298,0.0,-2.9601,0.0,-2.9247,-2.9253,-2.9252,0.0,-2.855,-2.8626,-2.9614,-2.9601,-2.9494,-2.9349,-2.8471,-2.758,-2.6682,-2.4972,-2.3766,-2.3053,-2.276,-2.247,-2.2186,-2.172,-2.1423,-2.121,0.0,-2.0131,-1.9519,-1.8812,-1.7773,-1.6557,-1.5049,-1.3476,-1.1758,-0.9753,-0.66,-0.2683,0.0,0.0,0.0,0.0,0.0,0.0,0.0,0.0,0.0,0.0,0.0,0.0,0.0,0.0,0.0,0.0,0.0,0.0,0.0,0.0,0.0,0.0,0.0,0.0,0.0,0.0,0.0,0.0,0.0,0.0,0.0,0.0,0.0,0.0,0.0,0.0,0.0,0.0,0.0,0.0,0.0,0.0,0.0,0.0,0.0,0.0,0.0,0.0,0.0,0.0,-2.3953,-2.4889,-2.4511,-2.5913,-2.7593,-2.6993,-2.798,-2.928,-2.9398,-2.9467,-2.9319,-2.8485,-2.6952,-2.538,-2.4307,-2.2667,-2.0954,-1.9489,0.0,-1.9888,-1.9358,0.0,-2.0133,-2.2518,0.0,-2.3028,-2.6333,-2.756,-2.8739,-3.0406,-3.0606,-3.0608,-3.0617,-2.9936,-2.9783,-3.0464,-3.0432,-3.0007,-2.9156,-2.9066,-2.8895,-2.8594,-2.7706,-2.6654,-2.5422,-2.4358,-2.3699,-2.3515,-2.3218,-2.2959,-2.2728,-2.2295,-2.2023,-2.1786,-2.1453,-2.0863,-2.0107,-1.9394,-1.847,-1.7343,-1.5813,-1.446,-1.3161,-1.1315,-0.6534,-0.0613,0.0,0.0,0.0,0.0,0.0,0.0,0.0,0.0,0.0,0.0,0.0,0.0,0.0,0.0,0.0,0.0,0.0,0.0,0.0,0.0,0.0,0.0,0.0,0.0,0.0,0.0,0.0,0.0,-1.7856,0.0,0.0,0.0,0.0,0.0,0.0,0.0,0.0,0.0,0.0,0.0,0.0,0.0,0.0,0.0,0.0,0.0,0.0,0.0,0.0,0.0,-2.3892,-2.5991,-2.6732,-2.735,-2.7862,-2.8339,-2.9245,-3.0244,-3.0979,-3.1168,-3.0868,-2.9512,-2.7857,-2.5996,-2.3787,-2.1382,0.0,0.0,0.0,-1.967,-2.0907,-2.1198,0.0,-2.2798,0.0,0.0,0.0,0.0,-2.8743,0.0,0.0,0.0,0.0,0.0,0.0,0.0,0.0,-2.9533,-2.9202,-2.9231,-2.8531,-2.6971,-2.6581,-2.5967,-2.5007,-2.4572,-2.4263,-2.4063,-2.4007,-2.3771,-2.3419,-2.3343,-2.317,-2.2891,-2.2167,0.0,-2.1401,-2.0556,-1.9743,-1.884,-1.7093,-1.6035,-1.5174,-1.2642,-0.7721,-0.1539,0.0,0.0,0.0,0.0,0.0,0.0,0.0,0.0,0.0,0.0,-1.8424,0.0,0.0,0.0,0.0,0.0,0.0,0.0,0.0,0.0,0.0,0.0,0.0,0.0,0.0,-1.9129,-1.8748,-1.8021,0.0,-1.7657,-1.7356,-1.7267,-1.7475,-1.7885,-1.7461,0.0,0.0,0.0,0.0,0.0,0.0,0.0,0.0,0.0,0.0,0.0,0.0,0.0,0.0,0.0,-2.3092,-2.4594,-2.6397,-2.7325,-2.8011,-2.9251,-2.9928,-3.0542,-3.1872,-3.2185,-3.17,-2.9719,-2.7961,-2.6062,-2.3615,0.0,0.0,0.0,-2.0779,-2.0877,-2.211,0.0,0.0,0.0,0.0,0.0,0.0,0.0,0.0,0.0,0.0,0.0,0.0,0.0,0.0,0.0,0.0,-2.8973,-2.9347,-2.8529,-2.7439,-2.6075,-2.586,-2.5379,-2.4534,-2.4676,-2.4496,-2.3997,-2.4348,-2.4371,-2.4118,-2.4081,-2.3911,-2.365,-2.3152,0.0,-2.241,-2.1532,-2.0846,-2.0182,-1.8602,-1.6419,-1.3806,-1.1229,-0.4885,0.3024,0.0,0.0,0.0,0.0,0.0,0.0,0.0,-1.662,-1.7272,-1.8237,-1.8578,-1.8738,-1.8734,-1.8518,0.0,0.0,0.0,0.0,0.0,0.0,0.0,0.0,0.0,0.0,0.0,0.0,0.0,-1.7487,-1.8121,0.0,0.0,0.0,0.0,0.0,-1.8031,-1.7919,-1.781,0.0,0.0,0.0,0.0,0.0,0.0,0.0,0.0,0.0,0.0,0.0,0.0,0.0,-2.2199,-2.2901,-2.4953,-2.6307,-2.751,-2.9245,-3.0092,-3.0819,-3.2364,-3.289,-3.2393,-2.9963,-2.7961,-2.5948,-2.356,-2.1694,0.0,0.0,-2.1904,-2.2268,-2.2906,0.0,0.0,0.0,0.0,0.0,0.0,0.0,0.0,0.0,0.0,0.0,0.0,0.0,0.0,0.0,0.0,0.0,-2.8914,-2.7479,-2.622,-2.5359,-2.5215,-2.4775,-2.3948,-2.4321,-2.4297,-2.382,-2.4366,-2.4648,-2.4666,-2.464,-2.45,-2.4245,-2.4025,0.0,0.0,-2.2202,-2.1515,-2.0323,-1.9146,-1.633,-1.2565,-0.9234,-0.1678,0.7269,0.0,0.0,0.0,0.0,0.0,0.0,0.0,-1.6311,-1.7301,-1.8179,-1.8229,-1.8104,-1.7912,-1.7947,0.0,0.0,0.0,0.0,0.0,0.0,0.0,0.0,0.0,0.0,0.0,0.0,0.0,-1.8107,-1.7961,0.0,0.0,0.0,0.0,0.0,0.0,-1.8469,-1.8069,-1.7983,0.0,0.0,0.0,0.0,0.0,0.0,0.0,0.0,0.0,0.0,0.0,0.0,0.0,-2.2469,-2.2844,-2.4091,-2.5765,-2.7453,0.0,0.0,-3.2477,-3.328,-3.3287,-3.0809,-2.8324,-2.5888,-2.3538,0.0,0.0,-2.1601,-2.2422,-2.3007,-2.3081,-2.3744,0.0,0.0,0.0,-2.323,0.0,0.0,0.0,0.0,0.0,0.0,0.0,0.0,0.0,0.0,0.0,0.0,-2.712,-2.6245,-2.5325,-2.4459,-2.4412,-2.3991,-2.313,-2.3045,-2.3289,-2.3879,-2.4015,-2.4353,-2.4877,-2.4996,-2.4924,-2.4727,-2.4465,0.0,0.0,-2.2333,-2.1345,-1.7955,-1.7273,-1.6092,-1.4026,-0.8013,-0.0627,0.6673,0.0,0.0,0.0,0.0,0.0,0.0,0.0,-1.5478,-1.642,-1.6816,-1.7157,-1.7217,-1.6766,-1.6679,0.0,0.0,0.0,0.0,0.0,0.0,0.0,0.0,0.0,0.0,0.0,0.0,0.0,-1.8922,-1.8934,0.0,0.0,0.0,0.0,0.0,0.0,-1.8273,-1.8111,0.0,0.0,0.0,0.0,0.0,0.0,0.0,0.0,0.0,0.0,0.0,0.0,0.0,0.0,0.0,-2.0763,-2.1445,0.0,0.0,-2.8033,-2.962,-3.1475,-3.2588,-3.2607,-3.0081,-2.7977,-2.5861,-2.3388,0.0,-2.075,-2.2218,-2.2808,-2.3057,-2.3086,-2.3788,-2.3883,-2.2478,0.0,0.0,0.0,0.0,0.0,0.0,0.0,0.0,0.0,0.0,0.0,0.0,0.0,0.0,-2.5269,-2.4976,-2.4653,-2.4303,-2.3781,-2.3098,-2.2222,-2.2605,-2.272,-2.2581,-2.354,-2.4152,-2.4358,-2.2728,-2.1893,-2.1659,-1.9257,0.0,0.0,-1.7193,-1.6258,-1.4078,-1.3265,-1.0288,-0.596,-0.1922,0.4009,1.0372,0.0,0.0,0.0,0.0,0.0,0.0,-1.3355,-1.4438,-1.5291,-1.5734,-1.5968,-1.5948,-1.5655,-1.5352,-1.5258,-1.546,0.0,0.0,0.0,0.0,0.0,0.0,0.0,0.0,0.0,0.0,0.0,-1.9018,-1.9479,-1.9614,0.0,0.0,-1.8716,-1.8418,0.0,0.0,0.0,0.0,0.0,0.0,0.0,0.0,0.0,0.0,0.0,0.0,0.0,0.0,0.0,0.0,0.0,0.0,0.0,0.0,0.0,0.0,-2.6285,-2.7765,-2.9825,-3.0963,-3.103,-2.872,-2.6948,-2.5137,0.0,0.0,-2.0708,-2.2269,-2.2594,-2.2705,-2.2984,-2.3528,-2.3497,-2.2237,0.0,-2.2167,0.0,0.0,0.0,0.0,0.0,0.0,0.0,0.0,0.0,0.0,0.0,0.0,-2.3729,-2.3564,-2.3495,-2.3534,-2.2941,-2.2187,-2.1282,-2.1821,-2.1957,-2.1717,-2.3061,-2.3853,-2.4022,-2.1239,-1.9823,-1.9355,-1.5588,0.0,0.0,-1.2828,-1.1749,-0.9532,-0.8753,-0.5113,0.0135,0.3652,0.8374,1.3366,0.0,0.0,0.0,0.0,0.0,0.0,0.0,-1.3246,-1.4025,-1.5438,-1.4745,-1.4274,-1.4662,-1.3955,-1.3525,-1.3814,0.0,0.0,0.0,0.0,0.0,0.0,0.0,0.0,0.0,0.0,0.0,0.0,-1.9114,-1.9744,-1.9968,-1.9241,-1.9005,-1.9149,0.0,0.0,0.0,0.0,0.0,0.0,0.0,0.0,0.0,0.0,0.0,0.0,0.0,0.0,0.0,0.0,0.0,0.0,0.0,0.0,-2.0007,0.0,-2.4435,-2.6612,-2.751,-2.8332,-2.8529,-2.6842,-2.516,-2.3501,0.0,0.0,-2.0469,-2.1411,-2.1676,-2.1959,-2.2755,-2.295,-2.2963,-2.2804,-2.283,0.0,0.0,0.0,0.0,0.0,0.0,0.0,0.0,0.0,0.0,0.0,0.0,0.0,-2.2628,-2.1929,-2.1585,-2.172,-2.1717,-2.125,-2.0312,-2.0387,-2.0859,-2.1706,-2.2597,-2.3439,-2.4113,-2.1346,-1.9697,-1.8804,0.0,0.0,0.0,-1.0586,-0.9049,-0.4428,-0.4012,-0.1931,0.1614,0.752,1.1612,1.4462,0.0,0.0,0.0,0.0,0.0,0.0,0.0,-1.1912,-1.2429,-1.1955,-1.2025,-1.2234,-1.2496,-1.2236,-1.227,-1.2864,0.0,0.0,0.0,0.0,0.0,0.0,0.0,0.0,0.0,0.0,0.0,0.0,0.0,0.0,-2.0383,-1.947,-1.8808,-1.8359,-1.7883,0.0,0.0,0.0,0.0,0.0,0.0,0.0,0.0,0.0,0.0,0.0,0.0,0.0,0.0,0.0,0.0,0.0,0.0,0.0,0.0,-2.0346,-2.196,-2.3757,-2.4822,-2.5672,-2.5958,-2.4841,-2.3774,-2.2691,-2.1496,0.0,-2.0401,-2.134,-2.1545,-2.1494,-2.124,-2.1172,-2.1138,-2.1034,-2.1004,0.0,0.0,0.0,0.0,0.0,0.0,0.0,0.0,0.0,0.0,0.0,0.0,0.0,-2.2569,-2.1132,-2.0671,-2.154,-2.1025,-2.0584,-2.0243,-2.0337,-2.0526,-2.0724,-1.9265,-1.8663,-1.8681,-1.3138,-1.0469,0.0,0.0,0.0,0.0,-0.2763,-0.1523,0.1029,0.273,0.4958,0.7641,1.0957,1.347,1.5369,0.0,0.0,0.0,0.0,0.0,0.0,0.0,-1.0592,-1.09,-1.0284,-1.0507,-1.0885,-1.1222,-1.1009,-1.1121,-1.184,0.0,0.0,0.0,0.0,0.0,0.0,0.0,0.0,0.0,0.0,0.0,0.0,0.0,0.0,0.0,0.0,0.0,-1.8028,-1.7526,0.0,0.0,0.0,0.0,0.0,0.0,0.0,-1.7515,0.0,0.0,0.0,0.0,0.0,0.0,0.0,0.0,0.0,0.0,0.0,0.0,0.0,-2.0122,-2.1176,0.0,-2.3095,-2.3321,-2.2773,-2.2041,0.0,0.0,0.0,-2.0172,-2.084,-2.0985,-2.0762,-1.9948,-1.9774,-1.9718,-1.9554,-1.9526,0.0,0.0,0.0,0.0,0.0,0.0,0.0,0.0,0.0,0.0,0.0,0.0,0.0,-2.1287,-2.0214,-1.9945,-2.0712,-2.0331,-2.0068,-2.0022,-2.02,-1.9584,-1.8221,-1.7006,-1.5622,-1.3956,-0.8763,-0.6166,0.0,0.0,0.0,0.0,0.1701,0.3049,0.4775,0.6754,0.8929,1.1195,1.3155,1.4687,1.5928,0.0,0.0,0.0,0.0,0.0,0.0,0.0,0.0,0.0,0.0,-0.9864,-1.002,-1.0606,-1.0116,-0.9995,0.0,0.0,0.0,0.0,0.0,0.0,0.0,0.0,0.0,0.0,0.0,0.0,-1.8238,-1.8635,-1.9118,-1.9704,0.0,0.0,0.0,0.0,0.0,0.0,0.0,0.0,0.0,0.0,0.0,0.0,0.0,0.0,0.0,0.0,0.0,0.0,0.0,0.0,0.0,0.0,0.0,0.0,0.0,0.0,0.0,0.0,0.0,0.0,0.0,0.0,0.0,0.0,0.0,0.0,-1.9943,-2.003,-1.9797,-1.8859,-1.871,-1.8625,-1.8432,0.0,0.0,0.0,0.0,0.0,0.0,0.0,0.0,0.0,0.0,0.0,0.0,0.0,0.0,-1.9274,-1.9328,-1.9364,-1.9402,-1.9582,-1.9693,-1.9713,-1.996,-1.8292,-1.4782,-1.5488,-1.3759,-0.978,-0.7236,-0.5503,0.0,0.0,0.0,0.0,0.3395,0.5022,0.7008,0.8506,1.037,1.2492,1.4207,1.5374,1.6188,0.0,0.0,0.0,0.0,0.0,0.0,0.0,0.0,0.0,0.0,0.0,-0.8007,-0.8397,-0.8174,0.0,0.0,0.0,0.0,0.0,0.0,0.0,0.0,0.0,0.0,0.0,0.0,0.0,-1.7702,-1.861,-1.8923,-1.8729,-1.8761,0.0,0.0,0.0,0.0,0.0,0.0,0.0,0.0,0.0,0.0,0.0,0.0,0.0,0.0,-1.7576,-1.7721,0.0,0.0,0.0,0.0,0.0,0.0,0.0,0.0,-1.8697,-1.8753,-1.844,0.0,-1.9744,-1.9759,-1.9685,0.0,0.0,0.0,0.0,0.0,0.0,0.0,0.0,0.0,0.0,0.0,0.0,0.0,0.0,0.0,0.0,0.0,0.0,0.0,0.0,0.0,0.0,0.0,0.0,-1.9401,-2.0065,-1.9374,-1.8824,-1.8592,-1.8592,-1.8968,-1.9767,-1.9843,-1.8018,-1.431,-1.2352,-0.9082,-0.47,-0.1277,0.0611,0.0,0.0,0.0,0.4606,0.5518,0.6878,0.8566,1.0269,1.1769,1.3012,1.4049,1.506,1.5978,0.0,0.0,0.0,0.0,0.0,0.0,0.0,0.0,0.0,0.0,0.0,0.0,0.0,0.0,0.0,0.0,0.0,0.0,0.0,0.0,0.0,0.0,0.0,0.0,0.0,0.0,0.0,0.0,0.0,-1.8204,0.0,0.0,0.0,0.0,0.0,0.0,0.0,0.0,0.0,0.0,-1.7075,0.0,0.0,0.0,0.0,0.0,-1.7133,-1.7269,0.0,-1.7427,-1.7659,-1.8078,0.0,0.0,0.0,0.0,-1.8487,-1.8514,-1.8253,-1.8622,-1.9006,-1.8736,-1.8709,-1.8772,0.0,0.0,0.0,0.0,0.0,0.0,0.0,0.0,0.0,0.0,0.0,0.0,0.0,0.0,0.0,0.0,0.0,0.0,0.0,0.0,0.0,0.0,0.0,-1.8577,-1.897,-1.857,-1.818,-1.7808,-1.7761,-1.7494,-1.701,-1.7047,-1.4657,-0.9817,-0.828,-0.5187,-0.0719,0.1111,0.2466,0.0,0.0,0.0,0.5301,0.6706,0.8037,0.9343,1.1172,1.2541,1.3601,1.4127,1.4888,1.5823,0.0,0.0,0.0,0.0,0.0,0.0,0.0,0.0,0.0,0.0,0.0,0.0,0.0,0.0,0.0,0.0,0.0,0.0,0.0,0.0,0.0,0.0,0.0,0.0,0.0,0.0,0.0,0.0,0.0,0.0,0.0,0.0,-1.7508,0.0,0.0,0.0,0.0,0.0,0.0,0.0,-1.6596,0.0,0.0,0.0,0.0,0.0,0.0,0.0,0.0,-1.6613,-1.6995,-1.7669,-1.7686,0.0,0.0,0.0,0.0,0.0,-1.8377,-1.8501,-1.8482,-1.8067,-1.7884,-1.7828,0.0,0.0,0.0,0.0,0.0,0.0,0.0,0.0,0.0,0.0,0.0,0.0,0.0,0.0,0.0,0.0,0.0,0.0,0.0,0.0,0.0,0.0,0.0,-1.7446,-1.7221,-1.7449,-1.7369,-1.6906,-1.6686,-1.5401,-1.2927,-1.3458,-1.0706,-0.4778,-0.4733,-0.2244,0.2319,0.1814,0.2513,0.399,0.0,0.0,0.5544,0.7343,0.8731,0.9921,1.167,1.3044,1.4007,1.4271,1.4916,1.5772,0.0,0.0,0.0,0.0,0.0,0.0,0.0,0.0,0.0,0.0,0.0,0.0,0.0,0.0,0.0,0.0,0.0,0.0,0.0,0.0,0.0,0.0,0.0,0.0,0.0,0.0,0.0,0.0,0.0,0.0,-1.5931,-1.7204,-1.7641,-1.7285,0.0,0.0,0.0,0.0,0.0,0.0,0.0,0.0,0.0,0.0,0.0,0.0,0.0,0.0,0.0,-1.5468,-1.5868,-1.6642,-1.6697,0.0,0.0,0.0,0.0,0.0,-1.6458,-1.7041,-1.8132,-1.861,-1.8265,-1.7814,0.0,0.0,0.0,0.0,0.0,0.0,0.0,0.0,0.0,0.0,0.0,0.0,0.0,0.0,0.0,0.0,0.0,0.0,0.0,0.0,0.0,0.0,0.0,-1.7173,-1.6804,-1.6664,-1.6255,-1.5545,-1.4342,-1.2301,-0.9339,-1.1673,-1.0308,-0.5215,-0.4659,-0.1527,0.3758,0.3016,0.3479,0.4903,0.0,0.5566,0.6834,0.7666,0.9085,1.0931,1.2434,1.3447,1.4054,1.4424,1.5155,1.6009,0.0,0.0,0.0,0.0,0.0,0.0,0.0,0.0,0.0,0.0,0.0,0.0,0.0,0.0,0.0,0.0,0.0,0.0,0.0,0.0,0.0,0.0,0.0,0.0,0.0,0.0,0.0,0.0,0.0,-1.6811,-1.6599,-1.6829,-1.6597,-1.6011,0.0,0.0,0.0,0.0,0.0,0.0,0.0,0.0,0.0,0.0,0.0,0.0,0.0,0.0,0.0,0.0,-1.5291,-1.6061,-1.6602,0.0,0.0,0.0,0.0,0.0,-1.6045,-1.6289,-1.6883,-1.7187,-1.7311,-1.7117,0.0,0.0,0.0,0.0,0.0,0.0,0.0,0.0,0.0,0.0,0.0,0.0,0.0,0.0,0.0,0.0,0.0,0.0,0.0,0.0,0.0,0.0,0.0,0.0,-1.4743,-1.492,-1.4593,-1.3556,-1.294,-1.1228,-0.8322,-0.8431,-0.6826,-0.3503,-0.2668,-0.0531,0.2686,0.2564,0.3463,0.5177,0.0,0.6086,0.7522,0.8438,0.9703,1.1174,1.2689,1.3721,1.4428,1.5061,1.5831,1.6582,0.0,0.0,0.0,0.0,0.0,0.0,0.0,0.0,0.0,0.0,0.0,0.0,0.0,0.0,0.0,0.0,0.0,0.0,0.0,0.0,0.0,0.0,0.0,0.0,0.0,0.0,-1.4841,-1.5,-1.6108,-1.6718,-1.6814,-1.6091,-1.5425,0.0,0.0,0.0,0.0,0.0,0.0,0.0,0.0,0.0,0.0,0.0,0.0,0.0,0.0,0.0,0.0,0.0,0.0,0.0,0.0,0.0,0.0,-1.6385,-1.6362,-1.6214,-1.5666,-1.5618,-1.5651,-1.5328,0.0,0.0,0.0,0.0,0.0,0.0,0.0,0.0,0.0,0.0,0.0,0.0,0.0,0.0,0.0,0.0,0.0,0.0,0.0,0.0,0.0,0.0,0.0,0.0,0.0,0.0,-1.2747,-1.2996,-1.2682,-1.1543,-1.1242,-0.9981,-0.7677,-0.5596,-0.367,-0.1907,-0.0729,0.0553,0.1907,0.2238,0.3442,0.5353,0.5457,0.6395,0.7869,0.8982,1.0072,1.1227,1.2754,1.396,1.4912,1.5824,1.6374,1.6701,0.0,0.0,0.0,0.0,0.0,0.0,0.0,0.0,0.0,0.0,0.0,0.0,0.0,0.0,0.0,0.0,0.0,0.0,0.0,0.0,0.0,0.0,0.0,0.0,0.0,-1.4585,-1.4541,-1.435,-1.4793,-1.4911,-1.482,-1.45,-1.4469,-1.4699,0.0,0.0,0.0,0.0,0.0,0.0,0.0,0.0,0.0,0.0,0.0,0.0,0.0,0.0,0.0,0.0,0.0,0.0,0.0,0.0,-1.5179,-1.535,-1.5354,-1.5164,-1.4496,-1.4775,-1.4936,-1.3635,0.0,0.0,0.0,0.0,0.0,0.0,0.0,0.0,0.0,0.0,0.0,0.0,0.0,0.0,0.0,0.0,0.0,0.0,0.0,0.0,0.0,0.0,0.0,0.0,0.0,0.0,-1.1829,-1.1365,-1.0692,-0.981,-0.8518,-0.7347,-0.635,-0.4477,-0.2923,-0.168,0.0,0.1617,0.31,0.3167,0.4165,0.5756,0.5632,0.6527,0.8145,0.8824,0.9848,1.1069,1.2887,1.4172,1.5231,1.6459,1.6341,1.5709,0.0,0.0,0.0,0.0,0.0,0.0,0.0,0.0,0.0,0.0,0.0,0.0,0.0,0.0,0.0,0.0,0.0,0.0,0.0,0.0,0.0,0.0,0.0,-1.1969,-1.3374,-1.3987,-1.4093,-1.3722,-1.4133,-1.3883,-1.311,-1.3614,0.0,0.0,0.0,0.0,0.0,0.0,-1.3682,-1.3835,-1.3973,0.0,0.0,0.0,0.0,0.0,0.0,0.0,0.0,0.0,-1.368,-1.3833,-1.4925,-1.4883,-1.4475,-1.4619,-1.4487,-1.4011,-1.2843,-1.313,-1.3552,-1.2585,0.0,0.0,0.0,0.0,0.0,0.0,0.0,0.0,0.0,0.0,0.0,0.0,0.0,0.0,0.0,0.0,0.0,0.0,0.0,0.0,0.0,0.0,0.0,0.0,0.0,0.0,-1.019,-0.9757,-0.9024,-0.7946,-0.6994,-0.5798,-0.4333,-0.3055,-0.1877,-0.0889,0.0046,0.1184,0.2461,0.324,0.453,0.6143,0.6429,0.7231,0.8468,0.8997,0.9849,1.0934,1.2549,1.4057,1.5466,1.594,1.6565,1.7263,0.0,0.0,0.0,0.0,0.0,0.0,0.0,0.0,0.0,0.0,0.0,0.0,0.0,0.0,0.0,0.0,0.0,0.0,0.0,0.0,0.0,0.0,0.0,-1.1337,-1.2099,-1.2955,-1.3256,-1.3027,-1.3052,-1.2728,-1.2088,0.0,0.0,0.0,0.0,0.0,0.0,0.0,-1.2896,-1.3173,-1.3238,-1.2884,0.0,0.0,0.0,0.0,0.0,0.0,0.0,0.0,-1.3464,-1.3374,-1.4367,-1.4095,-1.3467,-1.3612,-1.3304,-1.2689,-1.1701,-1.1887,-1.2254,0.0,0.0,0.0,0.0,0.0,0.0,0.0,0.0,0.0,0.0,0.0,0.0,0.0,0.0,0.0,0.0,0.0,0.0,0.0,0.0,0.0,0.0,0.0,0.0,0.0,0.0,0.0,0.0,-0.8096,-0.7344,-0.6246,-0.556,-0.449,-0.3011,-0.1981,-0.1082,-0.0258,0.05,0.1303,0.2135,0.3422,0.479,0.625,0.6765,0.7643,0.877,0.9174,1.0136,1.1425,1.2621,1.4002,1.5369,1.5668,1.6636,1.7882,0.0,0.0,0.0,0.0,0.0,0.0,0.0,0.0,0.0,0.0,0.0,0.0,0.0,0.0,0.0,0.0,0.0,0.0,0.0,0.0,0.0,0.0,0.0,-1.1002,-1.1114,-1.1541,-1.189,-1.2191,-1.1447,-1.1308,-1.176,-1.1583,0.0,0.0,0.0,0.0,0.0,0.0,-1.2102,-1.2377,-1.2377,-1.2267,-1.213,0.0,0.0,0.0,0.0,0.0,0.0,0.0,-1.2439,-1.2064,-1.1724,-1.1798,-1.2033,-1.2241,-1.1769,-1.1212,-1.1283,-1.1246,-1.1228,0.0,0.0,0.0,0.0,0.0,0.0,0.0,0.0,0.0,0.0,0.0,0.0,0.0,0.0,0.0,0.0,0.0,0.0,0.0,0.0,0.0,0.0,0.0,0.0,0.0,0.0,0.0,0.0,-0.635,-0.5581,-0.4718,-0.4083,-0.3353,-0.2504,-0.1349,-0.0528,0.0039,0.1584,0.2319,0.2355,0.377,0.4995,0.6033,0.6579,0.7653,0.9022,0.935,1.0725,1.2657,1.3257,1.4029,1.4893,1.5856,1.6527,1.716,0.0,0.0,0.0,0.0,0.0,0.0,0.0,0.0,0.0,0.0,0.0,0.0,0.0,0.0,0.0,0.0,0.0,0.0,0.0,0.0,0.0,0.0,0.0,0.0,0.0,0.0,-1.0299,-1.0733,-1.081,-1.0711,0.0,0.0,0.0,-1.1886,0.0,0.0,0.0,0.0,-1.1811,-1.1774,-1.1799,-1.1567,-1.1274,0.0,0.0,0.0,0.0,0.0,0.0,0.0,0.0,0.0,-1.2761,-1.202,-1.1212,-1.2223,-1.188,-1.1145,-1.0867,-1.1107,0.0,0.0,0.0,0.0,0.0,0.0,0.0,0.0,0.0,0.0,0.0,0.0,0.0,0.0,0.0,0.0,0.0,0.0,0.0,0.0,0.0,0.0,0.0,0.0,0.0,0.0,0.0,0.0,0.0,-0.5383,-0.4636,-0.4202,-0.2902,-0.1941,-0.1452,-0.0157,0.0555,0.0782,0.1912,0.2605,0.2986,0.4281,0.5626,0.6932,0.7536,0.8456,0.9607,1.0293,1.1092,1.1983,1.2901,1.3852,1.4743,1.5421,1.6582,1.7935,0.0,0.0,0.0,0.0,0.0,0.0,0.0,0.0,0.0,0.0,-0.5606,0.0,0.0,0.0,0.0,0.0,0.0,0.0,0.0,0.0,0.0,0.0,0.0,0.0,0.0,-0.9161,-0.9206,0.0,0.0,0.0,0.0,0.0,0.0,-1.1467,0.0,-1.2025,0.0,0.0,-1.1255,-1.1255,-1.1319,-1.1147,-1.0956,0.0,0.0,0.0,0.0,0.0,0.0,0.0,0.0,0.0,-1.2316,-1.1549,-1.0686,-1.1286,-1.0863,-1.0107,-0.9648,0.0,0.0,0.0,0.0,0.0,0.0,0.0,0.0,0.0,0.0,0.0,0.0,0.0,0.0,0.0,0.0,0.0,0.0,0.0,0.0,0.0,0.0,0.0,0.0,0.0,0.0,0.0,0.0,0.0,0.0,-0.433,-0.3671,-0.3317,-0.206,-0.1143,-0.0663,0.0538,0.1306,0.1583,0.2577,0.3281,0.3742,0.482,0.6095,0.7522,0.8521,0.9319,0.9971,1.0829,1.1468,1.1906,1.2743,1.3727,1.4812,1.5347,1.6665,1.8187,0.0,0.0,0.0,0.0,0.0,0.0,0.0,0.0,0.0,0.0,-0.5456,-0.5662,0.0,0.0,0.0,0.0,0.0,0.0,0.0,0.0,0.0,0.0,0.0,0.0,0.0,0.0,0.0,0.0,0.0,0.0,0.0,0.0,-1.105,-1.1338,0.0,-1.146,-1.1548,-1.0743,-1.0572,-1.084,-1.084,-1.0878,-1.0943,-1.1345,0.0,0.0,0.0,0.0,0.0,0.0,0.0,0.0,-1.0872,-1.0638,-1.0328,-0.992,-0.9289,-0.8637,-0.8184,0.0,0.0,0.0,0.0,0.0,0.0,0.0,0.0,0.0,0.0,0.0,0.0,0.0,0.0,0.0,0.0,0.0,0.0,0.0,0.0,0.0,0.0,0.0,0.0,0.0,0.0,0.0,0.0,0.0,0.0,-0.3229,-0.272,-0.2226,-0.1484,-0.0751,-0.0067,0.0958,0.1768,0.2383,0.3486,0.4215,0.4653,0.536,0.6489,0.7923,0.9469,1.0157,1.0235,1.118,1.1799,1.2282,1.271,1.3729,1.5031,1.5513,1.6671,1.8039,0.0,0.0,0.0,0.0,0.0,0.0,0.0,0.0,0.0,0.0,0.0,0.0,0.0,0.0,0.0,0.0,0.0,0.0,0.0,0.0,0.0,0.0,0.0,0.0,0.0,0.0,0.0,0.0,0.0,0.0,0.0,0.0,0.0,-1.0772,0.0,-1.1085,-1.0664,-1.0497,-1.0428,-1.0428,-1.0312,-1.0273,-1.0341,-1.0753,-1.0943,0.0,0.0,0.0,0.0,0.0,0.0,0.0,-1.0479,-1.0098,-0.9824,-1.0323,-0.9792,-0.9046,0.0,-0.9126,0.0,0.0,0.0,0.0,0.0,0.0,0.0,0.0,0.0,0.0,0.0,0.0,0.0,0.0,0.0,0.0,0.0,0.0,0.0,0.0,0.0,0.0,0.0,0.0,0.0,0.0,0.0,0.0,-0.2591,-0.2097,-0.1716,-0.144,-0.0683,-0.0088,0.0282,0.1406,0.2269,0.2951,0.4111,0.5047,0.5782,0.6257,0.7356,0.899,0.9942,1.0524,1.0867,1.1479,1.1993,1.2508,1.3277,1.4023,1.4779,1.5582,1.6675,1.7815,0.0,0.0,0.0,0.0,0.0,0.0,0.0,0.0,0.0,0.0,0.0,0.0,0.0,0.0,0.0,0.0,0.0,0.0,0.0,0.0,0.0,0.0,0.0,0.0,0.0,0.0,0.0,0.0,0.0,0.0,0.0,0.0,0.0,-1.0515,0.0,-1.0835,-1.0273,-1.0273,-1.0235,-1.0137,-1.0088,-1.0049,-1.0088,-1.0273,-1.0467,-1.0621,-1.0878,0.0,0.0,0.0,0.0,0.0,0.0,0.0,-0.9003,-0.9178,-0.8924,-0.8538,0.0,0.0,0.0,0.0,0.0,0.0,0.0,0.0,0.0,0.0,0.0,0.0,0.0,0.0,0.0,0.0,0.0,0.0,0.0,0.0,0.0,0.0,0.0,0.0,0.0,0.0,0.0,0.0,0.0,-0.2209,-0.1742,-0.1368,-0.1045,-0.0777,-0.0057,0.0512,0.093,0.1861,0.2743,0.3577,0.4442,0.5629,0.7044,0.7514,0.8244,0.9208,1.0108,1.0687,1.0992,1.1579,1.2102,1.2496,1.3083,1.375,1.4513,1.5465,1.6537,1.7595,0.0,0.0,0.0,0.0,0.0,0.0,0.0,0.0,0.0,0.0,0.0,0.0,0.0,0.0,0.0,0.0,0.0,0.0,0.0,0.0,0.0,0.0,0.0,0.0,0.0,0.0,0.0,0.0,0.0,0.0,0.0,0.0,0.0,-1.0361,0.0,-1.0565,-0.9961,-0.9961,-0.9883,-0.9774,-0.9744,-0.9783,-0.9862,-0.9862,0.0,-1.0341,-1.0351,-1.0351,-1.0301,-1.0231,0.0,0.0,0.0,0.0,-0.8425,-0.7961,-0.7928,-0.7799,0.0,0.0,0.0,0.0,0.0,0.0,0.0,0.0,0.0,0.0,0.0,0.0,0.0,0.0,0.0,0.0,0.0,0.0,0.0,0.0,0.0,0.0,0.0,0.0,0.0,0.0,0.0,0.0,0.0,-0.1636,-0.1108,-0.0854,-0.0558,-0.0161,0.0435,0.1014,0.1537,0.2333,0.3197,0.414,0.4824,0.6102,0.7867,0.8521,0.897,0.9297,1.0225,1.0764,1.1067,1.1653,1.2138,1.252,1.2697,1.3355,1.4262,1.5273,1.6275,1.7232,0.0,0.0,0.0,0.0,0.0,0.0,0.0,0.0,0.0,0.0,-0.7979,0.0,0.0,0.0,0.0,0.0,0.0,0.0,0.0,0.0,0.0,0.0,0.0,0.0,0.0,0.0,0.0,0.0,0.0,0.0,0.0,0.0,0.0,-1.0118,0.0,0.0,-0.9399,-0.9399,-0.9199,-0.8878,-0.8756,-0.8926,-0.9297,0.0,0.0,0.0,0.0,-0.9297,-0.9143,-0.8757,-0.9021,0.0,0.0,0.0,-0.8907,-0.8844,-0.8263,-0.7633,0.0,0.0,0.0,0.0,0.0,0.0,0.0,0.0,0.0,0.0,0.0,0.0,0.0,0.0,0.0,0.0,0.0,0.0,0.0,0.0,0.0,0.0,0.0,0.0,0.0,0.0,0.0,0.0,-0.1623,-0.1108,-0.0622,-0.0496,-0.0182,0.0368,0.0768,0.1189,0.1677,0.2751,0.3608,0.4296,0.5803,0.6819,0.7331,0.8339,0.9269,1.0166,1.0534,1.0992,1.1442,1.17,1.221,1.2826,1.2733,1.3223,1.4051,1.5008,1.5761,1.6528,0.0,0.0,0.0,0.0,0.0,0.0,0.0,0.0,0.0,0.0,0.0,-0.8919,0.0,0.0,0.0,0.0,0.0,0.0,0.0,0.0,0.0,0.0,0.0,0.0,0.0,0.0,0.0,0.0,0.0,0.0,0.0,-0.9399,-0.9627,0.0,0.0,0.0,0.0,0.0,-0.8675,-0.8423,-0.8349,-0.8303,0.0,0.0,0.0,0.0,0.0,0.0,0.0,-0.7943,-0.8048,-0.8314,-0.7939,0.0,0.0,0.0,-0.7537,0.0,0.0,0.0,0.0,0.0,0.0,0.0,0.0,0.0,0.0,0.0,0.0,0.0,0.0,0.0,0.0,0.0,0.0,0.0,0.0,0.0,0.0,0.0,0.0,0.0,0.0,0.0,0.0,0.0,-0.111,-0.0667,-0.0089,0.0047,0.0334,0.0812,0.1374,0.1793,0.2093,0.3179,0.4141,0.4966,0.5812,0.6617,0.745,0.8308,0.8995,0.962,1.0462,1.1019,1.1394,1.17,1.2102,1.2627,1.2674,1.3082,1.3718,1.4631,1.5505,1.6382,0.0,0.0,0.0,0.0,0.0,0.0,0.0,0.0,0.0,0.0,0.0,0.0,0.0,0.0,0.0,0.0,0.0,0.0,0.0,0.0,0.0,0.0,0.0,0.0,0.0,0.0,0.0,0.0,0.0,0.0,-0.8717,-0.9001,-0.9228,0.0,-0.9284,0.0,0.0,0.0,0.0,0.0,0.0,0.0,0.0,0.0,0.0,0.0,0.0,0.0,0.0,0.0,0.0,0.0,0.0,0.0,0.0,0.0,0.0,0.0,0.0,0.0,0.0,0.0,0.0,0.0,0.0,0.0,0.0,0.0,0.0,0.0,0.0,0.0,0.0,0.0,0.0,0.0,0.0,0.0,0.0,0.0,0.0,0.0,0.0,0.0,0.0,0.0,-0.0647,-0.0245,0.0289,0.0529,0.0822,0.1176,0.1875,0.2296,0.2418,0.3471,0.452,0.554,0.5715,0.6453,0.7664,0.8397,0.8903,0.9309,1.0456,1.1142,1.1457,1.1811,1.2291,1.2854,1.301,1.3368,1.398,1.4774,1.5601,1.6417,0.0,0.0,0.0,0.0,0.0,0.0,0.0,0.0,0.0,0.0,0.0,0.0,0.0,0.0,0.0,-1.085,0.0,0.0,0.0,0.0,0.0,0.0,0.0,0.0,0.0,0.0,0.0,0.0,0.0,0.0,-0.8537,-0.855,-0.8406,-0.8224,-0.8774,-0.8456,-0.7565,0.0,0.0,0.0,0.0,0.0,0.0,0.0,0.0,0.0,0.0,0.0,0.0,0.0,0.0,0.0,0.0,0.0,0.0,0.0,0.0,0.0,0.0,0.0,0.0,0.0,0.0,0.0,0.0,0.0,0.0,0.0,0.0,0.0,0.0,0.0,0.0,0.0,0.0,0.0,0.0,0.0,0.0,0.0,0.0,0.0,0.0,0.0,0.0,0.0,-0.0179,0.0224,0.0379,0.0819,0.1168,0.1379,0.2034,0.241,0.2484,0.3482,0.4581,0.5698,0.5944,0.6693,0.7831,0.868,0.9358,0.9902,1.0787,1.1463,1.1872,1.2222,1.3059,1.4107,1.4035,1.4497,1.5284,1.5893,1.6258,1.6507,0.0,0.0,0.0,0.0,0.0,0.0,0.0,0.0,0.0,0.0,0.0,0.0,0.0,-1.0916,-1.0725,-1.0708,-1.0505,0.0,0.0,0.0,0.0,0.0,0.0,0.0,0.0,0.0,0.0,0.0,0.0,-0.8006,-0.8127,-0.8033,-0.7748,-0.7353,-0.7817,-0.7648,-0.6999,-0.6956,0.0,0.0,0.0,0.0,0.0,0.0,0.0,0.0,0.0,0.0,0.0,0.0,0.0,0.0,0.0,0.0,0.0,0.0,0.0,0.0,0.0,0.0,0.0,0.0,0.0,0.0,0.0,0.0,0.0,0.0,0.0,0.0,0.0,0.0,0.0,0.0,0.0,0.0,0.0,0.0,0.0,0.0,0.0,0.0,0.0,0.0,0.0,0.0,0.0,0.0505,0.0891,0.119,0.1565,0.2025,0.2434,0.3036,0.385,0.4172,0.4955,0.6221,0.6058,0.6757,0.8213,0.8822,0.9472,1.0139,1.1062,1.1452,1.1522,1.2321,1.2977,1.3555,1.4337,1.4853,1.5285,1.5658,1.6087,1.652,0.0,0.0,0.0,0.0,0.0,0.0,0.0,0.0,0.0,0.0,0.0,0.0,0.0,0.0,-1.0505,-1.0505,-1.0428,-1.0225,-0.9913,-0.9971,0.0,0.0,0.0,0.0,0.0,0.0,0.0,0.0,0.0,0.0,0.0,-0.7405,-0.682,-0.586,-0.6784,-0.6985,0.0,0.0,0.0,-0.6374,0.0,0.0,-0.5832,0.0,0.0,0.0,0.0,0.0,0.0,0.0,0.0,0.0,0.0,0.0,0.0,0.0,0.0,0.0,0.0,0.0,0.0,0.0,0.0,0.0,0.0,0.0,0.0,0.0,0.0,0.0,0.0,0.0,0.0,0.0,0.0,0.0,0.0,0.0,0.0,0.0,0.0,0.0,0.0,0.0,0.0,0.0,0.0,0.0,0.1402,0.1849,0.2397,0.3077,0.3181,0.3618,0.4414,0.4631,0.5326,0.65,0.6493,0.7358,0.8912,0.9277,0.9808,1.0438,1.1226,1.1479,1.1507,1.2666,1.3362,1.3821,1.4902,1.5556,1.588,1.6062,1.6428,1.6797,0.0,0.0,0.0,0.0,0.0,0.0,0.0,0.0,0.0,0.0,0.0,0.0,0.0,0.0,0.0,-1.0283,-1.0244,-1.0205,-1.0098,-1.0019,0.0,0.0,0.0,0.0,0.0,0.0,0.0,0.0,0.0,0.0,0.0,0.0,-0.5647,-0.3855,-0.5647,-0.6435,-0.6435,0.0,-0.6179,-0.6161,0.0,-0.576,-0.5925,0.0,0.0,0.0,-0.4781,-0.4332,0.0,0.0,0.0,0.0,0.0,0.0,0.0,0.0,0.0,0.0,0.0,0.0,0.0,0.0,0.0,0.0,0.0,0.0,0.0,0.0,0.0,0.0,0.0,0.0,0.0,0.0,0.0,0.0,0.0,0.0,0.0,0.0,0.0,0.0,0.0,0.0,0.0,0.0,0.098,0.1357,0.1874,0.2762,0.3639,0.4473,0.4273,0.414,0.4176,0.4884,0.569,0.6565,0.7339,0.8503,0.9918,1.0118,1.0401,1.0822,1.1314,1.1638,1.1892,1.3263,1.4237,1.4992,1.5865,1.6634,1.7199,1.7199,1.7295,1.7404,0.0,0.0,0.0,0.0,0.0,0.0,0.0,0.0,0.0,0.0,0.0,0.0,0.0,0.0,0.0,-0.9558,-0.9319,-0.9191,-0.9384,-0.9095,-0.8979,-0.9123,-0.8848,0.0,0.0,0.0,0.0,0.0,0.0,0.0,0.0,0.0,0.0,0.0,-0.5336,-0.5351,-0.5303,-0.5916,0.0,0.0,-0.5364,-0.5199,0.0,0.0,0.0,0.0,0.0,-0.4019,-0.4007,0.0,-0.3334,-0.3597,0.0,0.0,0.0,0.0,0.0,0.0,-0.3664,0.0,0.0,0.0,0.0,0.0,-0.2116,-0.2392,-0.2719,0.0,0.0,0.0,0.0,0.0,0.0,0.0,0.0,0.0,0.0,0.0,0.0,0.0,0.0,0.0,0.0,0.0,0.0,0.0,0.1403,0.1879,0.2158,0.3259,0.4142,0.4762,0.5059,0.5424,0.5968,0.6284,0.6949,0.8029,0.8209,0.8898,1.0057,1.0103,1.0385,1.093,1.2041,1.2174,1.1793,1.3548,1.4639,1.5302,1.6373,1.6902,1.7086,1.7157,1.7199,1.7253,0.0,0.0,0.0,0.0,0.0,0.0,0.0,0.0,0.0,0.0,0.0,0.0,0.0,0.0,0.0,-0.9191,-0.8788,-0.8552,-0.8635,-0.8411,-0.8338,-0.8365,-0.8146,0.0,0.0,0.0,0.0,0.0,0.0,0.0,0.0,0.0,0.0,0.0,0.0,0.0,0.0,0.0,0.0,0.0,-0.4834,0.0,0.0,-0.4282,-0.4093,0.0,0.0,0.0,-0.3537,-0.2749,-0.2658,0.0,0.0,0.0,0.0,0.0,0.0,0.0,0.0,0.0,0.0,0.0,0.0,0.0,-0.1763,-0.174,-0.1861,0.0,0.0,0.0,0.0,0.0,0.0,0.0,0.0,0.0,0.0,0.0,0.0,0.0,0.0,0.0,0.0,0.0575,0.0914,0.1337,0.1981,0.273,0.3525,0.4139,0.4774,0.5447,0.5611,0.6018,0.6706,0.7097,0.7725,0.8643,0.8926,0.9467,1.022,1.0331,1.0764,1.146,1.2253,1.2762,1.3135,1.4213,1.4817,1.5134,1.6388,1.6918,1.7002,1.7073,1.7157,1.7199,0.0,0.0,0.0,0.0,0.0,0.0,0.0,0.0,0.0,0.0,0.0,0.0,0.0,0.0,0.0,0.0,-0.8366,-0.8036,-0.7911,-0.7847,0.0,0.0,-0.765,-0.7621,0.0,0.0,0.0,0.0,0.0,0.0,0.0,0.0,0.0,0.0,0.0,0.0,0.0,0.0,0.0,-0.4172,-0.4224,-0.4228,0.0,0.0,-0.3877,0.0,-0.3375,-0.3075,-0.2654,-0.2154,-0.208,0.0,0.0,0.0,0.0,0.0,-0.2161,0.0,0.0,0.0,0.0,0.0,0.0,0.0,-0.1918,-0.0952,-0.0549,-0.2151,0.0,0.0,0.0,0.0,0.0,0.0,0.0,0.0,0.0,0.0,0.0,0.0,0.0,0.0,0.0915,0.0979,0.1279,0.2029,0.2695,0.3755,0.5354,0.5264,0.5599,0.6493,0.6181,0.6339,0.6981,0.7596,0.8213,0.8879,0.9521,1.0119,1.0565,1.0817,1.1422,1.2256,1.2392,1.3332,1.4829,1.5022,1.4962,1.4943,1.6229,1.6803,1.696,1.7002,1.7073,1.7199,0.0,0.0,0.0,0.0,0.0,0.0,0.0,0.0,0.0,0.0,0.0,0.0,0.0,0.0,0.0,0.0,-0.7063,-0.693,-0.7239,-0.6972,0.0,-0.713,-0.6829,-0.6567,-0.6319,-0.593,0.0,0.0,0.0,0.0,0.0,0.0,0.0,0.0,0.0,0.0,0.0,0.0,0.0,-0.2901,-0.352,0.0,-0.3697,-0.3306,-0.3132,-0.3028,-0.2839,-0.2781,-0.2664,0.0,-0.1368,-0.1873,0.0,0.0,0.0,0.0,0.0,0.0,0.0,0.0,0.0,0.0,0.0,0.0,-0.1028,-0.0825,-0.0758,0.0,0.0,0.0,0.0,0.0,0.0,0.0,0.0,0.0,0.0,0.0,0.0,0.0,0.0,0.0,0.1318,0.1446,0.1773,0.2519,0.3423,0.4645,0.6175,0.6317,0.6827,0.7815,0.7502,0.777,0.8694,0.8571,0.8976,0.983,1.0079,1.0683,1.1525,1.1694,1.2062,1.2653,1.3962,1.3985,1.3264,1.533,1.6153,1.6166,1.6659,1.6803,1.6803,1.7086,1.7115,1.7044,0.0,0.0,0.0,0.0,0.0,0.0,0.0,0.0,0.0,0.0,0.0,0.0,0.0,0.0,0.0,0.0,0.0,0.0,0.0,0.0,0.0,0.0,-0.6293,-0.5919,-0.5496,-0.535,-0.5134,-0.4853,0.0,0.0,0.0,0.0,0.0,0.0,0.0,0.0,0.0,0.0,-0.2684,-0.2549,-0.2993,0.0,-0.1808,-0.1636,-0.1505,-0.1409,-0.122,-0.12,-0.1037,0.0546,0.0365,0.0,0.0,-0.0402,-0.1297,0.0,-0.1365,-0.1167,0.0,0.0,0.0,-0.0665,0.0,0.0,0.0,-0.0515,-0.0617,-0.0601,0.0358,0.0,0.0,0.0,0.0,0.0,0.0,0.0,0.0,0.0,0.0,0.0,0.0,0.0,0.1841,0.1834,0.2316,0.3565,0.4404,0.5465,0.6771,0.6867,0.7313,0.8158,0.7973,0.8425,0.9576,0.9223,0.9762,1.1185,1.1045,1.1537,1.2519,1.256,1.2872,1.3439,1.3974,1.4186,1.4235,1.5274,1.6019,1.6522,1.665,1.6748,1.6803,1.7002,1.7086,1.7115,0.0,0.0,0.0,0.0,0.0,0.0,0.0,0.0,0.0,0.0,0.0,0.0,0.0,0.0,0.0,0.0,0.0,0.0,0.0,0.0,0.0,0.0,-0.5906,-0.5507,-0.4979,-0.482,-0.4578,-0.4166,-0.3745,0.0,0.0,0.0,0.0,0.0,0.0,0.0,0.0,0.0,0.0,-0.2467,0.0,-0.1811,-0.0534,-0.0623,-0.0576,-0.0393,0.0167,0.0436,0.0772,0.2277,0.0,0.119,0.1083,0.0333,0.0,0.0,0.0,0.0,0.0,0.0,0.0,0.0,0.0,-0.021,0.0,0.0,0.0,-0.0166,0.0,0.0,0.0,0.0,0.0,0.0,0.0,0.0,0.0,0.0,0.0,0.0,0.0,0.0,0.2374,0.2502,0.3111,0.4562,0.5387,0.6256,0.7287,0.7401,0.7765,0.8468,0.841,0.892,1.0094,0.9925,1.0646,1.2256,1.2067,1.2459,1.3451,1.3392,1.372,1.4317,1.3924,1.4452,1.5517,1.5279,1.5655,1.6371,1.6484,1.6663,1.6833,1.6876,1.7002,1.7157,-1.2766,-1.1825,0.0,0.0,0.0,0.0,0.0,0.0,0.0,0.0,0.0,0.0,0.0,0.0,0.0,0.0,0.0,0.0,-0.696,0.0,0.0,0.0,0.0,0.0,-0.4914,-0.4047,-0.3551,-0.3419,-0.2994,0.0,0.0,0.0,0.0,0.0,-0.2575,0.0,0.0,0.0,-0.2417,0.0,-0.2518,-0.2483,0.0,-0.2309,-0.2259,-0.1947,-0.0041,0.0824,0.126,0.0,0.2775,0.1884,0.0,0.0586,-0.0278,0.0,0.0,0.0,0.0,0.0,0.0,0.0,0.0619,0.0,0.0,0.0,0.1031,0.0738,0.0,0.0,0.0,0.0,0.0,0.0,0.0,0.0,0.0,0.0,0.0,0.0,0.0,0.0,0.0,0.3817,0.456,0.4939,0.6,0.7027,0.7874,0.8334,0.889,0.9531,0.9642,0.9916,1.0456,1.1045,1.1655,1.2234,1.2719,1.3421,1.4247,1.4006,1.4421,1.5249,1.538,1.5251,1.5079,1.5957,1.612,1.5844,1.6431,1.662,1.6565,1.6791,1.6918,1.6918,-1.2259,-1.1457,0.0,0.0,0.0,0.0,0.0,0.0,0.0,0.0,0.0,0.0,0.0,0.0,0.0,0.0,0.0,-0.626,0.0,0.0,0.0,0.0,0.0,0.0,0.0,-0.3771,-0.3369,-0.3102,-0.295,-0.2828,0.0,0.0,0.0,0.0,-0.2568,0.0,-0.2373,0.0,-0.2445,0.0,0.0,0.0,0.0,-0.1295,-0.0224,0.1294,0.308,0.3813,0.4067,0.0,0.4486,0.0,0.0,0.0,0.0,0.0,0.0,0.0,0.0,0.0,0.0,0.0,0.0,0.0,0.1525,0.0,0.1963,0.0,0.0,0.0,0.0,0.0,0.0,0.0,0.246,0.0,0.0,0.0,0.0,0.0,0.0,0.0,0.0,0.0,0.0,0.0,0.695,0.7673,0.8259,0.8675,0.9273,1.0013,1.0309,1.0829,1.1714,1.2004,1.2701,1.3884,1.3856,1.4324,1.5227,1.51,1.5169,1.5389,1.5513,1.5446,1.5379,1.5856,1.6095,1.6195,1.6476,1.662,1.662,1.6761,1.6846,1.696,0.0,0.0,0.0,0.0,0.0,0.0,0.0,0.0,0.0,0.0,0.0,0.0,-0.7782,-0.7183,0.0,0.0,-0.6565,-0.6309,0.0,0.0,-0.5391,0.0,0.0,0.0,0.0,0.0,0.0,-0.2876,-0.2849,-0.2833,0.0,0.0,0.0,0.0,0.0,-0.2494,-0.2364,0.0,0.0,-0.2073,-0.2012,-0.1651,-0.0987,0.0096,0.1339,0.2819,0.4922,0.5618,0.5567,0.5716,0.5317,0.0,0.273,0.0,0.0,0.0,0.0,0.0,0.1579,0.0,0.0,0.0,0.0,0.0,0.0,0.0,0.0,0.0,0.0,0.0,0.0,0.0,0.0,0.0,0.0,0.3168,0.0,0.0,0.0,0.0,0.0,0.0,0.0,0.0,0.0,0.6826,0.7606,0.824,0.8658,0.912,0.9683,1.0459,1.1008,1.1703,1.261,1.3019,1.3839,1.5108,1.4905,1.5148,1.5792,1.5724,1.5617,1.5556,1.5492,1.5629,1.5878,1.5919,1.6158,1.6522,1.6522,1.6565,1.6633,1.6633,1.6748,1.6918,-1.0127,-1.0059,0.0,0.0,0.0,0.0,0.0,0.0,0.0,0.0,0.0,0.0,0.0,0.0,0.0,0.0,0.0,-0.6019,-0.6535,0.0,-0.5342,0.0,0.0,-0.3847,0.0,0.0,0.0,0.0,0.0,0.0,0.0,0.0,0.0,0.0,0.0,-0.2474,-0.2561,-0.1757,-0.1405,-0.1264,-0.0706,-0.0429,-0.0251,0.0,0.0979,0.028,0.3835,0.0,0.0,0.3852,0.4428,0.0,0.0,0.0,0.0,0.0,0.0,0.0,0.0,0.0,0.0,0.2846,0.0,0.0,0.0,0.0,0.3124,0.0,0.0,0.0,0.0,0.0,0.0,0.0,0.0,0.0,0.0,0.0,0.0,0.0,0.0,0.0,0.0,0.0,0.6852,0.6547,0.7742,0.8666,0.905,0.9811,1.0435,1.0873,1.1943,1.2544,1.262,1.4225,1.5028,1.5108,1.5546,1.578,1.578,1.5532,1.5599,1.5983,1.5753,1.5953,1.6367,1.6454,1.6497,1.6522,1.6522,1.6522,1.6522,1.6522,1.6577,1.6718,0.0,0.0,0.0,0.0,0.0,0.0,0.0,-0.881,0.0,0.0,0.0,0.0,0.0,-0.7914,-0.7673,0.0,0.0,-0.6438,-0.6482,-0.5428,0.0,0.0,0.0,-0.3227,0.0,0.0,0.0,0.0,0.0,0.0,0.0,0.0,0.0,0.0,0.0,-0.2239,0.0,0.0,0.0,0.0,0.0,0.0326,0.0518,0.0,0.0,0.2186,0.5492,0.5958,0.0,0.3897,0.3778,0.3716,0.1862,0.1742,0.2238,0.2385,0.2696,0.0,0.0,0.0,0.3293,0.3199,0.0,0.0,0.0,0.0,0.0,0.0,0.0,0.0,0.0,0.0,0.0,0.0,0.0,0.0,0.0,0.0,0.0,0.0,0.0,0.0,0.0,0.0,0.0,0.7775,0.8257,0.8833,0.9581,1.0049,1.0702,1.158,1.2428,1.3188,1.385,1.4869,1.5424,1.557,1.5703,1.5792,1.5792,1.57,1.5799,1.5988,1.6034,1.6188,1.6392,1.6479,1.6522,1.6522,1.6522,1.6522,1.6522,1.6522,1.6577,1.6812,-0.9133,0.0,0.0,0.0,0.0,0.0,0.0,0.0,0.0,0.0,-0.8595,0.0,-0.8265,0.0,-0.7725,0.0,-0.6867,-0.6403,-0.5961,-0.5091,0.0,-0.3888,-0.3273,0.0,0.0,0.0,0.0,0.0,0.0,-0.266,0.0,0.0,0.0,0.0,0.0,-0.1925,-0.1519,0.0,-0.065,0.0,0.0,0.1031,0.0,0.0,0.3388,0.2721,0.0,0.5505,0.4439,0.3316,0.3102,0.312,0.2102,0.2201,0.2696,0.3106,0.3445,0.3758,0.3988,0.4094,0.0,0.402,0.4296,0.0,0.4443,0.0,0.0,0.0,0.0,0.0,0.0,0.0,0.0,0.0,0.0,0.0,0.0,0.6731,0.0,0.0,0.0,0.0,0.0,0.0,0.7591,0.8315,0.8816,0.9524,0.0,1.0869,1.1489,1.225,1.3097,1.379,1.4339,1.5184,1.5659,1.5792,1.5792,1.5792,1.5792,1.5836,1.5913,1.5988,1.6188,1.6318,1.6392,1.6479,1.6522,1.6522,1.6522,1.6522,1.6522,1.6522,1.6577,1.6837,0.0,0.0,0.0,0.0,-0.7939,0.0,0.0,0.0,-0.7937,0.0,-0.787,-0.7834,-0.7655,-0.7322,-0.7172,-0.7159,-0.666,-0.6024,-0.5193,-0.4904,0.0,0.0,-0.2666,-0.2359,-0.1617,0.0,0.0,0.0,0.0,0.0,0.0,0.0,0.0,0.0,-0.1958,0.0,-0.0389,-0.0056,0.0335,0.0778,0.1459,0.171,0.1861,0.3187,0.2868,0.1911,0.3277,0.3572,0.3113,0.2104,0.2437,0.324,0.2839,0.2792,0.3014,0.4184,0.4519,0.4652,0.5031,0.5205,0.5319,0.5231,0.5273,0.0,0.0,0.0,0.4981,0.0,0.0,0.0,0.0,0.0,0.0,0.0,0.0,0.0,0.0,0.0,0.0,0.0,0.0,0.0,0.0,0.7251,0.7883,0.8096,0.94,1.0592,0.0,1.2193,1.2605,1.2806,1.3909,1.435,1.4123,1.5254,1.5792,1.5792,1.5792,1.5792,1.5792,1.5957,1.5988,1.5988,1.6262,1.6392,1.6392,1.6479,1.6522,1.6522,1.6522,1.6534,1.6547,1.6522,1.6633,1.6875,-0.8021,-0.7845,-0.7757,0.0,-0.751,-0.7298,0.0,0.0,0.0,0.0,-0.7986,-0.799,-0.8065,-0.7819,-0.7401,-0.685,-0.637,0.0,0.0,0.0,0.0,-0.3091,-0.2671,-0.2153,-0.1518,-0.1744,0.0,-0.174,0.0,0.0,-0.2015,0.0,0.0,0.0,0.0,0.0,-0.0208,0.048,0.1025,0.1459,0.1707,0.1774,0.0,0.0,0.2083,0.1983,0.3352,0.3419,0.2735,0.2509,0.2902,0.3482,0.3382,0.3683,0.4125,0.4405,0.4794,0.5175,0.54,0.5554,0.5672,0.5582,0.5682,0.5723,0.0,0.0,0.0,0.0,0.0,0.0,0.0,0.0,0.0,0.0,0.0,0.0,0.0,0.0,0.0,0.8861,0.0,0.0,0.0,0.7322,0.806,0.8505,0.9152,1.0192,1.1754,0.0,1.2073,1.321,1.3706,1.4148,1.4522,1.5397,1.5792,1.5792,1.5792,1.5792,1.5792,1.5957,1.5988,1.5988,1.6262,1.6392,1.6392,1.6479,1.6522,1.6522,1.6522,1.7007,1.7575,1.6789,1.7264,1.8421,-0.7787,0.0,0.0,-0.783,0.0,0.0,-0.7612,-0.737,0.0,-0.7647,-0.7815,0.0,-0.7686,-0.7603,-0.7219,-0.6444,-0.6069,0.0,-0.4964,0.0,0.0,-0.2769,-0.2258,-0.1781,-0.1243,-0.124,0.0,-0.1463,0.0,0.0,-0.151,0.0,0.0,0.0,0.0,0.0274,0.0,0.1135,0.1527,0.1749,0.1783,0.1797,0.0,0.2074,0.2184,0.2345,0.3474,0.335,0.2672,0.2996,0.3292,0.3624,0.3904,0.4239,0.4574,0.4904,0.5183,0.5462,0.5626,0.5791,0.5873,0.5815,0.5947,0.6049,0.6132,0.6132,0.6281,0.0,0.7079,0.7358,0.0,0.0,0.0,0.0,0.0,0.0,0.0,0.0,0.0,0.0,0.9226,0.0,0.7729,0.8095,0.8666,0.9318,0.9871,1.0835,0.0,0.0,1.2584,1.3762,1.4036,1.4382,1.4832,1.5485,1.5792,1.5792,1.5792,1.5836,1.5869,1.5913,1.6001,1.6175,1.6262,1.6362,1.6436,1.6479,1.6522,1.6522,1.6522,1.7023,1.7733,1.7367,1.8064,1.9289,0.0,0.0,0.0,0.0,0.0,0.0,0.0,-0.7544,0.0,-0.7134,0.0,-0.7539,-0.7044,-0.7021,-0.6752,-0.5924,0.0,-0.5154,-0.4102,-0.3623,-0.2988,-0.2143,-0.1695,-0.1303,-0.092,-0.073,0.0,0.0,0.0,0.0,0.0,0.0,0.0,0.0,0.0,0.0,0.0,0.1785,0.1785,0.1786,0.1905,0.1908,0.1964,0.2627,0.2847,0.2959,0.3683,0.3514,0.3067,0.3569,0.3793,0.3959,0.4515,0.4684,0.4794,0.5454,0.5622,0.5677,0.5791,0.5896,0.6,0.6109,0.6223,0.6445,0.6867,0.6967,0.7121,0.7644,0.7957,0.8323,0.0,0.0,0.0,0.0,0.0,0.0,0.0,0.0,0.0,0.0,0.0,0.0,0.0,0.9286,0.9427,1.0159,1.1005,1.186,0.0,0.0,1.344,1.4204,1.4472,1.4754,1.5109,1.5564,1.5828,1.5888,1.5828,1.5881,1.5957,1.5869,1.6013,1.6362,1.6275,1.6318,1.6522,1.6522,1.6559,1.6635,1.6635,1.7018,1.7657,1.8127,1.8967,1.9891,0.0,0.0,0.0,0.0,0.0,-0.7385,-0.7522,-0.7313,-0.7137,-0.7179,-0.7384,-0.7388,-0.706,-0.6618,-0.6213,-0.5684,-0.4858,0.0,0.0,0.0,0.0,-0.2206,-0.1713,-0.133,-0.0928,-0.0841,-0.0706,0.0,0.0,0.0,0.0,0.0,0.0,0.0,0.0,0.0,0.1722,0.1722,0.0,0.178,0.2323,0.2516,0.2627,0.335,0.363,0.3683,0.4457,0.4563,0.4395,0.4622,0.4956,0.5289,0.5517,0.5517,0.5458,0.5681,0.574,0.5791,0.595,0.6005,0.6164,0.6761,0.6923,0.7074,0.7606,0.7694,0.7858,0.8489,0.8709,0.902,0.9562,0.0,0.0,0.0,0.0,0.0,0.0,0.0,0.0,0.0,0.0,1.1247,0.0,0.0,0.9954,1.0347,1.1208,0.0,0.0,0.0,1.2963,0.0,1.3988,0.0,0.0,0.0,1.6008,1.644,1.5996,1.5792,1.5836,1.5913,1.6044,1.6231,1.6318,1.6436,1.6522,1.6522,1.6798,1.7225,1.7225,1.7868,1.8754,1.9177,2.0031,2.1016,0.0,0.0,0.0,0.0,0.0,0.0,0.0,-0.7329,-0.7228,-0.7224,-0.7216,-0.7033,-0.6491,-0.618,-0.5734,-0.484,-0.4292,-0.3894,-0.3627,-0.2889,-0.2354,-0.2221,-0.1616,0.0,-0.0885,-0.0742,-0.0496,-0.0213,0.0,0.0,0.0,0.0,0.0,0.0,0.0,0.1781,0.0,0.0,0.0,0.2027,0.2556,0.2903,0.3123,0.4015,0.4349,0.4457,0.5226,0.5449,0.5391,0.5344,0.5513,0.5736,0.5795,0.5736,0.5786,0.6218,0.6376,0.6485,0.6858,0.6966,0.7074,0.745,0.7503,0.7664,0.8243,0.8349,0.8567,0.9204,0.9361,0.9524,1.0007,1.0265,0.0,0.0,0.0,0.0,0.0,0.0,0.0,0.0,0.0,0.0,0.0,0.0,0.0,0.0,0.0,0.0,0.0,0.0,1.2876,0.0,0.0,0.0,1.578,0.0,1.5924,1.6164,1.5912,1.5836,1.5913,1.5913,1.6088,1.6479,1.6552,1.6961,1.7557,1.7974,1.8319,1.8582,1.8582,1.8874,1.9423,2.0213,2.0589,2.0809,0.0,-0.7775,0.0,0.0,-0.7587,0.0,-0.7224,-0.7271,-0.7283,-0.7297,-0.7049,-0.6583,-0.5923,-0.5599,-0.4971,-0.3832,-0.3694,-0.3426,-0.3025,-0.2421,-0.208,-0.2068,-0.1364,-0.0936,-0.0767,-0.051,-0.022,0.0,0.0,0.0,0.0,0.0,0.0,0.0,0.0,0.0,0.0,0.0,0.2186,0.246,0.3072,0.3456,0.3732,0.4728,0.512,0.523,0.5837,0.6059,0.6005,0.59,0.585,0.585,0.585,0.5955,0.6168,0.675,0.7015,0.723,0.7765,0.7925,0.7925,0.8084,0.8084,0.8243,0.8883,0.8995,0.9152,0.974,0.9903,1.0007,1.0265,1.0419,0.0,0.0,0.0,0.0,0.0,0.0,0.0,0.0,0.0,0.0,1.2552,0.0,0.0,0.0,0.0,0.0,1.3014,0.0,0.0,0.0,0.0,1.4964,1.607,0.0,1.5957,1.6263,1.6065,1.6187,1.6539,1.6251,1.6475,1.7035,1.7023,1.7627,1.8639,1.9415,1.9762,1.9884,1.9884,1.984,1.9952,2.0899,2.0964,2.057,0.0,0.0,0.0,0.0,0.0,0.0,-0.7073,-0.6821,-0.6865,-0.7383,-0.6851,-0.6239,-0.5721,-0.4675,-0.3733,-0.3088,-0.2619,-0.2356,-0.2288,-0.1884,-0.1662,-0.1684,-0.1259,-0.0794,-0.0354,-0.0277,0.0163,0.0,0.0,0.1356,0.0,0.0,0.0,0.0,0.0,0.0,0.0,0.2627,0.2959,0.3289,0.4288,0.4732,0.4842,0.5614,0.5891,0.5946,0.6119,0.6178,0.6178,0.6178,0.6064,0.6005,0.6119,0.6436,0.6858,0.7025,0.745,0.7818,0.7871,0.7925,0.8031,0.856,0.8725,0.8883,0.9577,0.9688,0.974,0.9947,1.011,1.0316,1.047,1.047,1.0522,0.0,0.0,0.0,0.0,0.0,0.0,0.0,0.0,0.0,0.0,1.3751,0.0,0.0,1.4105,0.0,0.0,0.0,0.0,1.4508,1.4783,1.5593,1.6954,1.6187,1.6454,1.778,1.6914,1.7159,1.8349,1.7578,1.7543,1.805,1.7828,1.8181,1.9001,1.9489,2.0021,2.0538,2.0538,2.0492,2.0538,2.1021,2.1217,2.1278,0.0,0.0,0.0,0.0,0.0,0.0,0.0,-0.6352,-0.6112,-0.6256,-0.5754,-0.5049,-0.4227,-0.3679,-0.3059,-0.2559,-0.2287,-0.2221,-0.2221,-0.1817,-0.1461,-0.1161,-0.0815,-0.0365,0.0118,0.0169,0.0442,0.0,0.0,0.0,0.0,0.0,0.0,0.0,0.0,0.2519,0.2847,0.3067,0.3458,0.407,0.4725,0.5117,0.5399,0.5896,0.6119,0.6119,0.6178,0.6178,0.6178,0.6178,0.6173,0.6173,0.6603,0.6869,0.7182,0.7931,0.8296,0.8508,0.8823,0.8928,0.8981,0.9242,0.9361,0.9472,0.9747,1.0046,1.0295,1.047,1.0786,1.1028,1.1082,1.1082,1.1245,1.1721,0.0,0.0,0.0,0.0,0.0,0.0,0.0,0.0,0.0,0.0,0.0,0.0,0.0,0.0,0.0,0.0,0.0,1.56,0.0,1.6435,1.7629,1.7291,1.7414,1.7977,1.7624,1.7847,1.8596,1.8282,1.8503,1.9216,1.9667,2.0239,2.0862,2.1405,2.1761,2.2002,2.2002,2.1775,2.1492,2.2041,2.2259,2.2273,-0.7817,0.0,-0.6423,0.0,-0.663,-0.6514,-0.6302,-0.5755,-0.5155,-0.4597,-0.411,-0.3678,-0.3099,-0.275,-0.2415,-0.1887,-0.1884,-0.1884,-0.1884,-0.148,-0.1059,-0.0765,-0.0312,0.0,0.0581,0.0624,0.0842,0.1291,0.1291,0.0,0.0,0.0,0.0,0.0,0.2742,0.3186,0.3677,0.3785,0.4229,0.4849,0.5281,0.5559,0.5791,0.6064,0.6178,0.6178,0.6178,0.6337,0.6445,0.6445,0.6549,0.6761,0.7031,0.7348,0.7771,0.856,0.8935,0.9145,0.951,0.9614,0.9614,0.9614,0.9681,0.9799,0.9851,1.0257,1.074,1.0958,1.1273,1.1543,1.1768,1.1575,1.1668,1.2635,0.0,0.0,0.0,0.0,0.0,0.0,1.4218,1.4253,1.3925,1.4328,0.0,0.0,0.0,0.0,0.0,0.0,0.0,0.0,0.0,0.0,1.8295,1.8119,1.8207,1.8595,1.8453,1.8767,1.9428,1.9118,1.9502,2.0406,2.09,2.1702,2.2665,2.3016,2.3178,2.3178,2.3178,2.2947,2.2599,2.3064,2.3293,2.3453,-0.6879,-0.6464,-0.626,-0.6347,-0.6373,-0.6104,-0.5253,-0.4745,-0.4038,-0.2641,-0.2062,-0.2088,-0.261,-0.2033,-0.148,-0.1143,-0.1143,-0.1143,-0.1143,-0.0605,-0.0328,0.0,0.0,0.066,0.1068,0.1067,0.1347,0.1797,0.0,0.0,0.1797,0.0,0.2462,0.2905,0.3178,0.3732,0.4515,0.4889,0.5277,0.5622,0.6009,0.6178,0.6178,0.6178,0.6178,0.6178,0.6178,0.6603,0.7085,0.7085,0.745,0.7765,0.7241,0.7877,0.8778,0.8778,0.9197,0.9614,0.9614,0.9614,0.9614,0.9614,0.9681,0.9851,0.9947,1.0424,1.0934,1.1416,1.1487,1.1712,1.2372,1.1655,1.1416,1.2687,0.0,0.0,0.0,0.0,0.0,0.0,1.4668,1.4373,1.4373,1.435,0.0,0.0,0.0,0.0,0.0,0.0,0.0,1.6163,1.6465,0.0,1.908,1.8342,1.8668,1.9972,1.9577,2.007,2.1334,2.0346,2.0571,2.1767,2.1003,2.1985,2.4077,2.3933,2.3876,2.3876,2.3876,2.3876,2.3876,2.3876,2.4283,2.4771,-0.7024,-0.6404,-0.5985,-0.6037,-0.6045,-0.5787,-0.487,-0.4237,-0.3518,-0.2478,-0.1773,-0.148,-0.1663,-0.143,-0.1191,0.0,-0.1076,-0.0941,0.0,-0.0403,0.0,0.0764,0.0935,0.1209,0.1623,0.1589,0.1629,0.1797,0.0,0.0,0.0,0.241,0.2742,0.3074,0.3624,0.4233,0.4791,0.523,0.5673,0.6009,0.6123,0.6178,0.6178,0.6178,0.6178,0.6178,0.6178,0.6337,0.6549,0.6977,0.7456,0.7925,0.819,0.8508,0.8876,0.9249,0.9458,0.9614,0.9614,0.9673,0.974,0.974,0.9947,1.0162,1.0213,1.0754,1.1447,1.2099,1.2568,1.2915,1.3151,1.3281,1.372,1.4785,1.4641,0.0,0.0,0.0,0.0,0.0,1.4679,1.4253,1.3936,1.4016,0.0,0.0,0.0,0.0,0.0,0.0,0.0,0.0,1.7872,0.0,2.0241,1.9621,1.9725,2.0518,2.042,2.0934,2.2034,2.2351,2.2816,2.3299,2.3273,2.3786,2.456,2.452,2.4544,2.4573,2.4573,2.4559,2.453,2.453,2.4936,2.5415,-0.6689,-0.6058,-0.5693,-0.5693,-0.5491,-0.4998,-0.4235,-0.3495,-0.2783,-0.2027,-0.1487,-0.1168,-0.1141,-0.1134,0.0,-0.1079,-0.0941,-0.0672,-0.0336,0.0067,0.0597,0.129,0.144,0.1638,0.1883,0.1826,0.0,0.1797,0.1908,0.2018,0.2184,0.2631,0.3132,0.363,0.4236,0.4787,0.5399,0.5677,0.5955,0.6178,0.6178,0.6178,0.6178,0.6178,0.6178,0.6232,0.6445,0.6657,0.6918,0.7557,0.8084,0.8613,0.9047,0.9152,0.9256,0.951,0.9621,0.9673,0.9673,0.9784,0.9895,0.9895,1.011,1.0438,1.0999,1.1768,1.2586,1.3211,1.3631,1.3923,1.4163,1.4282,1.4763,1.5792,1.5603,1.5522,1.6126,0.0,0.0,0.0,0.0,0.0,0.0,1.4812,1.4921,0.0,0.0,0.0,0.0,0.0,0.0,1.8754,1.8814,1.956,2.1006,2.0726,2.0832,2.1389,2.1565,2.2076,2.2862,2.3179,2.3803,2.4487,2.4248,2.471,2.5546,2.5299,2.5212,2.5226,2.5226,2.5212,2.5197,2.5197,2.5749,2.6431,-0.5949,-0.5589,-0.5362,0.0,-0.4755,-0.4061,-0.3346,-0.2649,-0.198,-0.1273,-0.1202,-0.1186,-0.1144,-0.1104,-0.1079,-0.1076,0.0,0.0,-0.0202,0.0739,0.1329,0.1359,0.1755,0.1946,0.1888,0.1828,0.1797,0.1853,0.2074,0.224,0.2294,0.2852,0.363,0.4519,0.4791,0.5399,0.6178,0.6178,0.6178,0.6178,0.6178,0.6178,0.6178,0.6178,0.6232,0.6337,0.6869,0.745,0.7978,0.8613,0.9145,0.9562,0.974,0.9799,0.9792,0.9673,0.9732,0.9799,0.9799,0.9895,0.9999,0.9999,1.0229,1.0789,1.2189,1.3235,1.4022,1.4446,1.4529,1.4765,1.5294,1.485,1.4758,1.5985,1.5875,1.5729,1.5886,0.0,0.0,0.0,0.0,0.0,1.6277,1.6226,1.6079,0.0,0.0,0.0,0.0,0.0,1.7861,1.9184,1.943,2.0113,2.1477,2.1632,2.1925,2.2373,2.2945,2.34,2.3699,2.3225,2.389,2.5354,2.4247,2.4947,2.6736,2.6112,2.585,2.585,2.585,2.585,2.5865,2.5908,2.6692,2.765,0.0,0.0,-0.5226,-0.4688,-0.442,-0.3883,-0.2647,-0.2319,-0.1996,-0.1391,-0.1243,-0.1222,-0.1166,-0.1138,-0.0902,-0.0539,-0.0403,0.0067,0.0874,0.1143,0.1475,0.1999,0.1965,0.1965,0.1951,0.185,0.1908,0.2128,0.241,0.2687,0.2907,0.3408,0.3849,0.4288,0.5066,0.5567,0.5786,0.6064,0.6178,0.6178,0.6178,0.6178,0.6178,0.6178,0.6495,0.6923,0.7031,0.745,0.8031,0.8718,0.9033,0.9242,0.9784,0.9947,0.9947,0.9888,0.9947,0.9947,0.9947,1.0102,1.0213,1.0213,1.0869,1.1786,1.2694,1.3432,1.4022,1.4446,1.4883,1.5284,1.5507,1.583,1.6177,1.6671,1.6738,1.6751,1.6896,1.6688,1.6481,0.0,1.6096,1.5875,1.5695,1.5694,1.5903,0.0,0.0,0.0,1.9673,1.9834,1.9864,1.9834,2.0259,2.0987,2.2088,2.2136,2.2447,2.2972,2.3621,2.392,2.4027,2.4585,2.5214,2.5762,2.5716,2.6107,2.6779,2.662,2.6547,2.6547,2.6547,2.6547,2.6605,2.7084,2.7461,2.7654,-0.5491,-0.5428,-0.5179,-0.4428,-0.4048,-0.3509,-0.2383,-0.196,-0.169,-0.1372,-0.1262,-0.1229,-0.121,-0.0934,-0.0553,0.0,0.0068,0.0403,0.1277,0.1547,0.1884,0.2154,0.2128,0.2001,0.1973,0.2,0.2164,0.241,0.2745,0.3077,0.3408,0.3793,0.4291,0.4846,0.5399,0.5677,0.59,0.6123,0.6178,0.6178,0.6178,0.6178,0.6232,0.65,0.682,0.7187,0.7771,0.8137,0.8501,0.919,0.9458,0.9517,0.9999,1.0154,1.0162,1.0205,1.0213,1.0154,1.0154,1.0265,1.0407,1.0564,1.1506,1.2607,1.3243,1.3992,1.4716,1.5255,1.571,1.5989,1.6026,1.6436,1.6778,1.6675,1.6937,1.6993,1.6677,1.6765,1.6776,1.6546,1.6609,1.6647,1.6678,1.6848,1.714,1.775,1.84,0.0,2.0848,2.157,2.1773,2.1465,2.176,2.2132,2.2726,2.2997,2.3445,2.4055,2.4367,2.4585,2.4792,2.5661,2.6162,2.6315,2.6754,2.6971,2.6985,2.7161,2.7041,2.6823,2.7099,2.7215,2.7258,2.7607,2.8045,2.855,-0.5459,-0.5336,-0.5036,-0.4242,-0.356,-0.2936,-0.2243,-0.1656,-0.1284,-0.1335,-0.1273,-0.123,-0.1242,-0.0647,0.0,0.0556,0.0752,0.1012,0.1412,0.1951,0.2287,0.2287,0.2291,0.2229,0.2172,0.2337,0.2605,0.2856,0.313,0.3519,0.3962,0.4291,0.4842,0.5622,0.5677,0.5896,0.6178,0.6178,0.6178,0.6178,0.6178,0.6228,0.6391,0.6923,0.7241,0.7503,0.8613,0.9086,0.9242,0.9836,1.0051,1.0102,1.0265,1.0316,1.0383,1.0534,1.0466,1.0316,1.0316,1.0458,1.0645,1.105,1.2091,1.3128,1.369,1.4667,1.5604,1.6284,1.6519,1.6648,1.6779,1.6896,1.6881,1.6504,1.695,1.6994,1.6175,0.0,1.7147,1.6787,1.7335,1.7901,1.8302,1.8577,1.8904,1.9239,2.0523,2.1268,2.1362,2.2711,2.3487,2.3459,2.3365,2.3365,2.3446,2.4001,2.4557,2.5141,2.5141,2.5308,2.5728,2.6439,2.6833,2.689,2.7467,2.7578,2.7356,2.7703,2.7563,2.7128,2.7665,2.7868,2.7882,2.7969,2.8695,2.9552,-0.5528,-0.496,-0.4281,-0.3563,-0.287,-0.2161,-0.1554,-0.1366,-0.1308,-0.1309,-0.1297,-0.1261,-0.1188,-0.0436,0.0353,0.0951,0.1788,0.2204,0.2089,0.242,0.2621,0.2621,0.2812,0.2955,0.2943,0.3088,0.3295,0.363,0.3904,0.4291,0.4732,0.5175,0.5454,0.5622,0.5955,0.6123,0.6178,0.6178,0.6178,0.6178,0.6178,0.65,0.6977,0.7187,0.7871,0.8771,0.9047,0.9472,0.9888,1.0162,1.0265,1.0265,1.0419,1.047,1.0526,1.0828,1.0701,1.047,1.047,1.0685,1.1066,1.1702,1.2456,1.3081,1.3459,1.4573,1.5722,1.6297,1.6612,1.6935,1.7513,1.7291,1.7045,1.7113,1.7224,1.7224,1.7071,0.0,1.7398,1.7737,1.7904,1.8322,1.9286,1.9437,1.968,2.0301,2.1416,2.216,2.2531,2.4071,2.4918,2.4747,2.4245,2.4232,2.4734,2.4815,2.5168,2.5751,2.5751,2.6036,2.6612,2.6767,2.69,2.7169,2.7521,2.7825,2.8054,2.8409,2.8477,2.839,2.8492,2.8536,2.8594,2.9131,2.945,2.961,-0.4993,-0.4563,-0.396,-0.2964,-0.2448,-0.2064,-0.1434,-0.1173,-0.112,-0.1202,-0.1003,-0.073,-0.0316,0.0451,0.1158,0.1935,0.2614,0.2995,0.2823,0.3025,0.3073,0.2958,0.3119,0.3182,0.3272,0.3308,0.3525,0.4015,0.426,0.4748,0.5426,0.5651,0.5936,0.6262,0.6221,0.63,0.6496,0.6271,0.6304,0.6554,0.6614,0.7074,0.7677,0.8241,0.8968,0.9687,1.0195,1.0363,1.0462,1.0847,1.0846,1.0735,1.0963,1.1018,1.105,1.1209,1.1018,1.0756,1.0756,1.1271,1.182,1.195,1.2924,1.382,1.4007,1.4805,1.5692,1.6369,1.667,1.6938,1.7313,1.724,1.7113,1.6907,1.7092,0.0,1.6907,1.7333,1.7759,1.7977,1.8405,1.8873,1.9538,1.9807,2.0464,2.1761,2.2564,2.3487,2.451,2.5542,2.6088,2.5995,2.5385,2.5208,2.548,2.5819,2.6117,2.6389,2.6389,2.6538,2.6837,2.7501,2.7759,2.7759,2.8418,2.8697,2.8697,2.9059,2.8985,2.871,2.9058,2.9189,2.9232,2.9523,2.9842,3.0132,-0.4495,-0.4055,-0.3499,-0.2483,-0.2088,-0.1825,-0.1315,-0.1042,-0.0987,-0.0987,-0.0601,-0.0083,0.0579,0.1386,0.2129,0.274,0.3373,0.3642,0.3611,0.3628,0.3528,0.3364,0.3429,0.3479,0.3551,0.3527,0.3837,0.4502,0.4643,0.5147,0.6068,0.6068,0.6267,0.6707,0.644,0.6496,0.6773,0.6454,0.6558,0.6957,0.7085,0.7686,0.8539,0.9247,0.9941,1.0515,1.1148,1.1161,1.1044,1.1408,1.132,1.1153,1.1408,1.1487,1.1511,1.1582,1.1543,1.1453,1.1453,1.2019,1.2595,1.2572,1.3584,1.4519,1.4519,1.505,1.5778,1.6524,1.6853,1.7091,1.7183,1.7375,1.7278,1.6776,0.0,1.7311,1.6918,1.7617,1.825,1.848,1.9,1.9677,2.0247,2.0598,2.1425,2.3034,2.3885,2.4771,2.5883,2.676,2.7162,2.7026,2.643,2.6104,2.6104,2.6579,2.6891,2.7026,2.7026,2.7094,2.7244,2.8296,2.8627,2.847,2.9309,2.9547,2.9354,2.9665,2.9552,2.9174,2.9653,2.9842,2.9842,2.9842,3.0161,3.0568,-0.4538,-0.3428,-0.2423,-0.2339,-0.1561,-0.1038,-0.1019,-0.0879,-0.0718,-0.0718,0.0,0.0586,0.0713,0.2208,0.3152,0.3102,0.4026,0.4474,0.4255,0.4343,0.4211,0.3763,0.403,0.4172,0.4043,0.4033,0.4463,0.5288,0.5155,0.555,0.6473,0.6473,0.6482,0.6506,0.6674,0.6763,0.6791,0.6763,0.7002,0.7379,0.7364,0.8187,0.9427,0.9595,1.0344,1.1269,1.1431,1.1471,1.1455,1.1479,1.1471,1.1455,1.1479,1.1487,1.1559,1.1884,1.2364,1.286,1.286,1.2935,1.3162,1.4087,1.4492,1.4669,1.4669,1.5371,1.6185,1.6673,1.7387,1.7897,1.7944,1.7955,1.7791,1.73,0.0,0.0,1.7901,1.8327,1.8971,1.9813,2.0019,2.0654,2.2296,2.2523,2.2893,2.3706,2.5134,2.582,2.5383,2.7333,2.8207,2.7664,2.7067,2.6755,2.6755,2.6809,2.7094,2.7637,2.7637,2.7936,2.8465,2.8889,2.903,2.9093,2.9794,3.004,3.004,3.0389,3.048,3.0437,3.048,3.051,3.051,3.051,3.0539,3.0568,-0.3357,-0.2565,-0.1964,-0.149,-0.1099,-0.0792,-0.0811,-0.0657,-0.0331,0.0331,0.0754,0.142,0.2589,0.3215,0.3823,0.4213,0.4585,0.4745,0.4635,0.4602,0.4499,0.4105,0.4233,0.4243,0.4121,0.4432,0.4866,0.5385,0.5791,0.6186,0.6674,0.6861,0.6917,0.6917,0.681,0.7054,0.753,0.7259,0.7547,0.8106,0.8204,0.8949,1.0133,1.0384,1.118,1.2095,1.2154,1.2011,1.1853,1.2075,1.2003,1.1853,1.2083,1.2154,1.2186,1.2313,1.2534,1.2947,1.3711,1.4105,1.4346,1.4585,1.5517,1.6315,1.597,1.6656,1.7511,1.7772,1.8077,1.8327,1.8436,1.8425,1.837,1.8185,0.0,1.8534,1.884,1.9026,1.9495,2.0478,2.0963,2.1629,2.2604,2.3404,2.4267,2.5206,2.6142,2.6906,2.7322,2.8136,2.8478,2.8261,2.8044,2.7746,2.7379,2.7732,2.803,2.8261,2.8452,2.8561,2.86,2.955,2.9973,3.0009,3.0495,3.0745,3.0949,3.0681,3.0568,3.0611,3.1003,3.1163,3.1206,3.1627,3.1787,3.1787,-0.2391,-0.1895,-0.1493,-0.0943,-0.0707,-0.0555,-0.0572,-0.016,0.0393,0.11,0.1734,0.2543,0.3731,0.4086,0.4389,0.4859,0.4841,0.4755,0.4781,0.4664,0.4523,0.436,0.4319,0.4326,0.4431,0.4748,0.5209,0.579,0.6233,0.6644,0.6951,0.7092,0.7221,0.7216,0.7078,0.739,0.7967,0.7721,0.8022,0.8689,0.8777,0.9424,1.0465,1.0856,1.1553,1.2375,1.256,1.2472,1.2377,1.2512,1.2472,1.2385,1.252,1.2621,1.2621,1.2621,1.2886,1.3392,1.43,1.5181,1.5762,1.535,1.6677,1.7864,1.7328,1.7873,1.8609,1.8743,1.8754,1.8761,1.872,1.8938,1.9047,1.8742,1.92,1.9604,1.9648,2.016,2.0754,2.1437,2.2038,2.2649,2.3317,2.4297,2.5249,2.6171,2.6857,2.7706,2.8831,2.8695,2.8682,2.8872,2.8695,2.8478,2.8261,2.8478,2.8695,2.8872,2.9131,2.9227,2.917,3.0304,3.0797,3.0783,3.1261,3.1593,3.1801,3.1366,3.1192,3.1235,3.1656,3.183,3.1888,3.2353,3.2513,3.2513,-0.2039,-0.1364,-0.0864,-0.0708,-0.0472,-0.0325,-0.0354,0.0667,0.1415,0.1415,0.2885,0.3869,0.3882,0.4598,0.4937,0.4779,0.4779,0.4759,0.467,0.461,0.4471,0.4541,0.436,0.4564,0.5087,0.5087,0.5617,0.6675,0.6497,0.6661,0.7221,0.7221,0.7221,0.7231,0.7431,0.7722,0.7987,0.7987,0.8371,0.9017,0.9017,0.953,1.0364,1.08,1.1303,1.1864,1.2436,1.279,1.3036,1.2687,1.2806,1.3036,1.2741,1.2629,1.2629,1.2629,1.3554,1.4586,1.4586,1.6,1.7362,1.6667,1.7843,1.9093,1.851,1.8903,1.943,1.943,1.943,1.9277,1.8807,1.9506,1.9781,1.8873,2.0336,2.1265,2.0238,2.1729,2.2913,2.2925,2.329,2.385,2.4743,2.5312,2.5791,2.6164,2.7188,2.8319,2.9455,2.8926,2.8872,2.9469,2.8912,2.8885,2.9482,2.8899,2.8899,2.9482,2.9482,2.9808,3.0405,3.1124,3.1377,3.1443,3.2191,3.2527,3.2527,3.2513,3.2513,3.2513,3.2527,3.2527,3.2527,3.2527,3.2527,3.2527,-0.1148,-0.0699,-0.0481,-0.0428,-0.0259,0.0087,0.0805,0.1168,0.1849,0.3161,0.3606,0.4173,0.4766,0.4902,0.5018,0.4937,0.4937,0.4908,0.4915,0.4795,0.4944,0.538,0.5064,0.4957,0.5087,0.5815,0.6408,0.6675,0.701,0.7168,0.7226,0.7369,0.7354,0.7231,0.7629,0.8052,0.8382,0.8635,0.8958,0.935,0.935,0.9734,1.0364,1.08,1.1303,1.1902,1.2649,1.3004,1.3108,1.3235,1.3346,1.3435,1.3339,1.3296,1.34,1.3919,1.4572,1.5256,1.6008,1.6726,1.7235,1.6845,1.7984,1.9091,1.8657,1.9233,1.9868,1.9868,2.0194,2.0489,2.0686,2.1243,2.157,2.1286,2.1723,2.2007,2.1712,2.1804,2.2324,2.329,2.3436,2.385,2.4743,2.6288,2.7272,2.7341,2.8778,2.9794,3.012,2.9957,2.9957,3.0133,2.9957,2.9957,3.0133,2.9523,2.9523,3.0133,3.0377,3.0473,3.0418,3.1309,3.1695,3.1735,3.2143,3.2492,3.2743,3.2572,3.2513,3.2571,3.3006,3.318,3.3238,3.3688,3.3848,3.3848,-0.0549,-0.0399,-0.0248,-0.0178,0.027,0.0719,0.1349,0.2061,0.2953,0.3993,0.4426,0.4751,0.5288,0.5176,0.5096,0.5096,0.5018,0.4996,0.4947,0.5101,0.533,0.5715,0.5881,0.5909,0.5847,0.6522,0.6884,0.6999,0.7326,0.7459,0.734,0.7598,0.7653,0.7541,0.7991,0.8382,0.8705,0.8888,0.9215,0.9484,0.9484,0.9798,1.0364,1.08,1.1445,1.2089,1.2821,1.3267,1.3505,1.3568,1.3717,1.3884,1.3988,1.405,1.4092,1.4581,1.5106,1.5657,1.6323,1.6881,1.7338,1.7455,1.8512,1.9385,1.8916,1.9967,2.0948,2.0751,2.1101,2.1527,2.1822,2.2269,2.2531,2.2346,2.2805,2.3043,2.2606,2.2728,2.3228,2.3998,2.4577,2.5122,2.56,2.7455,2.8643,2.8864,2.9845,3.0513,3.0744,3.054,3.0513,3.0758,3.0527,3.0513,3.0758,3.0378,3.0391,3.0758,3.0938,3.113,3.1307,3.2083,3.2458,3.2583,3.2996,3.3282,3.3456,3.3295,3.3267,3.3296,3.3688,3.3848,3.3891,3.4283,3.4414,3.4414,-0.0318,-0.0246,-0.0256,0.0,0.0809,0.1438,0.1527,0.3133,0.4289,0.4378,0.5015,0.5486,0.5486,0.5323,0.5224,0.5182,0.5096,0.4969,0.4857,0.5448,0.5831,0.5768,0.6845,0.7336,0.722,0.7134,0.7229,0.755,0.755,0.7606,0.7591,0.7937,0.8083,0.8083,0.8435,0.8772,0.9085,0.9085,0.935,0.9685,0.9685,1.0001,1.0507,1.1009,1.1625,1.2412,1.297,1.3584,1.4069,1.3842,1.3998,1.4313,1.4701,1.4758,1.4841,1.491,1.5446,1.5949,1.6056,1.6836,1.7703,1.8375,1.9264,1.9869,1.9493,2.0881,2.2193,2.1745,2.204,2.2379,2.2379,2.2761,2.2999,2.2582,2.3634,2.4183,2.325,2.4118,2.4923,2.4905,2.6093,2.6996,2.708,2.8679,2.9931,3.0498,3.0568,3.0798,3.1341,3.0866,3.0812,3.1355,3.0853,3.0825,3.1368,3.1368,3.1368,3.1368,3.1368,3.1853,3.2704,3.3058,3.3409,3.377,3.4196,3.4346,3.4346,3.4414,3.4414,3.4414,3.4414,3.4414,3.4414,3.4414,3.4414,3.4414,-0.0084,-0.0084,-0.0085,0.0,0.0809,0.1706,0.2413,0.3573,0.4559,0.5191,0.5375,0.5489,0.5402,0.5402,0.5341,0.521,0.5096,0.5007,0.498,0.5511,0.6256,0.7048,0.7802,0.8458,0.9047,0.8236,0.7979,0.8101,0.8101,0.8149,0.8322,0.8567,0.8719,0.873,0.9258,0.9553,0.9616,0.9885,1.0362,1.0837,1.0837,1.1168,1.1759,1.2225,1.2535,1.2766,1.3588,1.3989,1.421,1.4681,1.4706,1.468,1.528,1.5548,1.5748,1.6639,1.7024,1.7368,1.8309,1.8254,1.8202,1.9087,1.9574,2.0063,2.0783,2.1707,2.228,2.2182,2.2531,2.2848,2.2848,2.3477,2.3991,2.3902,2.4438,2.4755,2.4585,2.4797,2.52,2.5866,2.6285,2.6781,2.7532,2.9274,3.0703,3.1762,3.1789,3.1857,3.1979,3.187,3.1857,3.1979,3.187,3.1857,3.1979,3.1979,3.1979,3.1979,3.1979,3.2249,3.2704,3.2775,3.3058,3.3409,3.377,3.3908,3.3977,3.4264,3.4414,3.4414,3.4414,3.4414,3.4414,3.4414,3.4414,3.4414,0.0,0.0,0.0175,0.0627,0.1439,0.2425,0.3393,0.4378,0.5099,0.5552,0.5555,0.5552,0.5552,0.5452,0.5442,0.5476,0.5662,0.5883,0.5959,0.6902,0.7621,0.8152,0.8765,0.9321,0.9728,0.9243,0.8872,0.8743,0.8743,0.8822,0.8918,0.9179,0.9308,0.9314,0.9858,1.0055,1.0055,1.0541,1.0886,1.123,1.1491,1.1962,1.2429,1.2699,1.3066,1.3506,1.3907,1.4471,1.5023,1.5956,1.6165,1.6145,1.6652,1.6883,1.7035,1.7597,1.7798,1.7935,1.8568,1.8657,1.8834,2.0134,2.0717,2.1062,2.146,2.2091,2.2641,2.2641,2.322,2.3711,2.3711,2.4404,2.5027,2.5027,2.5338,2.5643,2.5628,2.5605,2.5849,2.651,2.7342,2.84,2.9727,3.0785,3.1541,3.2155,3.2182,3.2182,3.2182,3.2182,3.2182,3.2182,3.2182,3.2182,3.2182,3.2182,3.2182,3.2182,3.2182,3.2372,3.2704,3.2704,3.2988,3.3563,3.3701,3.3908,3.4128,3.4346,3.4414,3.4414,3.4414,3.4414,3.4414,3.4414,3.4414,3.4414,0.0171,0.0264,0.0539,0.1527,0.2517,0.3411,0.42,0.5099,0.5733,0.5733,0.5733,0.5733,0.5733,0.5615,0.5699,0.6043,0.6542,0.6965,0.7334,0.8449,0.9128,0.9204,0.9706,1.0089,1.0209,1.0165,0.9854,0.9411,0.9411,0.9465,0.9491,0.9822,0.9985,0.9985,1.0307,1.0466,1.0466,1.1096,1.1375,1.1514,1.2123,1.2701,1.3226,1.3165,1.363,1.4361,1.4361,1.5072,1.6195,1.7156,1.7486,1.7561,1.7961,1.8128,1.8137,1.8201,1.8174,1.8155,1.8359,1.8826,1.9594,2.1161,2.1963,2.2389,2.2158,2.2778,2.3351,2.3274,2.3973,2.4585,2.4497,2.517,2.5814,2.5814,2.6233,2.6523,2.6559,2.6512,2.67,2.7112,2.8612,3.0264,3.175,3.2096,3.2182,3.2182,3.2182,3.2182,3.2182,3.2182,3.2182,3.2182,3.2182,3.2182,3.2182,3.2182,3.2182,3.2182,3.2182,3.2372,3.2704,3.2775,3.3199,3.377,3.3839,3.4059,3.4414,3.4414,3.4414,3.4414,3.4414,3.4414,3.4414,3.4414,3.4414,3.4414,0.1012,0.122,0.1522,0.251,0.3491,0.4113,0.4289,0.5099,0.5733,0.5733,0.5733,0.5733,0.5733,0.5751,0.6241,0.7363,0.739,0.7651,0.8295,0.8973,0.9506,0.9813,1.0242,1.0703,1.1236,1.1087,1.0598,1.0024,1.0024,1.0059,1.0194,1.042,1.0593,1.0605,1.0906,1.1009,1.1003,1.1672,1.2184,1.2701,1.3338,1.4095,1.4862,1.4474,1.4856,1.5463,1.5544,1.6104,1.6908,1.7318,1.7486,1.7561,1.7961,1.8128,1.8192,1.8531,1.8394,1.8349,1.9572,2.0072,2.0575,2.2232,2.2972,2.361,2.4454,2.4825,2.477,2.4366,2.4705,2.4956,2.4563,2.515,2.573,2.573,2.6347,2.7024,2.7483,2.7531,2.7699,2.8234,2.9412,3.0316,3.0545,3.1556,3.2182,3.2182,3.2182,3.2182,3.2182,3.2182,3.2182,3.2182,3.2182,3.2182,3.2182,3.2182,3.2182,3.2182,3.2182,3.2372,3.2704,3.3058,3.3409,3.3839,3.4196,3.4346,3.4414,3.4414,3.4414,3.4414,3.4414,3.4414,3.4414,3.4414,3.4414,3.4414,0.1288,0.1842,0.2508,0.3492,0.4028,0.4474,0.501,0.546,0.5733,0.5733,0.5822,0.5908,0.5908,0.6527,0.7253,0.788,0.8746,0.9436,0.9846,1.0455,1.0857,1.1016,1.1099,1.1177,1.1528,1.1256,1.1055,1.0871,1.0718,1.0663,1.0767,1.0882,1.0936,1.0942,1.1428,1.1632,1.1632,1.2586,1.3178,1.3477,1.3985,1.4775,1.5528,1.5365,1.5741,1.6454,1.6985,1.7395,1.779,1.8312,1.8529,1.8529,1.8702,1.8779,1.8815,1.899,1.9385,1.9896,2.0486,2.1392,2.2408,2.3343,2.403,2.4568,2.512,2.5382,2.5448,2.4967,2.5264,2.5491,2.5281,2.62,2.6962,2.6962,2.7423,2.7897,2.8126,2.8162,2.8325,2.8937,2.9793,3.0393,3.0771,3.1923,3.2535,3.2209,3.2481,3.2535,3.2196,3.2182,3.2182,3.2182,3.2182,3.2182,3.2182,3.2182,3.2182,3.2182,3.2182,3.2241,3.2444,3.2588,3.286,3.3199,3.3632,3.3908,3.4059,3.4346,3.4414,3.4414,3.4414,3.4414,3.4414,3.4414,3.4414,3.4414]},{"header":{"parameterUnit":"m.s-1","parameterCategory":1,"la1":30.6,"la2":28.766,"lo1":-90.7593,"lo2":-88.6598,"dy":0.0162,"dx":0.0183,"nx":116,"ny":114,"refTime":"2023-11-04T00:00:00:Z","depth":0,"parameterNumber":3,"parameterNumberName":"V-component_of_WINDS"},"data":[0.0,0.0,0.0,0.0,0.0,0.0,0.0,0.0,0.0,0.0,0.0,0.0,0.0,0.0,0.0,0.0,0.0,0.0,0.0,0.0,0.0,0.0,0.0,0.0,0.0,0.0,0.0,0.0,0.0,0.0,0.0,0.0,0.0,0.0,0.0,0.0,0.0,0.0,0.0,0.0,0.0,0.0,0.0,0.0,0.0,0.0,0.0,0.0,0.0,0.0,0.0,0.0,0.0,0.0,0.0,0.0,0.0,0.0,0.0,0.0,0.0,0.0,0.0,0.0,0.0,0.0,0.0,0.0,0.0,0.0,0.0,0.0,0.0,0.0,0.0,0.0,0.0,0.0,0.0,0.0,0.0,0.0,0.0,0.0,0.0,0.0,0.0,0.0,0.0,0.0,0.0,0.0,0.0,0.0,0.0,0.0,0.0,0.0,0.0,0.0,0.0,0.0,0.0,0.0,0.0,0.0,0.0,0.0,0.0,0.0,0.0,0.0,0.0,0.0,0.0,0.0,0.0,0.0,0.0,0.0,0.0,0.0,0.0,0.0,0.0,0.0,0.0,0.0,0.0,0.0,0.0,0.0,0.0,0.0,0.0,0.0,0.0,0.0,0.0,0.0,0.0,0.0,0.0,0.0,0.0,0.0,0.0,0.0,0.0,0.0,0.0,0.0,0.0,0.0,0.0,0.0,0.0,0.0,0.0,0.0,0.0,0.0,0.0,0.0,0.0,0.0,0.0,0.0,0.0,0.0,0.0,0.0,0.0,0.0,0.0,0.0,0.0,0.0,0.0,0.0,0.0,0.0,0.0,0.0,0.0,0.0,0.0,0.0,0.0,0.0,0.0,0.0,0.0,0.0,0.0,0.0,0.0,0.0,0.0,0.0,0.0,0.0,0.0,0.0,0.0,0.0,0.0,0.0,0.0,0.0,0.0,0.0,0.0,0.0,0.0,0.0,0.0,0.0,0.0,0.0,0.0,0.0,0.0,0.0,0.0,0.0,0.0,0.0,0.0,0.0,0.0,0.0,0.0,0.0,0.0,0.0,0.0,0.0,0.0,0.0,0.0,0.0,0.0,0.0,0.0,0.0,0.0,0.0,0.0,0.0,0.0,0.0,0.0,0.0,0.0,0.0,0.0,0.0,0.0,0.0,0.0,0.0,0.0,0.0,0.0,0.0,0.0,0.0,0.0,0.0,0.0,0.0,0.0,0.0,0.0,0.0,0.0,0.0,0.0,0.0,0.0,0.0,0.0,0.0,0.0,0.0,0.0,0.0,0.0,0.0,0.0,0.0,0.0,0.0,0.0,0.0,0.0,0.0,0.0,0.0,0.0,0.0,0.0,0.0,0.0,0.0,0.0,0.0,0.0,0.0,0.0,0.0,0.0,0.0,0.0,0.0,0.0,0.0,0.0,0.0,0.0,0.0,0.0,0.0,0.0,0.0,0.0,0.0,0.0,0.0,0.0,0.0,0.0,0.0,0.0,0.0,0.0,0.0,0.0,0.0,0.0,0.0,0.0,0.0,0.0,0.0,0.0,0.0,0.0,0.0,0.0,0.0,0.0,0.0,0.0,0.0,0.0,0.0,0.0,0.0,0.0,0.0,0.0,0.0,0.0,0.0,0.0,0.0,0.0,0.0,0.0,0.0,0.0,0.0,0.0,0.0,0.0,0.0,0.0,0.0,0.0,0.0,0.0,0.0,0.0,0.0,0.0,0.0,0.0,0.0,0.0,0.0,0.0,0.0,0.0,0.0,0.0,0.0,0.0,0.0,0.0,0.0,0.0,0.0,0.0,0.0,0.0,0.0,0.0,0.0,0.0,0.0,0.0,0.0,0.0,0.0,0.0,0.0,0.0,0.0,0.0,0.0,0.0,0.0,0.0,0.0,0.0,0.0,0.0,0.0,0.0,0.0,0.0,0.0,0.0,0.0,0.0,0.0,0.0,0.0,0.0,0.0,0.0,0.0,0.0,0.0,0.0,0.0,0.0,0.0,0.0,0.0,0.0,0.0,0.0,0.0,0.0,0.0,0.0,0.0,0.0,0.0,0.0,0.0,0.0,0.0,0.0,0.0,0.0,0.0,0.0,0.0,0.0,0.0,0.0,0.0,0.0,0.0,0.0,0.0,0.0,0.0,0.0,0.0,0.0,0.0,0.0,0.0,0.0,0.0,0.0,0.0,0.0,0.0,0.0,0.0,0.0,0.0,0.0,0.0,0.0,0.0,0.0,0.0,0.0,0.0,0.0,0.0,0.0,0.0,0.0,0.0,0.0,0.0,0.0,0.0,0.0,0.0,0.0,0.0,0.0,0.0,0.0,0.0,0.0,0.0,0.0,0.0,0.0,0.0,0.0,0.0,0.0,0.0,0.0,0.0,0.0,0.0,0.0,0.0,0.0,0.0,0.0,0.0,0.0,0.0,0.0,0.0,0.0,0.0,0.0,0.0,0.0,0.0,0.0,0.0,0.0,0.0,0.0,0.0,0.0,0.0,0.0,0.0,0.0,0.0,0.0,0.0,0.0,0.0,0.0,0.0,0.0,0.0,0.0,0.0,0.0,0.0,0.0,0.0,0.0,0.0,0.0,0.0,0.0,0.0,0.0,0.0,0.0,0.0,0.0,0.0,0.0,0.0,0.0,0.0,0.0,0.0,0.0,0.0,0.0,0.0,0.0,0.0,0.0,0.0,0.0,0.0,0.0,0.0,0.0,0.0,0.0,0.0,0.0,0.0,0.0,0.0,0.0,0.0,0.0,0.0,0.0,0.0,0.0,0.0,0.0,0.0,0.0,0.0,0.0,0.0,0.0,0.0,0.0,0.0,0.0,0.0,0.0,0.0,0.0,0.0,0.0,0.0,0.0,0.0,0.0,0.0,0.0,0.0,0.0,0.0,0.0,0.0,0.0,0.0,0.0,0.0,0.0,0.0,0.0,0.0,0.0,0.0,0.0,0.0,0.0,0.0,0.0,0.0,0.0,0.0,0.0,0.0,0.0,0.0,0.0,0.0,0.0,0.0,0.0,0.0,0.0,0.0,0.0,0.0,0.0,0.0,0.0,0.0,0.0,0.0,0.0,0.0,0.0,0.0,0.0,0.0,0.0,0.0,0.0,0.0,0.0,0.0,0.0,0.0,0.0,0.0,0.0,0.0,0.0,0.0,0.0,0.0,0.0,0.0,0.0,0.0,0.0,0.0,0.0,0.0,0.0,0.0,0.0,0.0,0.0,0.0,0.0,0.0,0.0,0.0,0.0,0.0,0.0,0.0,0.0,0.0,0.0,0.0,0.0,0.0,0.0,0.0,0.0,0.0,0.0,0.0,0.0,0.0,0.0,0.0,0.0,0.0,0.0,0.0,0.0,0.0,0.0,0.0,0.0,0.0,0.0,0.0,0.0,0.0,0.0,0.0,0.0,0.0,0.0,0.0,0.0,0.0,0.0,0.0,0.0,0.0,0.0,0.0,0.0,0.0,0.0,0.0,0.0,0.0,0.0,0.0,0.0,0.0,0.0,0.0,0.0,0.0,0.0,0.0,0.0,0.0,0.0,0.0,0.0,0.0,0.0,0.0,0.0,0.0,0.0,0.0,0.0,0.0,0.0,0.0,0.0,0.0,0.0,0.0,0.0,0.0,0.0,0.0,0.0,0.0,0.0,0.0,0.0,0.0,0.0,0.0,0.0,0.0,0.0,0.0,0.0,0.0,0.0,0.0,0.0,0.0,0.0,0.0,0.0,0.0,0.0,0.0,0.0,0.0,0.0,0.0,0.0,0.0,0.0,0.0,0.0,0.0,0.0,0.0,0.0,0.0,0.0,0.0,0.0,0.0,0.0,0.0,0.0,0.0,0.0,0.0,0.0,0.0,0.0,0.0,0.0,0.0,0.0,0.0,0.0,0.0,0.0,0.0,0.0,0.0,0.0,0.0,0.0,0.0,0.0,0.0,0.0,0.0,0.0,0.0,0.0,0.0,0.0,0.0,0.0,0.0,0.0,0.0,0.0,0.0,0.0,0.0,0.0,0.0,0.0,0.0,0.0,0.0,0.0,0.0,0.0,0.0,0.0,0.0,0.0,0.0,0.0,0.0,0.0,0.0,0.0,0.0,0.0,0.0,0.0,0.0,0.0,0.0,0.0,0.0,0.0,0.0,0.0,0.0,0.0,0.0,0.0,0.0,0.0,0.0,0.0,0.0,0.0,0.0,0.0,0.0,0.0,0.0,0.0,0.0,0.0,0.0,0.0,0.0,0.0,0.0,0.0,0.0,0.0,0.0,0.0,0.0,0.0,0.0,0.0,0.0,0.0,0.0,0.0,0.0,0.0,0.0,0.0,0.0,0.0,0.0,0.0,0.0,0.0,0.0,0.0,0.0,0.0,0.0,0.0,0.0,0.0,0.0,0.0,0.0,0.0,0.0,0.0,0.0,0.0,0.0,0.0,0.0,0.0,0.0,0.0,0.0,0.0,0.0,0.0,0.0,0.0,0.0,0.0,0.0,0.0,0.0,0.0,0.0,0.0,0.0,0.0,0.0,0.0,0.0,0.0,0.0,0.0,0.0,0.0,0.0,0.0,0.0,0.0,0.0,0.0,0.0,0.0,0.0,0.0,0.0,0.0,0.0,0.0,0.0,0.0,0.0,0.0,0.0,0.0,0.0,0.0,0.0,0.0,0.0,0.0,0.0,0.0,0.0,0.0,0.0,0.0,0.0,0.0,0.0,0.0,0.0,0.0,0.0,0.0,0.0,0.0,0.0,0.0,0.0,0.0,0.0,0.0,0.0,0.0,0.0,0.0,0.0,0.0,0.0,0.0,0.0,0.0,0.0,0.0,0.0,0.0,0.0,0.0,0.0,0.0,0.0,0.0,0.0,0.0,0.0,0.0,0.0,0.0,0.0,0.0,0.0,0.0,0.0,0.0,0.0,0.0,0.0,0.0,0.0,0.0,0.0,0.0,0.0,0.0,0.0,0.0,0.0,0.0,0.0,0.0,0.0,0.0,0.0,0.0,0.0,0.0,0.0,0.0,0.0,0.0,0.0,0.0,0.0,0.0,0.0,0.0,0.0,0.0,0.0,0.0,0.0,0.0,0.0,0.0,0.0,0.0,0.0,0.0,0.0,0.0,0.0,0.0,0.0,0.0,0.0,0.0,0.0,0.0,0.0,0.0,0.0,0.0,0.0,0.0,0.0,0.0,0.0,0.0,0.0,0.0,0.0,0.0,0.0,0.0,0.0,0.0,0.0,0.0,0.0,0.0,0.0,0.0,0.0,0.0,0.0,0.0,0.0,0.0,0.0,0.0,0.0,0.0,0.0,0.0,0.0,0.0,0.0,0.0,0.0,0.0,0.0,0.0,0.0,0.0,0.0,0.0,0.0,0.0,0.0,0.0,0.0,0.0,0.0,0.0,0.0,0.0,0.0,0.0,0.0,0.0,0.0,0.0,0.0,0.0,0.0,0.0,0.0,0.0,0.0,0.0,0.0,0.0,0.0,0.0,0.0,0.0,0.0,0.0,0.0,0.0,0.0,0.0,0.0,0.0,0.0,0.0,0.0,0.0,0.0,0.0,0.0,0.0,0.0,0.0,0.0,0.0,0.0,0.0,0.0,0.0,0.0,0.0,0.0,0.0,0.0,0.0,0.0,0.0,0.0,0.0,0.0,0.0,0.0,0.0,0.0,0.0,0.0,0.0,0.0,0.0,0.0,0.0,0.0,0.0,0.0,0.0,0.0,0.0,0.0,0.0,0.0,0.0,0.0,0.0,0.0,0.0,0.0,0.0,0.0,0.0,0.0,0.0,0.0,0.0,0.0,0.0,0.0,0.0,0.0,0.0,0.0,0.0,0.0,0.0,0.0,0.0,0.0,0.0,0.0,0.0,0.0,0.0,0.0,0.0,0.0,0.0,0.0,0.0,0.0,0.0,0.0,0.0,0.0,0.0,0.0,0.0,0.0,0.0,0.0,0.0,0.0,0.0,0.0,0.0,0.0,0.0,0.0,0.0,0.0,0.0,0.0,0.0,0.0,0.0,0.0,0.0,0.0,0.0,0.0,0.0,0.0,0.0,0.0,0.0,0.0,0.0,0.0,0.0,0.0,0.0,0.0,0.0,0.0,0.0,0.0,0.0,0.0,-1.0993,0.0,0.0,0.0,0.0,0.0,0.0,0.0,0.0,0.0,0.0,0.0,0.0,0.0,0.0,0.0,0.0,0.0,0.0,0.0,0.0,0.0,0.0,0.0,0.0,0.0,0.0,0.0,0.0,0.0,0.0,0.0,0.0,0.0,0.0,0.0,0.0,0.0,0.0,0.0,0.2429,0.2739,0.3069,0.5216,0.6771,0.7696,0.0,0.0,0.0,0.0,0.0,0.0,0.0,0.0,0.0,0.0,0.0,0.0,0.0,0.0,0.0,0.0,0.0,0.0,0.0,0.0,0.0,0.0,0.0,0.0,0.0,0.0,0.0,0.0,0.0,0.0,0.0,0.0,0.0,0.0,0.0,0.0,0.0,0.0,0.0,0.0,0.0,0.0,0.0,0.0,0.0,0.0,0.0,0.0,0.0,0.0,0.0,0.0,0.0,0.0,0.0,0.0,0.0,0.0,0.0,0.0,0.0,0.0,0.0,0.0,0.0,0.0,0.0,0.0,0.0,0.0,0.0,-1.7931,0.0,0.0,0.0,0.0,0.0,0.0,0.0,0.0,0.0,0.0,0.0,0.0,0.0,0.0,0.0,0.0,0.0,0.0,0.0,0.0,0.0,0.0,0.0,0.0,0.0,0.0,0.0,0.0,0.0,0.0,0.0,0.0,0.0,0.0,0.0,0.0,0.0,0.0,0.0787,0.1039,0.2346,0.3983,0.5447,0.6642,0.6872,0.0,0.0,0.0,0.0,0.0,0.0,0.0,0.0,0.0,0.0,0.0,0.0,0.0,0.0,0.0,0.0,0.0,0.0,0.0,0.0,0.0,0.0,0.0,0.0,0.0,0.0,0.0,0.0,0.0,0.0,0.0,0.0,0.0,0.0,0.0,0.0,0.0,0.0,0.0,0.0,0.0,0.0,0.0,0.0,0.0,0.0,0.0,0.0,0.0,0.0,0.0,0.0,0.0,0.0,0.0,0.0,0.0,0.0,0.0,0.0,0.0,0.0,0.0,-1.9311,-2.0816,-2.2909,-2.2841,-2.3483,-2.4504,-2.2007,-2.0941,-2.1043,-2.2355,0.0,0.0,0.0,0.0,0.0,0.0,0.0,0.0,0.0,0.0,0.0,0.0,0.0,0.0,0.0,0.0,0.0,0.0,0.0,0.0,0.0,0.4578,0.3965,0.3167,0.3476,0.3653,0.0,0.0,0.0,0.0,0.0,0.0,0.0,0.299,0.2196,0.0853,-0.0088,0.0181,0.1554,0.1978,0.2982,0.4371,0.5191,0.5444,0.5265,0.0,0.0,0.0,0.0,0.0,0.0,0.0,0.0,0.0,0.0,0.0,0.0,0.0,0.0,0.0,0.0,0.0,0.0,0.0,0.0,0.0,0.0,0.0,0.0,0.0,0.0,0.0,0.0,0.0,0.0,0.0,0.0,0.0,0.0,0.0,0.0,0.0,0.0,0.0,0.0,0.0,-0.7397,-0.8559,0.0,0.0,0.0,0.0,0.0,0.0,0.0,0.0,0.0,0.0,0.0,0.0,0.0,-1.6255,-1.7043,-1.9866,-2.1215,-2.1061,-2.2399,-2.3154,-2.333,-2.3464,-2.4008,-2.4752,-2.4409,0.0,-2.3484,-2.3017,0.0,0.0,0.0,0.0,0.0,0.0,0.0,0.0,0.0,0.0,0.0,0.0,0.0,0.0,0.0,0.0,0.0,0.0,0.0,0.0,0.0,0.4599,0.405,0.3478,0.3363,0.3438,0.3704,0.0,0.0,0.0,0.0,0.0,0.0,0.2654,0.1446,-0.0377,-0.0481,-0.0202,0.0491,0.0983,0.1645,0.2493,0.2496,0.3296,0.4595,0.4009,0.0,0.0,0.0,0.0,0.0,0.0,0.0,0.0,0.0,0.0,0.0,0.0,0.0,0.0,0.0,0.0,0.0,0.0,0.0,0.0,0.0,0.0,0.0,0.0,0.0,0.0,0.0,0.0,0.0,0.0,0.0,0.0,0.0,0.0,0.0,0.0,0.0,0.0,0.0,-0.8844,-0.9523,-0.9232,-1.027,-1.1259,0.0,0.0,0.0,0.0,0.0,0.0,0.0,0.0,0.0,-1.6184,-1.7275,-1.8291,-1.9211,-2.124,-2.2777,-2.3764,-2.4458,-2.5362,-2.6517,-2.6772,-2.7063,-2.7321,-2.7153,-2.6689,-2.5918,-2.4764,-2.4204,-2.4159,0.0,0.0,0.0,0.0,-2.4264,-2.4207,0.0,0.0,0.0,0.0,0.0,0.0,0.0,0.0,0.0,0.0,0.0,0.0,0.4998,0.4554,0.4149,0.3705,0.334,0.3341,0.3863,0.3554,0.0,0.0,0.0,0.0,0.0,0.0,0.0258,-0.1478,-0.114,-0.0761,-0.0368,0.0,0.0448,0.103,0.0435,0.1471,0.3573,0.3006,0.3045,0.3503,0.0,0.0,0.0,0.0,0.0,0.0,0.0,0.0,0.0,0.0,0.0,0.0,0.0,0.0,0.0,0.0,0.0,0.0,0.0,0.0,0.0,0.0,0.0,0.0,0.0,0.0,0.0,0.0,0.0,0.0,0.0,0.0,0.0,0.0,0.0,0.0,0.0,-1.0615,-1.0659,-0.9985,-1.0871,-1.1695,0.0,0.0,0.0,0.0,0.0,0.0,-1.5334,-1.6399,-1.7402,-1.8364,-1.9276,-2.0199,-2.1078,-2.2798,-2.4487,-2.607,-2.63,-2.733,-2.9036,-2.9167,-2.9277,-2.936,-2.916,-2.8755,-2.8109,-2.6169,-2.4999,-2.4424,-2.4381,-2.4218,-2.4002,-2.4295,-2.4482,-2.4555,0.0,0.0,0.0,0.0,0.0,0.0,0.0,0.0,0.0,0.0,0.0,0.5032,0.4849,0.4492,0.4063,0.3379,0.3436,0.3486,0.3544,0.3523,0.368,0.4105,0.401,0.0,0.0,0.0,0.0,-0.2156,-0.2389,-0.1925,-0.0875,-0.1446,-0.104,0.0184,-0.0061,0.0539,0.1671,0.1165,0.1489,0.2376,0.2163,0.0,0.0,0.0,0.0,0.0,0.0,0.0,0.0,0.0,0.0,0.0,0.0,0.0,0.0,0.0,0.0,0.0,0.0,0.0,0.0,0.0,0.0,0.0,0.0,0.0,0.0,0.0,0.0,0.0,0.0,0.0,0.0,0.0,0.0,0.0,0.0,0.0,0.0,-1.1817,-1.2143,0.0,0.0,0.0,0.0,-1.4292,-1.5134,-1.6144,-1.7397,-1.7813,-1.8358,-1.9139,-2.0901,-2.2189,-2.2949,-2.5728,-2.7292,-2.7622,-2.8237,-2.884,-2.9358,-2.8923,-2.9045,-2.9589,-2.9706,-2.9874,-2.9832,-2.6628,-2.5321,-2.5263,-2.4574,-2.5252,-2.6426,-2.4954,-2.484,-2.5215,0.0,0.0,0.0,0.0,0.0,0.0,0.0,0.0,0.0,0.6142,0.5425,0.4897,0.4951,0.4385,0.4038,0.3966,0.3529,0.3431,0.3934,0.3529,0.3497,0.4136,0.3748,0.0,0.0,0.0,-0.0689,-0.11,-0.0996,-0.0915,-0.0936,-0.1198,-0.1088,-0.0717,-0.1215,-0.0945,-0.0062,0.0109,0.0505,0.1083,0.0982,0.1207,0.0,0.0,0.0,0.0,0.0,0.0,0.0,0.0,0.0,0.0,0.0,0.0,0.0,0.0,0.0,0.0,0.0,0.0,0.0,0.0,0.0,0.0,0.0,0.0,0.0,0.0,0.0,0.0,0.0,0.0,0.0,0.0,0.0,0.0,0.0,0.0,0.0,-1.3296,-1.3564,0.0,-1.426,-1.4228,-1.4683,-1.5804,-1.6786,-1.7674,-1.8355,-1.9309,-2.0252,-2.1146,-2.2205,-2.3416,-2.4812,-2.6168,-2.7525,-2.9004,-2.8226,-2.8646,-3.0064,-2.8371,-2.8208,-2.9225,-2.8462,-2.8575,-2.9126,-2.7014,-2.6185,-2.611,-2.486,-2.4326,-2.43,-2.4316,-2.4464,-2.465,0.0,0.0,0.0,0.0,0.0,0.0,0.0,0.0,0.0,0.582,0.5196,0.4796,0.5027,0.4392,0.4067,0.4298,0.3683,0.3532,0.402,0.3343,0.3175,0.3767,0.2928,0.0,0.0,0.0221,-0.0345,-0.0648,-0.0688,-0.0777,-0.098,-0.1568,-0.1584,-0.1276,-0.1847,-0.1758,-0.1156,-0.0651,-0.0325,-0.0049,0.0,0.0286,0.0672,0.0,0.0,0.0,0.0,0.0,0.0,0.0,0.0,0.0,0.0,0.0,0.0,0.0,0.0,0.0,0.0,0.0,0.0,0.0,0.0,0.0,0.0,0.0,0.0,0.0,0.0,0.0,0.0,0.0,0.0,0.0,0.0,0.0,0.0,0.0,-1.4482,-1.4718,-1.509,-1.5342,-1.5423,-1.5405,-1.5776,-1.6727,-1.7861,-1.8802,-1.9383,-2.0566,-2.1546,-2.2317,-2.2902,-2.3888,-2.531,-2.5719,-2.6887,-2.8737,-2.764,-2.8037,-2.9679,-2.7648,-2.7125,-2.7815,-2.7213,-2.732,-2.787,-2.7093,-2.6575,-2.6165,-2.488,-2.4105,-2.3752,-2.3811,-2.4139,-2.4646,0.0,0.0,0.0,0.0,0.0,0.0,0.0,0.5712,0.5061,0.5259,0.4811,0.4641,0.5047,0.449,0.4129,0.4324,0.3915,0.3753,0.3785,0.2978,0.2612,0.2921,0.0,0.0,0.0729,-0.0174,-0.0728,-0.0902,-0.1613,-0.1638,-0.1144,-0.2557,-0.2626,-0.1685,-0.2025,-0.1993,-0.1553,-0.1166,-0.0969,-0.0911,-0.0821,-0.0706,-0.0606,0.0,0.0,0.0,0.0,0.0,0.0,0.0,0.0,0.0,0.0,0.0,0.0,0.0,0.0,0.0,0.0,0.0,0.0,0.0,0.0,0.0,0.0,0.0,0.0,0.0,0.0,0.0,0.0,0.0,0.0,0.0,0.0,0.0,-1.4351,-1.5303,-1.5954,-1.6051,-1.6717,-1.6578,-1.5127,-1.581,-1.6504,-1.6908,-1.8333,-1.9598,-2.0561,-2.1495,-2.2168,-2.254,-2.2946,-2.359,-2.4433,-2.4604,-2.5422,-2.6769,-2.6623,-2.7127,-2.815,-2.675,-2.582,-2.5337,-2.6093,-2.633,-2.6225,-2.6795,-2.6386,-2.5344,-2.4627,-2.4739,-2.5102,-2.3509,-2.3921,-2.5291,0.0,0.0,0.0,0.0,0.0,0.0,0.0,0.5285,0.5016,0.513,0.4658,0.4513,0.503,0.4378,0.4034,0.4441,0.4008,0.3825,0.3937,0.3016,0.223,0.1624,0.0,0.0,0.0807,0.0491,0.0125,-0.0266,-0.0465,-0.101,-0.2007,-0.2352,-0.2588,-0.2638,-0.2709,-0.2416,-0.1763,-0.1591,-0.1347,-0.1033,-0.0872,-0.082,-0.0835,0.0,0.0,0.0,0.0,0.0,0.0,0.0,0.0,0.0,0.0,0.0,0.0,0.0,0.0,0.0,0.0,0.0,0.0,0.0,0.0,0.0,0.0,0.0,0.0,0.0,0.0,0.0,0.0,0.0,0.0,0.0,0.0,-1.4634,-1.5356,-1.6365,-1.7154,-1.7588,-1.7804,-1.7651,-1.708,-1.7347,-1.7761,-1.8032,-1.9718,-2.0889,-2.121,-2.2027,-2.2792,-2.3425,-2.2609,-2.3005,-2.4763,-2.3925,-2.4426,-2.6279,-2.5674,-2.6302,-2.7964,-2.5664,-2.4003,-2.298,-2.4015,-2.5023,-2.5903,-2.5614,-2.4666,-2.3496,-2.4645,-2.4216,-2.2979,-2.3292,-2.4184,-2.5215,0.0,0.0,0.0,0.0,0.0,0.0,0.0,0.5198,0.5049,0.5198,0.4992,0.497,0.5409,0.4677,0.4287,0.4584,0.4002,0.3596,0.3576,0.2675,0.1717,0.074,0.0,0.0861,0.0657,0.0327,0.0,-0.0278,-0.0972,-0.168,-0.249,-0.2774,-0.2942,-0.2987,-0.2987,-0.2478,-0.1529,-0.1488,-0.1114,-0.0477,-0.0358,-0.0452,-0.0675,-0.0764,-0.0726,-0.0668,-0.1054,-0.1338,-0.1612,-0.1947,0.0,0.0,0.0,0.0,0.0,0.0,0.0,0.0,0.0,0.0,0.0,0.0,0.0,0.0,0.0,0.0,0.0,0.0,0.0,0.0,0.0,0.0,0.0,0.0,-1.5028,-1.5959,-1.6907,-1.7645,-1.8171,-1.842,-1.8623,-1.8522,-1.7799,-1.7718,-1.7739,-1.8036,-1.8999,-1.9788,-2.0333,-2.1144,-2.1895,-2.2616,-2.1903,-2.2174,-2.3392,-2.2549,-2.2953,-2.4754,-2.3985,-2.4627,-2.6395,-2.4312,-2.2851,-2.1967,-2.3012,-2.3712,-2.4153,-2.3971,-2.2973,0.0,0.0,0.0,0.0,0.0,-2.3866,-2.4518,0.0,0.0,0.0,0.0,0.0,0.0,0.0,0.5348,0.5115,0.5353,0.5474,0.5588,0.5918,0.5084,0.4549,0.4607,0.3792,0.3154,0.2825,0.2015,0.1165,0.0237,0.0378,0.0395,0.034,-0.0348,-0.0782,-0.0944,-0.2324,-0.2913,-0.2852,-0.3507,-0.3586,-0.3086,-0.3013,-0.2352,-0.1248,-0.1148,-0.049,0.0478,0.0395,0.0191,-0.0122,-0.0432,-0.0267,0.0,-0.0806,-0.1086,-0.1171,-0.1767,0.0,0.0,0.0,0.0,0.0,0.0,0.0,0.0,0.0,0.0,0.0,0.0,0.0,0.0,0.0,0.0,0.0,0.0,0.0,0.0,0.0,0.0,0.0,0.0,-1.6126,-1.7214,-1.8326,-1.8763,-1.8916,-1.8596,-1.908,-1.8895,-1.7707,-1.7223,-1.7086,-1.7326,-1.7392,-1.7823,-1.8817,0.0,0.0,0.0,0.0,-2.1159,-2.142,-2.0961,-2.1369,-2.2694,-2.2062,-2.257,-2.3994,-2.2907,-2.2179,-2.184,-2.2642,-2.262,-2.2062,-2.2464,-2.1805,-2.0704,-2.2456,-2.2985,-2.2818,-2.3056,-2.3319,-2.369,0.0,0.0,0.0,0.0,0.0,0.0,0.0,0.5475,0.5274,0.5371,0.5092,0.5016,0.5448,0.4658,0.4069,0.3977,0.3423,0.2626,0.162,0.1112,0.0653,0.0063,0.0066,-0.0137,-0.0716,-0.0864,-0.1446,-0.2542,-0.2833,-0.3233,-0.3678,-0.3826,-0.3793,-0.3635,-0.2939,-0.232,-0.1701,-0.1,0.0,0.106,0.0991,0.1119,0.1284,0.1046,0.1319,0.1718,0.0787,0.0318,0.0,-0.0677,-0.1005,-0.1209,-0.1371,0.0,0.0,0.0,0.0,0.0,0.0,0.0,0.0,0.0,0.0,0.0,0.0,0.0,0.0,0.0,0.0,0.0,0.0,0.0,0.0,-1.4834,-1.5807,-1.6753,-1.747,-1.8035,-1.8331,-1.8297,-1.826,-1.7855,-1.6809,-1.688,-1.7096,-1.7232,-1.7949,-1.87,-1.926,-1.9825,-2.0568,-2.1473,-2.0583,-2.06,-2.1719,-2.0563,-2.0446,-2.1355,0.0,0.0,-2.2441,-2.1918,-2.1729,-2.1807,-2.2095,-2.2457,-2.2894,-2.3369,-2.3382,-2.3175,-2.4198,-2.4298,-2.3802,-2.3076,-2.3528,-2.4572,0.0,0.0,0.0,0.0,0.0,0.0,0.0,0.5922,0.5674,0.5567,0.541,0.5412,0.5813,0.5085,0.4505,0.4359,0.3513,0.2493,0.1338,0.1172,0.0805,0.0066,0.0,-0.0143,-0.0519,-0.1333,-0.2085,-0.2715,-0.3622,-0.38,-0.3463,-0.3463,-0.294,-0.1876,-0.1408,-0.0704,0.039,0.123,0.2127,0.3071,0.3405,0.3825,0.4124,0.2436,0.2078,0.2385,0.155,0.1099,0.0775,0.0368,-0.0053,-0.0376,-0.01,-0.0396,-0.0852,0.0,0.0,0.0,0.0,0.0,0.0,0.0,0.0,0.0,0.0,0.0,0.0,0.0,0.0,-1.2003,0.0,0.0,-1.4277,-1.5292,-1.6078,-1.6675,-1.7021,-1.7324,-1.752,-1.7641,-1.7184,-1.6818,-1.6728,-1.6453,-1.6446,-1.6918,-1.7369,-1.7768,-1.8235,-1.8612,-1.9179,-2.0141,-1.9855,-1.9905,-2.0412,-2.0191,-2.0204,-2.043,-2.0232,-2.0642,-2.1522,-2.0901,-2.0966,-2.1575,-2.1814,-2.2141,-2.259,-2.3099,-2.3322,-2.3431,-2.4117,-2.4295,-2.4056,-2.3529,-2.3786,-2.4425,0.0,0.0,0.0,0.0,0.0,0.0,0.0,0.0,0.6023,0.5802,0.5766,0.5869,0.6096,0.5483,0.4918,0.4614,0.3556,0.2421,0.0,0.14,0.1022,0.0068,0.0,-0.0074,-0.0228,-0.1597,-0.2378,-0.2503,-0.3837,-0.3837,-0.2581,-0.2581,-0.1562,0.0234,0.039,0.1326,0.28,0.3722,0.4686,0.5541,0.6201,0.6861,0.7157,0.4379,0.3472,0.3416,0.2559,0.2087,0.1843,0.1362,0.0881,0.0664,0.12,0.0651,0.0,0.0909,0.0046,0.0,0.0,0.0,0.0,0.0,0.0,0.0,0.0,0.0,-0.8943,-0.9574,-1.068,-1.1698,-1.241,-1.3368,-1.44,-1.5302,-1.5961,-1.6402,-1.6374,-1.6281,-1.616,-1.629,-1.5799,-1.5698,-1.6262,-1.5625,-1.5549,-1.6215,-1.6404,-1.6577,-1.6763,-1.7062,-1.7497,-1.8054,-1.8779,-1.8992,-1.8602,-1.9643,-1.9911,-1.9383,-1.937,-1.971,-2.0404,-1.9924,-2.027,-2.136,-2.1766,-2.1966,-2.2068,-2.2548,-2.2765,-2.2917,-2.3428,-2.3751,-2.3952,-2.4022,-2.4057,-2.4154,0.0,0.0,0.0,0.0,0.0,0.0,0.0,0.0,0.0,0.5985,0.561,0.5372,0.5424,0.5069,0.449,0.3583,0.2843,0.2113,0.1344,0.0993,0.0592,0.0,0.0,-0.0381,-0.117,-0.1327,-0.1796,-0.2503,-0.266,-0.2109,-0.0857,-0.0857,-0.0156,0.1089,0.187,0.2725,0.3645,0.5089,0.6522,0.7908,0.8113,0.8715,0.9286,0.8027,0.7173,0.6434,0.4949,0.4326,0.391,0.238,0.2018,0.2093,0.1682,0.1317,0.1,0.1026,0.0,-0.029,-0.0533,-0.1794,-0.3407,-0.5044,-0.6019,-0.6843,0.0,0.0,-0.9406,-0.9444,-1.0471,-1.1392,-1.1251,-1.241,-1.3415,-1.3433,-1.4496,-1.5088,-1.4601,-1.411,-1.3726,-1.3384,-1.3876,-1.4257,-1.4092,-1.4255,-1.4409,-1.4648,-1.5689,-1.6128,-1.5644,-1.6246,-1.6394,-1.5982,-1.6933,-1.7368,-1.7224,-1.8632,-1.8765,-1.7593,-1.8461,-1.8555,-1.8001,-1.8817,-2.005,-2.1601,-2.2178,-2.2296,-2.2119,-2.2354,-2.26,-2.2838,-2.2954,-2.3351,-2.3842,-2.4098,-2.4338,-2.4463,0.0,0.0,0.0,0.0,0.0,0.0,0.0,0.0,0.0,0.0,0.5647,0.5335,0.5462,0.5076,0.4475,0.3588,0.3318,0.0,0.1977,0.1596,0.1362,0.146,0.0531,0.0311,0.086,-0.0078,-0.0469,-0.0312,-0.078,-0.039,0.0857,0.132,0.2481,0.419,0.5334,0.6329,0.7251,0.8689,0.9807,1.0731,1.0931,1.1229,1.1324,1.0,0.8858,0.7769,0.63,0.5326,0.0,0.0,0.3357,0.2995,0.2811,0.2242,0.1629,0.1739,0.1326,0.0,-0.038,-0.2064,0.0,0.0,-0.5876,-0.6984,-0.7656,-0.8712,-0.9485,-0.9341,-1.0306,-1.1143,-1.1151,-1.1933,-1.2722,0.0,-1.3633,-1.3727,-1.3116,-1.2728,-1.2177,-1.1287,-1.1437,-1.2003,-1.3089,-1.3,-1.3197,-1.3855,-1.463,-1.4793,-1.4323,-1.4965,-1.5281,-1.5206,-1.5948,-1.6472,-1.6698,-1.7634,-1.7765,-1.712,-1.7768,-1.7891,-1.7611,-1.8261,-1.9265,-2.0579,-2.1054,-2.1285,-2.1299,-2.1472,-2.1816,-2.2252,-2.2424,-2.2905,-2.358,-2.404,-2.3845,-2.3345,0.0,0.0,0.0,0.0,0.0,0.0,0.0,0.0,0.0,0.0,0.0,0.5397,0.542,0.5111,0.4625,0.4019,0.3887,0.0,0.0,0.2202,0.2084,0.2331,0.1209,0.1156,0.2402,0.1325,0.1089,0.1775,0.1243,0.1706,0.3079,0.3934,0.5337,0.721,0.8326,0.9451,1.0525,1.1717,1.2634,1.3216,1.353,1.3356,1.2776,1.1107,0.9745,0.8546,0.7059,0.5967,0.0,0.0,0.4382,0.3798,0.3661,0.3011,0.2299,0.2403,0.191,0.1008,-0.0529,0.0,0.0,-0.4272,-0.5585,-0.6817,-0.7566,-0.8627,-0.9472,-0.9518,-1.0135,-1.0706,-1.091,-1.1265,-1.1794,-1.2425,-1.2474,-1.2297,-1.1675,-1.116,-1.0422,-0.9322,-0.8991,-0.9404,-1.1012,-1.1503,-1.2057,-1.2897,-1.3563,-1.3627,-1.2992,-1.3709,-1.4012,-1.3811,-1.4768,-1.5351,-1.5509,-1.6526,-1.6797,-1.6299,-1.6937,-1.7275,-1.7327,-1.8032,-1.8848,-1.9741,-2.0226,-2.0489,-2.0602,-2.0878,-2.126,-2.1715,-2.2152,-2.2531,-2.2923,-2.3634,-2.3396,-2.2697,0.0,0.0,0.0,0.0,0.0,0.0,0.0,0.0,0.0,0.0,0.0,0.0,0.0,0.0,0.4892,0.4608,0.0,0.0,0.0,0.2657,0.2334,0.2012,0.2056,0.214,0.2269,0.2398,0.2627,0.3013,0.3242,0.4232,0.6067,0.6874,0.8094,0.9492,1.0082,1.1255,1.2708,1.3353,1.4253,1.5255,1.5501,1.478,1.3357,1.1433,1.0043,0.8889,0.743,0.0,0.5701,0.5084,0.4786,0.4536,0.3881,0.3475,0.0,0.282,0.1854,0.0573,0.0,0.0,-0.2075,-0.4179,-0.5211,-0.6187,-0.7948,-0.8702,-0.9288,-1.0247,-1.0007,-0.9732,-1.0007,-1.0128,-1.0291,-1.0622,-1.0769,-1.0717,-1.0254,-0.9221,-0.8255,-0.7566,-0.6796,-0.6472,0.0,-0.9368,-1.1065,-1.1338,-1.2631,-1.2887,-1.164,-1.2641,-1.2601,-1.1149,-1.2943,-1.3626,-1.2995,-1.5194,-1.573,-1.451,-1.595,-1.661,-1.6587,-1.8246,-1.917,-1.9552,-2.0218,-2.0387,-2.0262,-2.1007,-2.1309,-2.1417,-2.2324,-2.2245,-2.1773,-2.2776,-2.3151,-2.3129,0.0,0.0,0.0,0.0,0.0,0.0,0.0,0.0,0.0,0.0,0.0,0.0,0.0,0.0,0.0,0.0,0.4413,0.0,0.0,0.2899,0.2788,0.3381,0.2547,0.2772,0.4229,0.3818,0.4142,0.5131,0.5682,0.6401,0.7279,0.9024,1.0355,1.1481,1.3476,1.5017,1.6219,1.652,1.6925,1.7327,1.6019,1.4828,1.3638,1.1696,1.0331,0.9299,0.0,0.0,0.6537,0.6107,0.5653,0.5145,0.4562,0.4147,0.3803,0.3232,0.2237,0.1093,0.0306,0.0,-0.2109,-0.3409,-0.4722,-0.6034,-0.7128,-0.7872,-0.8312,-0.8554,-0.8719,-0.8756,-0.8303,-0.8693,-0.9113,-0.918,-0.9562,-0.9512,-0.8723,-0.834,-0.7472,-0.5932,-0.5993,0.0,0.0,0.0,0.0,-0.9048,-0.9821,-1.0228,-1.0066,-1.1052,-1.1374,-1.0899,-1.1804,-1.2554,-1.3058,-1.3709,-1.4271,-1.4697,-1.5648,-1.6198,-1.6386,-1.7504,-1.8078,-1.8193,-1.8669,-1.9059,-1.9317,-1.9702,-2.0292,-2.0959,-2.096,-2.1228,-2.1638,-2.1931,-2.1863,-2.1634,0.0,0.0,0.0,0.0,0.0,0.0,0.0,0.0,0.0,0.0,0.0,0.0,0.0,0.0,0.0,0.0,0.0,0.4142,0.0,0.0,0.3154,0.3849,0.3036,0.3322,0.4931,0.4523,0.4965,0.6324,0.6785,0.7499,0.8392,1.0179,1.1609,1.2714,1.4842,1.6476,1.7698,1.7429,1.7382,1.7368,1.586,1.4399,1.2986,1.1482,1.0468,0.0,0.0,0.8038,0.7542,0.6814,0.6159,0.5575,0.4979,0.4526,0.4077,0.3574,0.264,0.1632,0.107,-0.0162,-0.1573,-0.2625,-0.3854,-0.5105,-0.6339,-0.694,-0.7224,-0.7412,-0.7669,-0.7688,-0.7067,-0.7445,-0.7902,-0.7937,-0.8074,-0.7937,-0.7141,-0.6998,-0.6423,-0.489,-0.529,-0.5605,0.0,0.0,0.0,-0.7744,-0.8291,-0.8659,-0.8862,-0.9717,-1.0148,-1.0085,-1.0829,-1.1584,-1.2249,-1.2625,-1.3377,-1.4499,-1.5199,-1.5796,-1.6256,-1.6993,-1.7393,-1.7516,-1.7881,-1.833,-1.8822,-1.9184,-1.9894,-2.0812,-2.074,-2.0904,-2.1196,-2.1344,-2.1,-2.0515,0.0,0.0,0.0,0.0,0.0,0.0,0.0,0.0,0.0,0.0,0.0,0.0,0.0,0.0,0.0,0.0,0.0,0.0,0.0,0.0,0.0,0.3423,0.3558,0.3848,0.4365,0.4508,0.5221,0.6544,0.6676,0.7643,0.9398,1.0638,1.1911,1.3199,1.4458,1.5879,1.7321,1.6364,1.5917,1.5692,1.507,1.3544,1.152,1.087,0.0,0.0,0.0,0.0,0.0,0.0,0.0,0.0,0.0,0.4587,0.4117,0.3755,0.2995,0.2128,0.1407,0.062,-0.0284,-0.1925,-0.2577,-0.3421,-0.5567,-0.5927,-0.6046,-0.6894,-0.6874,-0.6586,0.0,0.0,-0.657,-0.6751,-0.6457,-0.5998,-0.5541,-0.5388,-0.5067,0.0,0.0,0.0,0.0,0.0,0.0,-0.7203,0.0,-0.8113,-0.8161,-0.8631,-0.8823,-0.877,-1.0009,-1.0587,-1.0508,-1.1894,-1.3062,-1.3873,-1.4479,-1.5197,-1.5971,-1.66,-1.7034,-1.738,-1.7747,-1.8226,-1.8731,-1.9346,-2.0074,-2.0795,-2.1393,-2.1123,-2.0454,-2.0978,-2.0538,-1.9847,0.0,0.0,0.0,0.0,0.0,0.0,0.0,0.0,0.0,0.0,0.0,0.0,0.0,0.0,0.0,0.0,0.0,0.0,0.0,0.0,0.0,0.0,0.0,0.0,0.0,0.0,0.0,0.7393,0.8016,0.8964,1.0216,1.1425,1.2607,1.3792,1.5643,1.7134,1.8223,1.7622,1.6992,1.6219,0.0,1.3037,1.152,0.0,0.0,0.0,0.0,0.0,0.0,0.0,0.0,0.0,0.0,0.4606,0.3999,0.4194,0.3661,0.2949,0.2563,0.1772,0.0721,-0.0545,-0.1716,-0.2746,-0.361,-0.4104,-0.4522,-0.502,-0.525,-0.5287,0.0,0.0,0.0,-0.547,-0.5474,0.0,-0.5153,-0.5377,0.0,-0.3581,0.0,-0.3861,-0.3346,-0.3569,0.0,0.0,-0.5514,-0.6397,-0.7168,-0.7363,-0.7712,-0.8301,-0.8513,-0.9211,-1.0317,-1.1273,-1.1904,-1.2199,-1.2783,-1.3416,-1.4086,-1.471,-1.5163,-1.5454,-1.6232,-1.687,-1.7368,-1.8252,-1.9118,-1.9932,-1.939,-1.9607,-2.0112,-1.9553,-1.9497,-1.9457,0.0,0.0,0.0,0.0,0.0,0.0,0.0,0.0,0.0,0.0,0.0,0.0,0.0,0.0,0.0,0.0,0.0,0.0,0.0,0.0,0.0,0.0,0.0,0.0,0.0,0.0,0.0,0.0,0.0,0.0,1.0028,1.112,1.2202,1.3209,1.4794,1.5972,1.6701,1.5967,0.0,0.0,0.0,0.0,0.0,0.0,0.0,0.0,0.0,0.0,0.0,0.0,0.0,0.6507,0.5567,0.5044,0.4816,0.4871,0.0,0.3906,0.3673,0.304,0.2119,0.0799,-0.0178,-0.1129,-0.2408,-0.2904,-0.3262,-0.39,-0.4172,0.0,0.0,0.0,0.0,0.0,0.0,0.0,-0.4277,-0.4131,-0.3857,0.0,-0.3307,0.0,-0.2945,-0.3075,-0.3268,0.0,-0.4394,-0.5241,-0.6092,-0.6157,-0.6471,-0.7182,-0.7231,-0.7908,-0.9318,-1.0089,-1.0581,-1.0872,-1.1472,-1.2073,-1.2745,-1.3375,-1.3846,-1.4239,0.0,-1.5728,-1.6451,-1.7313,-1.8324,-1.9301,-1.9348,-1.9699,-2.0162,-1.9668,-1.89,-1.7688,0.0,0.0,0.0,0.0,0.0,0.0,0.0,0.0,0.0,0.0,0.0,0.0,0.0,0.0,0.0,0.0,0.0,0.0,0.0,0.0,0.0,0.0,0.0,0.0,0.0,0.0,0.0,0.0,0.0,0.0,0.0,0.0,0.0,0.0,0.0,0.0,0.0,0.0,0.0,0.0,0.0,0.0,0.0,0.0,0.0,0.0,0.0,0.0,0.0,0.0,0.6812,0.6495,0.5659,0.5567,0.5739,0.5553,0.5186,0.49,0.4788,0.4338,0.3535,0.1992,0.1471,0.072,-0.154,-0.1983,-0.2249,-0.3174,0.0,-0.3507,-0.3588,0.0,-0.3234,-0.3265,0.0,-0.2319,-0.3175,-0.2532,-0.2262,-0.2928,-0.2678,-0.2409,-0.2544,-0.2487,-0.2671,-0.3135,-0.3602,-0.4151,-0.4814,-0.4994,-0.529,-0.5817,-0.6142,-0.6769,-0.7833,-0.8625,-0.9275,-0.968,-1.0277,-1.0889,-1.158,-1.2231,-1.2715,-1.3155,-1.3799,-1.4676,-1.5568,-1.6418,-1.7451,-1.8598,-1.9791,-2.0178,-2.0074,-2.0101,-1.8074,-1.4772,0.0,0.0,0.0,0.0,0.0,0.0,0.0,0.0,0.0,0.0,0.0,0.0,0.0,0.0,0.0,0.0,0.0,0.0,0.0,0.0,0.0,0.0,0.0,0.0,0.0,0.0,0.0,0.0,0.8613,0.0,0.0,0.0,0.0,0.0,0.0,0.0,0.0,0.0,0.0,0.0,0.0,0.0,0.0,0.0,0.0,0.0,0.0,0.0,0.0,0.0,0.6738,0.6601,0.611,0.5564,0.529,0.5894,0.5751,0.5401,0.5393,0.5216,0.4613,0.3037,0.2009,0.1021,-0.0311,-0.1027,0.0,0.0,0.0,-0.2764,-0.3078,-0.2979,0.0,-0.2951,0.0,0.0,0.0,0.0,-0.1632,0.0,0.0,0.0,0.0,0.0,0.0,0.0,0.0,-0.213,-0.3521,-0.3913,-0.4391,-0.506,-0.5893,-0.6294,-0.6351,-0.7337,-0.8059,-0.858,-0.8678,-0.9304,-1.0305,-1.0332,-1.062,-1.1165,-1.2541,0.0,-1.37,-1.5004,-1.6059,-1.6963,-1.7623,-1.8045,-1.8245,-1.8139,-1.5071,-1.0454,0.0,0.0,0.0,0.0,0.0,0.0,0.0,0.0,0.0,0.0,1.208,0.0,0.0,0.0,0.0,0.0,0.0,0.0,0.0,0.0,0.0,0.0,0.0,0.0,0.0,0.8318,0.8643,0.8071,0.0,1.0041,0.962,0.9819,0.9887,0.9914,1.0492,0.0,0.0,0.0,0.0,0.0,0.0,0.0,0.0,0.0,0.0,0.0,0.0,0.0,0.0,0.0,0.6187,0.5735,0.5912,0.5684,0.5445,0.6018,0.6021,0.5937,0.6051,0.6183,0.5804,0.4375,0.3371,0.2395,0.0928,0.0,0.0,0.0,-0.159,-0.1827,-0.2275,0.0,0.0,0.0,0.0,0.0,0.0,0.0,0.0,0.0,0.0,0.0,0.0,0.0,0.0,0.0,0.0,-0.0822,-0.1988,-0.2433,-0.2763,-0.3028,-0.4154,-0.4646,-0.4492,-0.5981,-0.6679,-0.6655,-0.727,-0.7919,-0.8482,-0.8587,-0.894,-0.9555,-1.0612,0.0,-1.1853,-1.3455,-1.4529,-1.5277,-1.6171,-1.4719,-1.2161,-1.2042,-0.7818,-0.1755,0.0,0.0,0.0,0.0,0.0,0.0,0.0,1.4132,1.4175,1.4377,1.4063,1.3182,1.1593,1.0424,0.0,0.0,0.0,0.0,0.0,0.0,0.0,0.0,0.0,0.0,0.0,0.0,0.0,0.8388,1.0252,0.0,0.0,0.0,0.0,0.0,0.9688,0.9933,1.0128,0.0,0.0,0.0,0.0,0.0,0.0,0.0,0.0,0.0,0.0,0.0,0.0,0.0,0.5741,0.5077,0.5475,0.5592,0.5659,0.595,0.6191,0.634,0.6585,0.6841,0.6738,0.5418,0.4616,0.3704,0.1854,0.1042,0.0,0.0,-0.0669,-0.0875,-0.1401,0.0,0.0,0.0,0.0,0.0,0.0,0.0,0.0,0.0,0.0,0.0,0.0,0.0,0.0,0.0,0.0,0.0,-0.082,-0.108,-0.1259,-0.1274,-0.2428,-0.3042,-0.2887,-0.4672,-0.5275,-0.4792,-0.585,-0.6489,-0.6725,-0.6891,-0.7374,-0.8112,-0.8744,0.0,0.0,-1.1191,-1.1987,-1.1674,-1.2793,-1.0354,-0.6094,-0.5014,-0.0077,0.6375,0.0,0.0,0.0,0.0,0.0,0.0,0.0,1.4751,1.5578,1.5943,1.5916,1.5462,1.444,1.2979,0.0,0.0,0.0,0.0,0.0,0.0,0.0,0.0,0.0,0.0,0.0,0.0,0.0,0.9376,1.0059,0.0,0.0,0.0,0.0,0.0,0.0,0.8958,0.9658,0.9612,0.0,0.0,0.0,0.0,0.0,0.0,0.0,0.0,0.0,0.0,0.0,0.0,0.0,0.555,0.5064,0.5121,0.5418,0.5835,0.0,0.0,0.6903,0.7074,0.6848,0.5571,0.4931,0.41,0.2111,0.0,0.0,0.0189,-0.0049,-0.0151,-0.0453,-0.0518,0.0,0.0,0.0,0.076,0.0,0.0,0.0,0.0,0.0,0.0,0.0,0.0,0.0,0.0,0.0,0.0,-0.071,-0.0515,-0.0608,-0.1282,-0.1975,-0.231,-0.2278,-0.3444,-0.3897,-0.3675,-0.4397,-0.501,-0.5458,-0.537,-0.5869,-0.6799,-0.7422,0.0,0.0,-0.7364,-0.7298,-0.3735,-0.4507,-0.4387,-0.3238,0.0931,0.561,0.994,0.0,0.0,0.0,0.0,0.0,0.0,0.0,1.5012,1.5582,1.6382,1.6139,1.5845,1.5841,1.4691,0.0,0.0,0.0,0.0,0.0,0.0,0.0,0.0,0.0,0.0,0.0,0.0,0.0,0.9798,1.0877,0.0,0.0,0.0,0.0,0.0,0.0,0.931,0.9579,0.0,0.0,0.0,0.0,0.0,0.0,0.0,0.0,0.0,0.0,0.0,0.0,0.0,0.0,0.0,0.5129,0.505,0.0,0.0,0.5831,0.6161,0.6547,0.6853,0.6857,0.6052,0.5312,0.4502,0.3391,0.0,0.2135,0.1456,0.1046,0.0654,0.0101,0.0259,0.0417,0.0343,0.0,0.0,0.0,0.0,0.0,0.0,0.0,0.0,0.0,0.0,0.0,0.0,0.0,0.0,0.149,0.109,0.0861,0.0796,-0.0623,-0.1109,-0.0436,-0.2226,-0.279,-0.2075,-0.3151,-0.3825,-0.4021,-0.1092,-0.0287,-0.0946,0.1516,0.0,0.0,0.1959,0.1709,0.3185,0.2789,0.4743,0.7981,0.9555,1.3112,1.7009,0.0,0.0,0.0,0.0,0.0,0.0,1.4703,1.5082,1.5561,1.6653,1.632,1.6229,1.6861,1.5829,1.4734,1.3799,0.0,0.0,0.0,0.0,0.0,0.0,0.0,0.0,0.0,0.0,0.0,1.065,1.1646,1.1611,0.0,0.0,1.0589,0.9793,0.0,0.0,0.0,0.0,0.0,0.0,0.0,0.0,0.0,0.0,0.0,0.0,0.0,0.0,0.0,0.0,0.0,0.0,0.0,0.0,0.0,0.0,0.5408,0.5775,0.6136,0.6511,0.6666,0.617,0.5483,0.4772,0.0,0.0,0.2956,0.2439,0.1927,0.1488,0.1054,0.113,0.1334,0.1458,0.0,0.2477,0.0,0.0,0.0,0.0,0.0,0.0,0.0,0.0,0.0,0.0,0.0,0.0,0.3493,0.2633,0.2159,0.2162,0.0601,0.0194,0.1069,-0.081,-0.1247,-0.0237,-0.1714,-0.2507,-0.2578,0.1952,0.354,0.3022,0.7603,0.0,0.0,0.9024,0.8814,1.0045,0.9807,1.2046,1.5527,1.6475,1.8699,2.1081,0.0,0.0,0.0,0.0,0.0,0.0,0.0,1.4906,1.5782,1.6848,1.6814,1.6936,1.7629,1.6412,1.5906,1.6683,0.0,0.0,0.0,0.0,0.0,0.0,0.0,0.0,0.0,0.0,0.0,0.0,1.2236,1.204,1.1587,1.1165,1.0753,1.0289,0.0,0.0,0.0,0.0,0.0,0.0,0.0,0.0,0.0,0.0,0.0,0.0,0.0,0.0,0.0,0.0,0.0,0.0,0.0,0.0,0.5832,0.0,0.5194,0.5657,0.5848,0.6022,0.6129,0.5705,0.5348,0.4888,0.0,0.0,0.3471,0.3009,0.247,0.2211,0.2492,0.2109,0.1959,0.2749,0.3006,0.0,0.0,0.0,0.0,0.0,0.0,0.0,0.0,0.0,0.0,0.0,0.0,0.0,0.4861,0.3965,0.3034,0.2044,0.1614,0.1579,0.2001,0.0979,0.0911,0.1756,0.0099,-0.0921,-0.1158,0.2905,0.4187,0.3358,0.0,0.0,0.0,1.1913,1.257,1.6971,1.6713,1.6312,1.6386,2.0521,2.1387,2.0369,0.0,0.0,0.0,0.0,0.0,0.0,0.0,1.3764,1.4298,1.5371,1.5117,1.545,1.7042,1.6164,1.5991,1.7305,0.0,0.0,0.0,0.0,0.0,0.0,0.0,0.0,0.0,0.0,0.0,0.0,0.0,0.0,1.2491,1.2404,1.2098,1.164,1.0852,0.0,0.0,0.0,0.0,0.0,0.0,0.0,0.0,0.0,0.0,0.0,0.0,0.0,0.0,0.0,0.0,0.0,0.0,0.0,0.0,0.5786,0.5884,0.6034,0.5617,0.575,0.5993,0.5792,0.5379,0.5031,0.4913,0.0,0.4058,0.3475,0.3172,0.283,0.2326,0.2412,0.2689,0.3284,0.3704,0.0,0.0,0.0,0.0,0.0,0.0,0.0,0.0,0.0,0.0,0.0,0.0,0.0,0.4952,0.4927,0.4488,0.346,0.2488,0.2391,0.3161,0.2138,0.157,0.154,0.3094,0.3585,0.3378,1.0497,1.3705,0.0,0.0,0.0,0.0,2.0991,2.1117,2.2437,2.1842,2.1265,2.0851,2.162,2.1246,2.0211,0.0,0.0,0.0,0.0,0.0,0.0,0.0,1.3436,1.3765,1.4687,1.4528,1.5051,1.6955,1.6322,1.6411,1.7974,0.0,0.0,0.0,0.0,0.0,0.0,0.0,0.0,0.0,0.0,0.0,0.0,0.0,0.0,0.0,0.0,0.0,1.2217,1.1491,0.0,0.0,0.0,0.0,0.0,0.0,0.0,1.0891,0.0,0.0,0.0,0.0,0.0,0.0,0.0,0.0,0.0,0.0,0.0,0.0,0.0,0.6831,0.688,0.0,0.5865,0.6085,0.5942,0.5649,0.0,0.0,0.0,0.4657,0.4051,0.37,0.3381,0.3026,0.2999,0.3344,0.4201,0.4418,0.0,0.0,0.0,0.0,0.0,0.0,0.0,0.0,0.0,0.0,0.0,0.0,0.0,0.5754,0.5892,0.5625,0.4925,0.3906,0.3719,0.4439,0.3426,0.3321,0.4165,0.5981,0.7119,0.7856,1.5102,1.8429,0.0,0.0,0.0,0.0,2.5118,2.4833,2.4281,2.3949,2.3414,2.2702,2.1786,2.0879,2.0024,0.0,0.0,0.0,0.0,0.0,0.0,0.0,0.0,0.0,0.0,1.4762,1.543,1.714,1.6753,1.7052,0.0,0.0,0.0,0.0,0.0,0.0,0.0,0.0,0.0,0.0,0.0,0.0,1.4122,1.3726,1.3826,1.4382,0.0,0.0,0.0,0.0,0.0,0.0,0.0,0.0,0.0,0.0,0.0,0.0,0.0,0.0,0.0,0.0,0.0,0.0,0.0,0.0,0.0,0.0,0.0,0.0,0.0,0.0,0.0,0.0,0.0,0.0,0.0,0.0,0.0,0.0,0.0,0.0,0.4696,0.4121,0.3893,0.4354,0.3849,0.3874,0.5372,0.0,0.0,0.0,0.0,0.0,0.0,0.0,0.0,0.0,0.0,0.0,0.0,0.0,0.0,0.7063,0.6797,0.6573,0.6398,0.5754,0.5508,0.5653,0.4792,0.5767,0.8577,0.8718,0.9905,1.2186,1.7255,1.935,0.0,0.0,0.0,0.0,2.4946,2.4411,2.3285,2.3529,2.3155,2.2307,2.1162,2.0403,1.9814,0.0,0.0,0.0,0.0,0.0,0.0,0.0,0.0,0.0,0.0,0.0,1.452,1.6304,1.6395,0.0,0.0,0.0,0.0,0.0,0.0,0.0,0.0,0.0,0.0,0.0,0.0,0.0,1.3279,1.428,1.5052,1.5508,1.5192,0.0,0.0,0.0,0.0,0.0,0.0,0.0,0.0,0.0,0.0,0.0,0.0,0.0,0.0,1.0718,1.0438,0.0,0.0,0.0,0.0,0.0,0.0,0.0,0.0,0.8521,0.8203,0.7591,0.0,0.6606,0.6563,0.6349,0.0,0.0,0.0,0.0,0.0,0.0,0.0,0.0,0.0,0.0,0.0,0.0,0.0,0.0,0.0,0.0,0.0,0.0,0.0,0.0,0.0,0.0,0.0,0.0,0.7447,0.7402,0.773,0.8039,0.8278,0.8278,0.7376,0.5389,0.5178,0.5854,0.7449,1.0738,1.3593,1.6126,2.0879,2.3332,0.0,0.0,0.0,2.485,2.4143,2.3791,2.3695,2.32,2.2608,2.1871,2.0537,2.0077,1.9908,0.0,0.0,0.0,0.0,0.0,0.0,0.0,0.0,0.0,0.0,0.0,0.0,0.0,0.0,0.0,0.0,0.0,0.0,0.0,0.0,0.0,0.0,0.0,0.0,0.0,0.0,0.0,0.0,0.0,1.5616,0.0,0.0,0.0,0.0,0.0,0.0,0.0,0.0,0.0,0.0,1.1463,0.0,0.0,0.0,0.0,0.0,1.0654,1.0583,0.0,1.0011,0.9839,0.9765,0.0,0.0,0.0,0.0,0.8967,0.8683,0.8079,0.7713,0.7439,0.7052,0.6902,0.6786,0.0,0.0,0.0,0.0,0.0,0.0,0.0,0.0,0.0,0.0,0.0,0.0,0.0,0.0,0.0,0.0,0.0,0.0,0.0,0.0,0.0,0.0,0.0,0.896,0.8998,0.9108,0.9363,0.977,0.9896,0.9449,0.8296,0.8085,0.9382,1.2231,1.4861,1.7652,2.0593,2.3137,2.4485,0.0,0.0,0.0,2.3912,2.3779,2.3508,2.3125,2.2779,2.2279,2.1556,2.027,1.9668,1.928,0.0,0.0,0.0,0.0,0.0,0.0,0.0,0.0,0.0,0.0,0.0,0.0,0.0,0.0,0.0,0.0,0.0,0.0,0.0,0.0,0.0,0.0,0.0,0.0,0.0,0.0,0.0,0.0,0.0,0.0,0.0,0.0,1.5903,0.0,0.0,0.0,0.0,0.0,0.0,0.0,1.2113,0.0,0.0,0.0,0.0,0.0,0.0,0.0,0.0,0.9933,0.9861,1.0099,1.0108,0.0,0.0,0.0,0.0,0.0,0.8375,0.8432,0.852,0.7623,0.7454,0.7385,0.0,0.0,0.0,0.0,0.0,0.0,0.0,0.0,0.0,0.0,0.0,0.0,0.0,0.0,0.0,0.0,0.0,0.0,0.0,0.0,0.0,0.0,0.0,1.0743,1.0918,1.0588,1.0644,1.119,1.1202,1.1659,1.2648,1.1699,1.352,1.7989,1.8808,2.0915,2.4088,2.4405,2.4422,2.4165,0.0,0.0,2.2873,2.3468,2.3197,2.2414,2.2418,2.2034,2.1364,2.0193,1.9352,1.8713,0.0,0.0,0.0,0.0,0.0,0.0,0.0,0.0,0.0,0.0,0.0,0.0,0.0,0.0,0.0,0.0,0.0,0.0,0.0,0.0,0.0,0.0,0.0,0.0,0.0,0.0,0.0,0.0,0.0,0.0,1.7084,1.7815,1.6962,1.4828,0.0,0.0,0.0,0.0,0.0,0.0,0.0,0.0,0.0,0.0,0.0,0.0,0.0,0.0,0.0,1.0141,1.0061,1.0148,1.0132,0.0,0.0,0.0,0.0,0.0,0.8983,0.9301,0.954,0.8237,0.7706,0.747,0.0,0.0,0.0,0.0,0.0,0.0,0.0,0.0,0.0,0.0,0.0,0.0,0.0,0.0,0.0,0.0,0.0,0.0,0.0,0.0,0.0,0.0,0.0,1.0993,1.1549,1.1614,1.2083,1.3044,1.3027,1.4151,1.6506,1.3428,1.3434,1.6541,1.8343,2.0549,2.3075,2.4562,2.5151,2.4933,0.0,2.341,2.4231,2.2582,2.2345,2.2917,2.2317,2.1836,2.1334,2.0036,1.9661,1.9682,0.0,0.0,0.0,0.0,0.0,0.0,0.0,0.0,0.0,0.0,0.0,0.0,0.0,0.0,0.0,0.0,0.0,0.0,0.0,0.0,0.0,0.0,0.0,0.0,0.0,0.0,0.0,0.0,0.0,1.8345,1.8036,1.7579,1.6742,1.5529,0.0,0.0,0.0,0.0,0.0,0.0,0.0,0.0,0.0,0.0,0.0,0.0,0.0,0.0,0.0,0.0,1.0509,1.0732,1.0833,0.0,0.0,0.0,0.0,0.0,0.8802,0.8844,0.8977,0.8336,0.8257,0.821,0.0,0.0,0.0,0.0,0.0,0.0,0.0,0.0,0.0,0.0,0.0,0.0,0.0,0.0,0.0,0.0,0.0,0.0,0.0,0.0,0.0,0.0,0.0,0.0,1.1992,1.2299,1.2685,1.3263,1.4183,1.5453,1.7063,1.6111,1.679,1.9135,2.0609,2.2103,2.3578,2.4397,2.4641,2.4358,0.0,2.2714,2.298,2.1698,2.1292,2.1465,2.1222,2.0828,2.0321,1.9364,1.8867,1.8579,0.0,0.0,0.0,0.0,0.0,0.0,0.0,0.0,0.0,0.0,0.0,0.0,0.0,0.0,0.0,0.0,0.0,0.0,0.0,0.0,0.0,0.0,0.0,0.0,0.0,0.0,1.8742,1.9113,1.9627,1.9574,1.8921,1.7255,1.6326,0.0,0.0,0.0,0.0,0.0,0.0,0.0,0.0,0.0,0.0,0.0,0.0,0.0,0.0,0.0,0.0,0.0,0.0,0.0,0.0,0.0,0.0,0.9894,0.959,0.9456,0.8639,0.8524,0.8586,0.8322,0.0,0.0,0.0,0.0,0.0,0.0,0.0,0.0,0.0,0.0,0.0,0.0,0.0,0.0,0.0,0.0,0.0,0.0,0.0,0.0,0.0,0.0,0.0,0.0,0.0,0.0,1.2581,1.294,1.3248,1.3515,1.5055,1.6287,1.7042,1.8161,1.9561,2.1262,2.2273,2.306,2.3575,2.3782,2.3736,2.3419,2.2512,2.1939,2.162,2.0906,2.0425,2.015,2.0312,2.0124,1.9699,1.9026,1.8345,1.7754,0.0,0.0,0.0,0.0,0.0,0.0,0.0,0.0,0.0,0.0,0.0,0.0,0.0,0.0,0.0,0.0,0.0,0.0,0.0,0.0,0.0,0.0,0.0,0.0,0.0,2.0353,2.048,1.9751,2.1424,2.1295,1.9401,1.7434,1.6354,1.6042,0.0,0.0,0.0,0.0,0.0,0.0,0.0,0.0,0.0,0.0,0.0,0.0,0.0,0.0,0.0,0.0,0.0,0.0,0.0,0.0,1.0047,0.9638,0.9594,0.9568,0.9014,0.9232,0.9379,0.8438,0.0,0.0,0.0,0.0,0.0,0.0,0.0,0.0,0.0,0.0,0.0,0.0,0.0,0.0,0.0,0.0,0.0,0.0,0.0,0.0,0.0,0.0,0.0,0.0,0.0,0.0,1.337,1.3665,1.4124,1.4751,1.5688,1.6697,1.7808,1.8469,1.9272,2.0223,2.1289,2.1756,2.1713,2.2532,2.2747,2.2458,2.1582,2.1349,2.1497,2.0293,1.9969,2.0281,2.0228,2.0429,2.0583,1.9615,1.9049,1.8638,0.0,0.0,0.0,0.0,0.0,0.0,0.0,0.0,0.0,0.0,0.0,0.0,0.0,0.0,0.0,0.0,0.0,0.0,0.0,0.0,0.0,0.0,0.0,1.7912,1.8408,1.97,2.0602,2.1131,2.0953,2.0106,1.855,1.7347,0.0,0.0,0.0,0.0,0.0,0.0,1.5329,1.5165,1.4984,0.0,0.0,0.0,0.0,0.0,0.0,0.0,0.0,0.0,1.153,1.1003,1.1349,1.1113,1.0614,1.038,0.9956,0.9406,0.8622,0.8649,0.8717,0.8017,0.0,0.0,0.0,0.0,0.0,0.0,0.0,0.0,0.0,0.0,0.0,0.0,0.0,0.0,0.0,0.0,0.0,0.0,0.0,0.0,0.0,0.0,0.0,0.0,0.0,0.0,1.3646,1.3935,1.4582,1.568,1.6679,1.7584,1.8403,1.9291,1.9951,2.0352,2.1308,2.1686,2.1598,2.2344,2.2518,2.2152,2.1195,2.0707,2.0444,1.9294,1.872,1.8562,1.8605,1.8997,1.9443,1.9081,1.8724,1.8351,0.0,0.0,0.0,0.0,0.0,0.0,0.0,0.0,0.0,0.0,0.0,0.0,0.0,0.0,0.0,0.0,0.0,0.0,0.0,0.0,0.0,0.0,0.0,1.7881,1.8107,1.9297,2.0315,2.1154,2.0099,1.9049,1.8091,0.0,0.0,0.0,0.0,0.0,0.0,0.0,1.5996,1.5769,1.5637,1.4757,0.0,0.0,0.0,0.0,0.0,0.0,0.0,0.0,1.2337,1.1677,1.1896,1.1363,1.0616,1.0398,0.9799,0.9051,0.8384,0.8324,0.8343,0.0,0.0,0.0,0.0,0.0,0.0,0.0,0.0,0.0,0.0,0.0,0.0,0.0,0.0,0.0,0.0,0.0,0.0,0.0,0.0,0.0,0.0,0.0,0.0,0.0,0.0,0.0,0.0,1.4022,1.4649,1.5655,1.6737,1.752,1.7992,1.9254,1.9814,1.9686,2.0814,2.1308,2.1201,2.1606,2.1604,2.1269,2.0515,1.9911,1.9356,1.8603,1.8007,1.7592,1.7531,1.8084,1.8894,1.8672,1.8557,1.8436,0.0,0.0,0.0,0.0,0.0,0.0,0.0,0.0,0.0,0.0,0.0,0.0,0.0,0.0,0.0,0.0,0.0,0.0,0.0,0.0,0.0,0.0,0.0,1.8771,1.8773,1.9496,1.9788,1.9605,1.9052,1.8634,1.8283,1.7418,0.0,0.0,0.0,0.0,0.0,0.0,1.6581,1.6425,1.6425,1.5772,1.4781,0.0,0.0,0.0,0.0,0.0,0.0,0.0,1.217,1.1348,1.0418,0.9944,0.9658,0.9393,0.8949,0.8487,0.8426,0.8475,0.8499,0.0,0.0,0.0,0.0,0.0,0.0,0.0,0.0,0.0,0.0,0.0,0.0,0.0,0.0,0.0,0.0,0.0,0.0,0.0,0.0,0.0,0.0,0.0,0.0,0.0,0.0,0.0,0.0,1.3934,1.4259,1.4629,1.5648,1.6299,1.651,1.8153,1.8625,1.793,1.9584,2.0357,2.0274,2.0099,1.985,1.958,1.9382,1.8942,1.8395,1.8252,1.8027,1.7745,1.7277,1.8038,1.9321,1.8565,1.868,1.9058,0.0,0.0,0.0,0.0,0.0,0.0,0.0,0.0,0.0,0.0,0.0,0.0,0.0,0.0,0.0,0.0,0.0,0.0,0.0,0.0,0.0,0.0,0.0,0.0,0.0,0.0,1.8297,1.9463,1.9107,1.8646,0.0,0.0,0.0,1.7213,0.0,0.0,0.0,0.0,1.6789,1.6815,1.6773,1.6292,1.5589,0.0,0.0,0.0,0.0,0.0,0.0,0.0,0.0,0.0,1.265,1.1761,1.0827,1.1549,1.0886,0.9774,0.92,0.9279,0.0,0.0,0.0,0.0,0.0,0.0,0.0,0.0,0.0,0.0,0.0,0.0,0.0,0.0,0.0,0.0,0.0,0.0,0.0,0.0,0.0,0.0,0.0,0.0,0.0,0.0,0.0,0.0,0.0,1.3076,1.3854,1.6545,1.585,1.6094,1.7479,1.8027,1.8156,1.7913,1.8986,1.9455,1.94,1.9716,1.9619,1.9176,1.901,1.8662,1.8163,1.7738,1.7411,1.7193,1.7277,1.773,1.837,1.8624,1.8579,1.833,0.0,0.0,0.0,0.0,0.0,0.0,0.0,0.0,0.0,0.0,1.4417,0.0,0.0,0.0,0.0,0.0,0.0,0.0,0.0,0.0,0.0,0.0,0.0,0.0,0.0,1.6961,1.7314,0.0,0.0,0.0,0.0,0.0,0.0,1.7658,0.0,1.7828,0.0,0.0,1.7167,1.7167,1.7101,1.6841,1.6475,0.0,0.0,0.0,0.0,0.0,0.0,0.0,0.0,0.0,1.3324,1.2331,1.1211,1.1637,1.0958,0.9889,0.9156,0.0,0.0,0.0,0.0,0.0,0.0,0.0,0.0,0.0,0.0,0.0,0.0,0.0,0.0,0.0,0.0,0.0,0.0,0.0,0.0,0.0,0.0,0.0,0.0,0.0,0.0,0.0,0.0,0.0,0.0,1.2576,1.3352,1.5948,1.5134,1.5387,1.6881,1.7609,1.7569,1.682,1.8631,1.9095,1.8393,1.933,1.9479,1.8974,1.8589,1.829,1.7988,1.7415,1.7002,1.6769,1.6834,1.7257,1.7809,1.8049,1.8108,1.8108,0.0,0.0,0.0,0.0,0.0,0.0,0.0,0.0,0.0,0.0,1.4496,1.5044,0.0,0.0,0.0,0.0,0.0,0.0,0.0,0.0,0.0,0.0,0.0,0.0,0.0,0.0,0.0,0.0,0.0,0.0,0.0,0.0,1.7945,1.8502,0.0,1.8518,1.8302,1.788,1.7595,1.7432,1.7432,1.7408,1.7344,1.706,0.0,0.0,0.0,0.0,0.0,0.0,0.0,0.0,1.2957,1.2024,1.1173,1.0592,1.0005,0.9384,0.8738,0.0,0.0,0.0,0.0,0.0,0.0,0.0,0.0,0.0,0.0,0.0,0.0,0.0,0.0,0.0,0.0,0.0,0.0,0.0,0.0,0.0,0.0,0.0,0.0,0.0,0.0,0.0,0.0,0.0,0.0,1.2157,1.266,1.3668,1.3827,1.4336,1.5273,1.6867,1.6821,1.5264,1.8363,1.9011,1.7518,1.9005,1.9392,1.8894,1.8191,1.7861,1.7816,1.7216,1.6773,1.6448,1.6268,1.6728,1.7445,1.7229,1.7568,1.8118,0.0,0.0,0.0,0.0,0.0,0.0,0.0,0.0,0.0,0.0,0.0,0.0,0.0,0.0,0.0,0.0,0.0,0.0,0.0,0.0,0.0,0.0,0.0,0.0,0.0,0.0,0.0,0.0,0.0,0.0,0.0,0.0,0.0,1.784,0.0,1.8358,1.7836,1.7731,1.7704,1.7704,1.7772,1.7794,1.7732,1.7462,1.7344,0.0,0.0,0.0,0.0,0.0,0.0,0.0,1.3352,1.2582,1.2024,1.2194,1.1414,1.0407,0.0,1.018,0.0,0.0,0.0,0.0,0.0,0.0,0.0,0.0,0.0,0.0,0.0,0.0,0.0,0.0,0.0,0.0,0.0,0.0,0.0,0.0,0.0,0.0,0.0,0.0,0.0,0.0,0.0,0.0,1.1449,1.0914,1.1316,1.2889,1.3029,1.3476,1.4372,1.5307,1.5893,1.6119,1.7291,1.7896,1.8062,1.8975,1.9038,1.8432,1.7936,1.7602,1.7392,1.7018,1.6659,1.6375,1.6692,1.6712,1.6705,1.7768,1.7726,1.7204,0.0,0.0,0.0,0.0,0.0,0.0,0.0,0.0,0.0,0.0,0.0,0.0,0.0,0.0,0.0,0.0,0.0,0.0,0.0,0.0,0.0,0.0,0.0,0.0,0.0,0.0,0.0,0.0,0.0,0.0,0.0,0.0,0.0,1.7675,0.0,1.8394,1.7794,1.7794,1.7816,1.7917,1.7922,1.7944,1.7922,1.7794,1.7681,1.7589,1.7408,0.0,0.0,0.0,0.0,0.0,0.0,0.0,1.2506,1.2403,1.1788,1.0977,0.0,0.0,0.0,0.0,0.0,0.0,0.0,0.0,0.0,0.0,0.0,0.0,0.0,0.0,0.0,0.0,0.0,0.0,0.0,0.0,0.0,0.0,0.0,0.0,0.0,0.0,0.0,0.0,0.0,1.0173,1.0699,1.0753,1.1378,1.2711,1.3164,1.3799,1.4678,1.5435,1.5759,1.5651,1.6725,1.7455,1.7881,1.8598,1.8735,1.8368,1.7866,1.7526,1.7337,1.6926,1.6581,1.6359,1.6521,1.6533,1.6549,1.7403,1.7426,1.7066,0.0,0.0,0.0,0.0,0.0,0.0,0.0,0.0,0.0,0.0,0.0,0.0,0.0,0.0,0.0,0.0,0.0,0.0,0.0,0.0,0.0,0.0,0.0,0.0,0.0,0.0,0.0,0.0,0.0,0.0,0.0,0.0,0.0,1.7766,0.0,1.8392,1.7971,1.7971,1.8014,1.8095,1.8134,1.8113,1.807,1.807,0.0,1.7732,1.7749,1.7749,1.7575,1.6453,0.0,0.0,0.0,0.0,1.2973,1.2436,1.1921,1.1348,0.0,0.0,0.0,0.0,0.0,0.0,0.0,0.0,0.0,0.0,0.0,0.0,0.0,0.0,0.0,0.0,0.0,0.0,0.0,0.0,0.0,0.0,0.0,0.0,0.0,0.0,0.0,0.0,0.0,1.0043,1.0115,1.0845,1.1608,1.2323,1.3294,1.4065,1.4626,1.5845,1.5892,1.4803,1.6415,1.7233,1.7363,1.7965,1.829,1.8345,1.78,1.7479,1.7288,1.6876,1.6554,1.6316,1.6179,1.6201,1.6406,1.6814,1.7001,1.7157,0.0,0.0,0.0,0.0,0.0,0.0,0.0,0.0,0.0,0.0,1.5575,0.0,0.0,0.0,0.0,0.0,0.0,0.0,0.0,0.0,0.0,0.0,0.0,0.0,0.0,0.0,0.0,0.0,0.0,0.0,0.0,0.0,0.0,1.7883,0.0,0.0,1.8249,1.8249,1.8351,1.8508,1.8566,1.8506,1.8345,0.0,0.0,0.0,0.0,1.8345,1.8139,1.6469,1.6192,0.0,0.0,0.0,1.3848,1.3749,1.2846,1.181,0.0,0.0,0.0,0.0,0.0,0.0,0.0,0.0,0.0,0.0,0.0,0.0,0.0,0.0,0.0,0.0,0.0,0.0,0.0,0.0,0.0,0.0,0.0,0.0,0.0,0.0,0.0,0.0,1.0105,1.0115,1.0176,1.032,1.0428,1.054,1.2124,1.2639,1.1933,1.4845,1.5784,1.4738,1.6054,1.6667,1.6661,1.7098,1.7524,1.7878,1.7618,1.7337,1.7043,1.6866,1.6501,1.6052,1.6151,1.5829,1.5469,1.6815,1.6976,1.6673,0.0,0.0,0.0,0.0,0.0,0.0,0.0,0.0,0.0,0.0,0.0,1.5846,0.0,0.0,0.0,0.0,0.0,0.0,0.0,0.0,0.0,0.0,0.0,0.0,0.0,0.0,0.0,0.0,0.0,0.0,0.0,1.8447,1.8395,0.0,0.0,0.0,0.0,0.0,1.8604,1.8698,1.8753,1.8431,0.0,0.0,0.0,0.0,0.0,0.0,0.0,1.7329,1.7064,1.7045,1.5836,0.0,0.0,0.0,1.4175,0.0,0.0,0.0,0.0,0.0,0.0,0.0,0.0,0.0,0.0,0.0,0.0,0.0,0.0,0.0,0.0,0.0,0.0,0.0,0.0,0.0,0.0,0.0,0.0,0.0,0.0,0.0,0.0,0.0,1.0135,1.0173,1.0195,1.0664,1.0932,1.0927,1.2542,1.2962,1.2026,1.4339,1.5188,1.4526,1.4567,1.4949,1.5619,1.6131,1.674,1.7356,1.7411,1.7296,1.7052,1.6866,1.6581,1.6234,1.6222,1.587,1.5506,1.6393,1.6627,1.6597,0.0,0.0,0.0,0.0,0.0,0.0,0.0,0.0,0.0,0.0,0.0,0.0,0.0,0.0,0.0,0.0,0.0,0.0,0.0,0.0,0.0,0.0,0.0,0.0,0.0,0.0,0.0,0.0,0.0,0.0,1.8908,1.8557,1.8816,0.0,1.8723,0.0,0.0,0.0,0.0,0.0,0.0,0.0,0.0,0.0,0.0,0.0,0.0,0.0,0.0,0.0,0.0,0.0,0.0,0.0,0.0,0.0,0.0,0.0,0.0,0.0,0.0,0.0,0.0,0.0,0.0,0.0,0.0,0.0,0.0,0.0,0.0,0.0,0.0,0.0,0.0,0.0,0.0,0.0,0.0,0.0,0.0,0.0,0.0,0.0,0.0,0.0,1.0214,1.0212,1.0191,1.1022,1.1396,1.1188,1.2734,1.3022,1.1885,1.3184,1.4016,1.4338,1.3382,1.3606,1.4881,1.5465,1.6145,1.6881,1.7232,1.724,1.6986,1.6789,1.6611,1.6453,1.6355,1.6216,1.6082,1.6553,1.6804,1.7,0.0,0.0,0.0,0.0,0.0,0.0,0.0,0.0,0.0,0.0,0.0,0.0,0.0,0.0,0.0,1.7448,0.0,0.0,0.0,0.0,0.0,0.0,0.0,0.0,0.0,0.0,0.0,0.0,0.0,0.0,1.9992,1.9091,1.9218,2.0102,1.8924,1.8662,1.9082,0.0,0.0,0.0,0.0,0.0,0.0,0.0,0.0,0.0,0.0,0.0,0.0,0.0,0.0,0.0,0.0,0.0,0.0,0.0,0.0,0.0,0.0,0.0,0.0,0.0,0.0,0.0,0.0,0.0,0.0,0.0,0.0,0.0,0.0,0.0,0.0,0.0,0.0,0.0,0.0,0.0,0.0,0.0,0.0,0.0,0.0,0.0,0.0,0.0,1.0252,1.0271,1.0208,1.1024,1.1111,1.0299,1.1838,1.1847,1.015,1.0718,1.2091,1.4192,1.3196,1.3424,1.4727,1.5263,1.5886,1.6562,1.7096,1.7075,1.6722,1.6517,1.6491,1.659,1.6652,1.6899,1.7276,1.7885,1.8056,1.8094,0.0,0.0,0.0,0.0,0.0,0.0,0.0,0.0,0.0,0.0,0.0,0.0,0.0,1.7384,1.7502,1.7559,1.7658,0.0,0.0,0.0,0.0,0.0,0.0,0.0,0.0,0.0,0.0,0.0,0.0,1.9092,1.9381,1.9039,1.9177,1.9666,1.9107,1.9049,1.936,1.9375,0.0,0.0,0.0,0.0,0.0,0.0,0.0,0.0,0.0,0.0,0.0,0.0,0.0,0.0,0.0,0.0,0.0,0.0,0.0,0.0,0.0,0.0,0.0,0.0,0.0,0.0,0.0,0.0,0.0,0.0,0.0,0.0,0.0,0.0,0.0,0.0,0.0,0.0,0.0,0.0,0.0,0.0,0.0,0.0,0.0,0.0,0.0,0.0,0.0,1.0515,1.1019,1.1324,1.1318,1.0927,1.1962,1.2407,1.2118,1.116,1.1816,1.4056,1.256,1.2776,1.4517,1.5204,1.5841,1.6464,1.6873,1.7059,1.7083,1.7194,1.7221,1.7194,1.7239,1.7314,1.7353,1.7466,1.771,1.8029,0.0,0.0,0.0,0.0,0.0,0.0,0.0,0.0,0.0,0.0,0.0,0.0,0.0,0.0,1.7658,1.7658,1.7704,1.78,1.7975,1.7988,0.0,0.0,0.0,0.0,0.0,0.0,0.0,0.0,0.0,0.0,0.0,1.9166,1.9258,1.9469,1.9291,1.9323,0.0,0.0,0.0,1.9472,0.0,0.0,1.8783,0.0,0.0,0.0,0.0,0.0,0.0,0.0,0.0,0.0,0.0,0.0,0.0,0.0,0.0,0.0,0.0,0.0,0.0,0.0,0.0,0.0,0.0,0.0,0.0,0.0,0.0,0.0,0.0,0.0,0.0,0.0,0.0,0.0,0.0,0.0,0.0,0.0,0.0,0.0,0.0,0.0,0.0,0.0,0.0,0.0,1.2303,1.256,1.2626,1.2458,1.2411,1.2413,1.2464,1.1463,1.1824,1.3475,1.254,1.3139,1.5129,1.5593,1.6163,1.6785,1.6881,1.7018,1.714,1.7354,1.7492,1.7532,1.776,1.7895,1.7949,1.7838,1.8007,1.8331,0.0,0.0,0.0,0.0,0.0,0.0,0.0,0.0,0.0,0.0,0.0,0.0,0.0,0.0,0.0,1.7811,1.7833,1.7856,1.7939,1.7983,0.0,0.0,0.0,0.0,0.0,0.0,0.0,0.0,0.0,0.0,0.0,0.0,1.9532,1.9605,1.9532,1.9513,1.9513,0.0,1.9596,1.954,0.0,1.8989,1.9531,0.0,0.0,0.0,1.8655,1.8764,0.0,0.0,0.0,0.0,0.0,0.0,0.0,0.0,0.0,0.0,0.0,0.0,0.0,0.0,0.0,0.0,0.0,0.0,0.0,0.0,0.0,0.0,0.0,0.0,0.0,0.0,0.0,0.0,0.0,0.0,0.0,0.0,0.0,0.0,0.0,0.0,0.0,0.0,1.2814,1.3192,1.3996,1.4724,1.5014,1.4747,1.3151,1.1856,1.095,1.1506,1.2065,1.2612,1.3172,1.4508,1.6507,1.6431,1.6808,1.7489,1.7175,1.6933,1.6827,1.6976,1.7271,1.7709,1.817,1.8637,1.9101,1.9101,1.904,1.8993,0.0,0.0,0.0,0.0,0.0,0.0,0.0,0.0,0.0,0.0,0.0,0.0,0.0,0.0,0.0,1.8166,1.829,1.8638,1.924,1.8751,1.872,1.9343,1.8868,0.0,0.0,0.0,0.0,0.0,0.0,0.0,0.0,0.0,0.0,0.0,1.9741,1.9797,1.979,1.9656,0.0,0.0,1.8861,1.907,0.0,0.0,0.0,0.0,0.0,1.9752,1.9694,0.0,1.9403,1.9892,0.0,0.0,0.0,0.0,0.0,0.0,1.6032,0.0,0.0,0.0,0.0,0.0,1.4593,1.4293,1.4155,0.0,0.0,0.0,0.0,0.0,0.0,0.0,0.0,0.0,0.0,0.0,0.0,0.0,0.0,0.0,0.0,0.0,0.0,0.0,1.3344,1.4035,1.4883,1.5501,1.5733,1.5577,1.501,1.4507,1.4059,1.4114,1.4408,1.4865,1.4363,1.4956,1.6492,1.6487,1.6864,1.7491,1.7438,1.7226,1.6921,1.7497,1.8078,1.8646,1.8918,1.9104,1.9228,1.9139,1.9101,1.9078,0.0,0.0,0.0,0.0,0.0,0.0,0.0,0.0,0.0,0.0,0.0,0.0,0.0,0.0,0.0,1.8333,1.8529,1.8875,1.9395,1.9003,1.895,1.947,1.9076,0.0,0.0,0.0,0.0,0.0,0.0,0.0,0.0,0.0,0.0,0.0,0.0,0.0,0.0,0.0,0.0,0.0,1.9387,0.0,0.0,1.9516,1.9676,0.0,0.0,0.0,2.0062,1.8962,1.8916,0.0,0.0,0.0,0.0,0.0,0.0,0.0,0.0,0.0,0.0,0.0,0.0,0.0,1.4621,1.4171,1.3899,0.0,0.0,0.0,0.0,0.0,0.0,0.0,0.0,0.0,0.0,0.0,0.0,0.0,0.0,0.0,0.0,1.4637,1.4424,1.3881,1.4553,1.5484,1.6583,1.6601,1.6511,1.6281,1.5521,1.4989,1.4716,1.4879,1.5244,1.5754,1.546,1.5912,1.7009,1.6942,1.7226,1.7732,1.7338,1.7405,1.7833,1.7868,1.8135,1.8606,1.9188,1.9376,1.9302,1.9213,1.9139,1.9101,0.0,0.0,0.0,0.0,0.0,0.0,0.0,0.0,0.0,0.0,0.0,0.0,0.0,0.0,0.0,0.0,1.8681,1.8931,1.9217,1.918,0.0,0.0,1.9175,1.9102,0.0,0.0,0.0,0.0,0.0,0.0,0.0,0.0,0.0,0.0,0.0,0.0,0.0,0.0,0.0,2.0059,2.0088,2.0107,0.0,0.0,2.0178,0.0,2.0169,2.0276,2.0158,1.8547,1.7907,0.0,0.0,0.0,0.0,0.0,1.7287,0.0,0.0,0.0,0.0,0.0,0.0,0.0,1.4325,1.405,1.3974,1.3976,0.0,0.0,0.0,0.0,0.0,0.0,0.0,0.0,0.0,0.0,0.0,0.0,0.0,0.0,1.552,1.5457,1.5396,1.5414,1.6104,1.7112,1.8519,1.7914,1.7362,1.7026,1.5492,1.458,1.4392,1.4828,1.5365,1.5936,1.6492,1.7093,1.7759,1.7652,1.7757,1.8001,1.7214,1.7613,1.8726,1.8143,1.799,1.8208,1.917,1.9501,1.9339,1.9302,1.9213,1.9101,0.0,0.0,0.0,0.0,0.0,0.0,0.0,0.0,0.0,0.0,0.0,0.0,0.0,0.0,0.0,0.0,1.9274,1.9985,2.1324,2.0837,0.0,2.1464,2.0864,2.021,1.9592,2.0345,0.0,0.0,0.0,0.0,0.0,0.0,0.0,0.0,0.0,0.0,0.0,0.0,0.0,2.0321,2.0223,0.0,2.0192,2.0299,2.0346,2.0263,1.958,1.9786,2.0235,0.0,1.7877,1.7105,0.0,0.0,0.0,0.0,0.0,0.0,0.0,0.0,0.0,0.0,0.0,0.0,1.518,1.5114,1.5098,0.0,0.0,0.0,0.0,0.0,0.0,0.0,0.0,0.0,0.0,0.0,0.0,0.0,0.0,0.0,1.6294,1.5734,1.5563,1.6133,1.6823,1.7802,1.9146,1.9017,1.8757,1.841,1.7461,1.715,1.7533,1.7005,1.6971,1.7463,1.7545,1.7779,1.8178,1.8093,1.7967,1.782,1.8361,1.79,1.6901,1.8597,1.9336,1.9351,1.9419,1.9501,1.9501,1.9228,1.9176,1.9265,0.0,0.0,0.0,0.0,0.0,0.0,0.0,0.0,0.0,0.0,0.0,0.0,0.0,0.0,0.0,0.0,0.0,0.0,0.0,0.0,0.0,0.0,2.0746,2.0144,1.9818,2.0687,2.0982,2.0608,0.0,0.0,0.0,0.0,0.0,0.0,0.0,0.0,0.0,0.0,2.039,2.0388,2.0328,0.0,2.0153,2.0227,2.0257,2.0146,1.9258,1.8946,1.8995,1.925,1.861,0.0,0.0,1.8433,1.7981,0.0,1.7349,1.6188,0.0,0.0,0.0,1.6041,0.0,0.0,0.0,1.4757,1.487,1.5301,1.4898,0.0,0.0,0.0,0.0,0.0,0.0,0.0,0.0,0.0,0.0,0.0,0.0,0.0,1.6479,1.5792,1.5729,1.6774,1.7501,1.8303,1.9254,1.8867,1.8447,1.8111,1.7294,1.7274,1.8201,1.7438,1.7612,1.8708,1.8291,1.8286,1.8648,1.8621,1.8383,1.7997,1.813,1.7915,1.75,1.8365,1.9091,1.969,1.9581,1.9523,1.9501,1.9302,1.9228,1.9176,0.0,0.0,0.0,0.0,0.0,0.0,0.0,0.0,0.0,0.0,0.0,0.0,0.0,0.0,0.0,0.0,0.0,0.0,0.0,0.0,0.0,0.0,2.0596,2.02,2.0156,2.0877,2.1311,2.1435,2.1512,0.0,0.0,0.0,0.0,0.0,0.0,0.0,0.0,0.0,0.0,2.0457,0.0,2.0702,2.0403,2.0401,2.0304,2.0035,1.9081,1.8178,1.7678,1.9241,0.0,1.879,1.9071,1.9079,0.0,0.0,0.0,0.0,0.0,0.0,0.0,0.0,0.0,1.6053,0.0,0.0,0.0,1.5253,0.0,0.0,0.0,0.0,0.0,0.0,0.0,0.0,0.0,0.0,0.0,0.0,0.0,0.0,1.6628,1.6254,1.6387,1.7481,1.8041,1.8564,1.9107,1.8433,1.7858,1.7557,1.6867,1.7045,1.821,1.7543,1.7983,1.9518,1.8851,1.8735,1.9122,1.8949,1.8712,1.8408,1.7823,1.7927,1.8493,1.8208,1.8657,1.951,1.9645,1.9596,1.945,1.9413,1.9302,1.9139,1.605,1.6732,0.0,0.0,0.0,0.0,0.0,0.0,0.0,0.0,0.0,0.0,0.0,0.0,0.0,0.0,0.0,0.0,2.4073,0.0,0.0,0.0,0.0,0.0,2.1075,2.1318,2.1506,2.1586,2.1649,0.0,0.0,0.0,0.0,0.0,1.9558,0.0,0.0,0.0,2.0424,0.0,2.2103,2.2225,0.0,2.1517,2.1051,2.0219,1.8965,1.7969,1.7474,0.0,1.9136,1.8714,0.0,1.9171,1.8181,0.0,0.0,0.0,0.0,0.0,0.0,0.0,1.6688,0.0,0.0,0.0,1.5219,1.5373,0.0,0.0,0.0,0.0,0.0,0.0,0.0,0.0,0.0,0.0,0.0,0.0,0.0,0.0,0.0,1.7958,1.8288,1.8432,1.8196,1.8307,1.8893,1.861,1.8329,1.8115,1.7945,1.8263,1.9058,1.8564,1.8742,1.9578,1.9126,1.9167,1.9609,1.8841,1.8624,1.8915,1.8658,1.8257,1.7891,1.9016,1.9211,1.8882,1.9409,1.9632,1.9654,1.9487,1.9376,1.9376,1.6416,1.6986,0.0,0.0,0.0,0.0,0.0,0.0,0.0,0.0,0.0,0.0,0.0,0.0,0.0,0.0,0.0,2.2383,0.0,0.0,0.0,0.0,0.0,0.0,0.0,2.1944,2.2543,2.3172,2.3192,2.303,0.0,0.0,0.0,0.0,2.0543,0.0,2.0429,0.0,2.1463,0.0,0.0,0.0,0.0,2.1954,2.0526,1.9097,1.8911,1.7939,1.694,0.0,1.8868,0.0,0.0,0.0,0.0,0.0,0.0,0.0,0.0,0.0,0.0,0.0,0.0,0.0,1.7433,0.0,1.6898,0.0,0.0,0.0,0.0,0.0,0.0,0.0,1.7228,0.0,0.0,0.0,0.0,0.0,0.0,0.0,0.0,0.0,0.0,0.0,1.8106,1.8639,1.8771,1.8604,1.8598,1.8832,1.8694,1.9141,2.0187,1.9399,1.9465,2.0295,1.9697,1.9625,2.0024,1.9679,1.9329,1.9004,1.8902,1.8654,1.8328,1.8897,1.9181,1.9301,1.9549,1.9632,1.9632,1.9538,1.9465,1.9339,0.0,0.0,0.0,0.0,0.0,0.0,0.0,0.0,0.0,0.0,0.0,0.0,2.3429,2.368,0.0,0.0,2.4082,2.3544,0.0,0.0,2.1422,0.0,0.0,0.0,0.0,0.0,0.0,2.4303,2.407,2.3934,0.0,0.0,0.0,0.0,0.0,2.1477,2.1157,0.0,0.0,2.311,2.4213,2.4378,2.3788,2.1992,2.0425,1.9149,1.8861,1.8093,1.7392,1.8696,1.9503,0.0,1.8827,0.0,0.0,0.0,0.0,0.0,2.125,0.0,0.0,0.0,0.0,0.0,0.0,0.0,0.0,0.0,0.0,0.0,0.0,0.0,0.0,0.0,0.0,1.7965,0.0,0.0,0.0,0.0,0.0,0.0,0.0,0.0,0.0,1.7001,1.8138,1.895,1.8999,1.8803,1.9003,1.9568,1.9556,1.9968,2.0883,2.0143,2.0136,2.0794,2.0143,2.0011,2.0304,2.0035,1.9722,1.9296,1.9046,1.8959,1.9006,1.8972,1.9256,1.969,1.969,1.9654,1.9647,1.9647,1.9523,1.9376,1.79,1.7961,0.0,0.0,0.0,0.0,0.0,0.0,0.0,0.0,0.0,0.0,0.0,0.0,0.0,0.0,0.0,2.4365,2.5968,0.0,2.2038,0.0,0.0,2.2684,0.0,0.0,0.0,0.0,0.0,0.0,0.0,0.0,0.0,0.0,0.0,2.2147,2.2924,2.296,2.2965,2.3149,2.4873,2.4586,2.2987,0.0,2.1345,2.1365,1.8852,0.0,0.0,2.1573,2.1522,0.0,0.0,0.0,0.0,0.0,0.0,0.0,0.0,0.0,0.0,2.025,0.0,0.0,0.0,0.0,1.7715,0.0,0.0,0.0,0.0,0.0,0.0,0.0,0.0,0.0,0.0,0.0,0.0,0.0,0.0,0.0,0.0,0.0,1.8956,1.8111,1.8462,1.9017,1.9743,1.9464,1.9625,2.0343,2.0686,2.0877,2.0899,2.0795,2.078,2.0794,2.0444,2.0289,2.0289,1.944,1.9436,2.0004,1.911,1.9096,1.9767,1.9696,1.966,1.969,1.969,1.969,1.969,1.969,1.9669,1.9574,0.0,0.0,0.0,0.0,0.0,0.0,0.0,2.1402,0.0,0.0,0.0,0.0,0.0,2.9281,2.9144,0.0,0.0,2.6816,2.6242,2.4484,0.0,0.0,0.0,2.2603,0.0,0.0,0.0,0.0,0.0,0.0,0.0,0.0,0.0,0.0,0.0,2.3252,0.0,0.0,0.0,0.0,0.0,2.4939,2.3744,0.0,0.0,2.0371,1.9637,1.9337,0.0,2.1029,2.1705,2.1914,2.1835,2.2765,2.3782,2.3178,2.2358,0.0,0.0,0.0,2.1092,2.1087,0.0,0.0,0.0,0.0,0.0,0.0,0.0,0.0,0.0,0.0,0.0,0.0,0.0,0.0,0.0,0.0,0.0,0.0,0.0,0.0,0.0,0.0,0.0,1.6675,1.7311,1.8313,1.9535,1.9408,1.9814,2.0892,2.0787,2.0801,2.1024,2.075,2.0561,2.0475,2.0373,2.0304,2.0304,2.0005,1.9951,2.01,1.9712,1.9637,1.9797,1.9726,1.969,1.969,1.969,1.969,1.969,1.969,1.9669,1.9597,1.8318,0.0,0.0,0.0,0.0,0.0,0.0,0.0,0.0,0.0,2.8334,0.0,3.1674,0.0,3.0985,0.0,2.9745,2.8588,2.6886,2.5592,0.0,2.3232,2.3287,0.0,0.0,0.0,0.0,0.0,0.0,2.531,0.0,0.0,0.0,0.0,0.0,2.4456,2.3975,0.0,2.4816,0.0,0.0,2.4861,0.0,0.0,2.1393,2.139,0.0,2.0727,2.0661,2.1859,2.2423,2.2559,2.2343,2.3393,2.4618,2.3999,2.34,2.3075,2.3829,2.3216,0.0,2.1959,2.1847,0.0,2.068,0.0,0.0,0.0,0.0,0.0,0.0,0.0,0.0,0.0,0.0,0.0,0.0,1.8002,0.0,0.0,0.0,0.0,0.0,0.0,1.7251,1.5973,1.7209,1.8492,0.0,1.9812,2.0204,2.1005,2.0858,2.0736,2.067,2.052,2.0407,2.0304,2.0304,2.0304,2.0304,2.027,2.0185,2.01,1.999,1.9884,1.9797,1.9726,1.969,1.969,1.969,1.969,1.969,1.969,1.9669,1.9627,0.0,0.0,0.0,0.0,1.9774,0.0,0.0,0.0,2.6166,0.0,2.8868,3.0292,3.1284,3.1404,3.1378,3.1321,3.0672,2.9608,2.8019,2.7119,0.0,0.0,2.4347,2.3947,2.3127,0.0,0.0,0.0,0.0,0.0,0.0,0.0,0.0,0.0,2.5589,0.0,2.5485,2.5586,2.5603,2.5476,2.4742,2.4452,2.4323,2.3042,2.336,2.428,2.2951,2.2551,2.2875,2.4049,2.3683,2.3055,2.4917,2.5492,2.5467,2.534,2.5303,2.51,2.4189,2.3973,2.3747,2.2886,2.2616,0.0,0.0,0.0,2.1361,0.0,0.0,0.0,0.0,0.0,0.0,0.0,0.0,0.0,0.0,0.0,0.0,0.0,0.0,0.0,0.0,1.6675,1.7099,1.6063,1.7962,1.9407,0.0,2.0495,2.0772,2.0694,2.0915,2.0686,1.9891,2.0151,2.0304,2.0304,2.0304,2.0304,2.0304,2.015,2.01,2.01,1.9904,1.9797,1.9797,1.9726,1.969,1.969,1.969,1.9705,1.972,1.969,1.9647,1.9671,1.8895,1.9539,2.0077,0.0,2.0358,2.1345,0.0,0.0,0.0,0.0,3.1443,3.2348,3.3918,3.3534,3.2708,3.155,3.1312,0.0,0.0,0.0,0.0,2.7129,2.6526,2.524,2.3153,2.4939,0.0,2.3412,0.0,0.0,2.5604,0.0,0.0,0.0,0.0,0.0,2.3788,2.4448,2.4725,2.4742,2.5196,2.5368,0.0,0.0,2.507,2.5195,2.3848,2.3581,2.4005,2.4913,2.4988,2.4776,2.5263,2.5398,2.533,2.5303,2.5252,2.5157,2.487,2.4796,2.4569,2.3707,2.3442,2.3171,0.0,0.0,0.0,0.0,0.0,0.0,0.0,0.0,0.0,0.0,0.0,0.0,0.0,0.0,0.0,1.8473,0.0,0.0,0.0,1.5701,1.6343,1.5828,1.6855,1.82,1.9756,0.0,1.9701,2.0439,2.0416,2.0112,1.9625,2.0066,2.0304,2.0304,2.0304,2.0304,2.0304,2.015,2.01,2.01,1.9904,1.9797,1.9797,1.9726,1.969,1.969,1.969,1.9738,1.9865,1.9745,1.9514,1.9327,1.9519,0.0,0.0,2.2112,0.0,0.0,2.4897,2.6575,0.0,3.1547,3.2552,0.0,3.3965,3.3944,3.3249,3.1675,3.159,0.0,3.0477,0.0,0.0,2.8754,2.7917,2.6287,2.3717,2.4695,0.0,2.3098,0.0,0.0,2.56,0.0,0.0,0.0,0.0,2.5155,0.0,2.4759,2.4973,2.5017,2.5504,2.5699,0.0,2.5639,2.561,2.5517,2.4718,2.4617,2.4896,2.5312,2.5432,2.5387,2.5365,2.5331,2.5293,2.5231,2.5195,2.5156,2.512,2.5082,2.4943,2.4455,2.4302,2.4036,2.3086,2.2884,2.2843,0.0,2.2281,2.215,0.0,0.0,0.0,0.0,0.0,0.0,0.0,0.0,0.0,0.0,1.8206,0.0,1.4847,1.5801,1.6384,1.5978,1.7011,1.8212,0.0,0.0,1.9285,2.0118,1.9952,1.9704,1.9417,1.9999,2.0304,2.0304,2.0304,2.027,2.022,2.0185,2.0115,1.9975,1.9904,1.9848,1.9762,1.9726,1.969,1.969,1.969,1.9931,2.022,1.9891,1.9713,1.9628,0.0,0.0,0.0,0.0,0.0,0.0,0.0,2.8652,0.0,3.1527,0.0,3.3658,3.2787,3.3391,3.3187,3.1578,0.0,3.1218,3.0645,3.0607,3.0341,2.9708,2.8739,2.7117,2.4788,2.3895,0.0,0.0,0.0,0.0,0.0,0.0,0.0,0.0,0.0,0.0,0.0,2.5524,2.5524,2.5543,2.5632,2.5671,2.5667,2.5529,2.5486,2.5473,2.5398,2.5403,2.5441,2.5395,2.5382,2.5357,2.5284,2.5273,2.5252,2.5118,2.5101,2.5088,2.5082,2.5038,2.4993,2.4966,2.4959,2.47,2.3754,2.3521,2.3475,2.3351,2.2626,2.241,0.0,0.0,0.0,0.0,0.0,0.0,0.0,0.0,0.0,0.0,0.0,0.0,0.0,1.6581,1.6748,1.6337,1.7697,1.8706,0.0,0.0,1.9106,1.964,1.9468,1.9403,1.9425,2.0011,2.035,2.0428,2.035,2.0235,2.015,2.022,2.0131,1.9848,1.9919,1.9884,1.969,1.969,1.9735,1.9824,1.9824,2.0191,2.0673,2.0132,2.0074,2.0241,0.0,0.0,0.0,0.0,0.0,2.962,3.017,3.1366,3.2527,3.3417,3.4372,3.4391,3.2863,3.2896,3.2338,3.0669,3.0672,0.0,0.0,0.0,0.0,3.0585,2.9051,2.7683,2.6566,2.5689,2.4892,0.0,0.0,0.0,0.0,0.0,0.0,0.0,0.0,0.0,2.4627,2.4627,0.0,2.4682,2.5284,2.554,2.5529,2.5444,2.5426,2.5398,2.5274,2.5235,2.5245,2.5244,2.5201,2.5153,2.5144,2.5144,2.5137,2.5107,2.5114,2.5082,2.5025,2.5012,2.4953,2.4798,2.4753,2.467,2.4307,2.4217,2.4185,2.3971,2.3767,2.3651,2.3816,0.0,0.0,0.0,0.0,0.0,0.0,0.0,0.0,0.0,0.0,1.8626,0.0,0.0,1.6485,1.6242,1.7593,0.0,0.0,0.0,1.8342,0.0,1.8732,0.0,0.0,0.0,2.0582,2.1137,2.0566,2.0304,2.027,2.0185,2.008,1.9955,1.9884,1.9762,1.969,1.969,2.0019,2.0528,2.0528,2.0646,2.0828,2.0386,2.0295,2.0384,0.0,0.0,0.0,0.0,0.0,0.0,0.0,3.3405,3.4006,3.3987,3.3949,3.3448,3.2264,3.2166,3.1712,3.0557,3.054,3.0613,3.0645,3.0704,3.0769,3.0799,2.9604,0.0,2.7036,2.6142,2.5269,2.4394,0.0,0.0,0.0,0.0,0.0,0.0,0.0,2.5465,0.0,0.0,0.0,2.5055,2.5379,2.548,2.5434,2.5348,2.5313,2.5274,2.5126,2.5099,2.5091,2.5141,2.5125,2.5095,2.5101,2.5095,2.5063,2.494,2.4879,2.4851,2.4731,2.47,2.467,2.4559,2.4543,2.4493,2.4284,2.4247,2.4192,2.3978,2.3917,2.3873,2.3718,2.3607,0.0,0.0,0.0,0.0,0.0,0.0,0.0,0.0,0.0,0.0,0.0,0.0,0.0,0.0,0.0,0.0,0.0,0.0,1.7804,0.0,0.0,0.0,2.0289,0.0,2.0474,2.0782,2.0458,2.027,2.0185,2.0185,2.0045,1.9726,1.9639,1.9598,1.9671,1.9875,2.0168,2.0457,2.0457,2.0508,2.0557,2.039,2.0233,2.0007,0.0,2.78,0.0,0.0,3.1602,0.0,3.3627,3.4576,3.5012,3.4331,3.3525,3.2723,3.1956,3.1756,3.1386,3.066,3.0637,3.0668,3.0711,3.0764,3.0711,3.0535,2.9754,2.8598,2.704,2.5952,2.5175,0.0,0.0,0.0,0.0,0.0,0.0,0.0,0.0,0.0,0.0,0.0,2.563,2.5546,2.5479,2.5391,2.5352,2.5205,2.5168,2.5145,2.5032,2.4999,2.5012,2.5057,2.5089,2.5089,2.5089,2.5044,2.4972,2.476,2.4666,2.4604,2.4441,2.4389,2.4389,2.4337,2.4337,2.4284,2.4078,2.4057,2.3998,2.3807,2.3761,2.3718,2.3607,2.3539,0.0,0.0,0.0,0.0,0.0,0.0,0.0,0.0,0.0,0.0,1.8697,0.0,0.0,0.0,0.0,0.0,1.876,0.0,0.0,0.0,0.0,1.9067,2.0384,0.0,2.0424,2.063,2.0562,2.0441,2.0334,2.0615,2.0436,1.9946,1.9931,1.9923,1.99,2.0105,2.0286,2.0412,2.0412,2.0455,2.0482,2.0448,2.0156,1.9777,0.0,0.0,0.0,0.0,0.0,0.0,3.2921,3.4289,3.5315,3.5111,3.4442,3.3665,3.2865,3.2241,3.1538,3.0665,3.0709,3.0789,3.0794,3.0802,3.0443,2.9659,2.884,2.7977,2.7029,2.537,2.4863,0.0,0.0,2.4846,0.0,0.0,0.0,0.0,0.0,0.0,0.0,2.5529,2.5473,2.5413,2.5283,2.5224,2.5203,2.5063,2.5019,2.5006,2.5004,2.501,2.501,2.501,2.5018,2.5012,2.5004,2.4884,2.4731,2.4704,2.4559,2.4424,2.4407,2.4389,2.4355,2.4174,2.4135,2.4078,2.3852,2.3828,2.3807,2.3721,2.3674,2.3585,2.3517,2.3517,2.3494,0.0,0.0,0.0,0.0,0.0,0.0,0.0,0.0,0.0,0.0,2.0008,0.0,0.0,2.0238,0.0,0.0,0.0,0.0,1.8158,1.8837,1.9691,2.0751,2.0441,2.0778,2.1665,2.136,2.1189,2.1108,2.1805,2.1858,2.1416,2.1627,2.1382,2.0736,2.0359,2.0552,2.1083,2.1083,2.1128,2.1083,2.0658,2.04,2.028,0.0,0.0,0.0,0.0,0.0,0.0,0.0,3.3862,3.4661,3.4595,3.4385,3.3785,3.2657,3.2291,3.1767,3.0792,3.0774,3.0799,3.0799,3.0806,3.0414,2.9547,2.8738,2.7888,2.7011,2.58,2.5348,0.0,0.0,0.0,0.0,0.0,0.0,0.0,0.0,2.5579,2.5486,2.5441,2.541,2.5339,2.5186,2.5149,2.513,2.5038,2.5004,2.5004,2.501,2.501,2.501,2.501,2.4991,2.4991,2.4861,2.4768,2.4639,2.4408,2.4265,2.4192,2.4079,2.404,2.402,2.3921,2.3917,2.3894,2.3825,2.4104,2.4401,2.4369,2.4658,2.4915,2.489,2.489,2.4817,2.4574,0.0,0.0,0.0,0.0,0.0,0.0,0.0,0.0,0.0,0.0,0.0,0.0,0.0,0.0,0.0,0.0,0.0,1.9008,0.0,2.0116,2.1385,2.1258,2.1409,2.1807,2.1667,2.1458,2.1204,2.1501,2.1285,2.0697,2.0998,2.0776,2.0234,2.0402,2.0651,2.0879,2.0879,2.0664,2.0395,2.0553,2.0576,2.0589,3.0499,0.0,3.0882,0.0,3.1876,3.202,3.242,3.3493,3.3986,3.3238,3.4089,3.4276,3.294,3.2246,3.1568,3.086,3.0802,3.0802,3.0802,3.0804,3.0313,2.9209,2.8592,0.0,2.6634,2.6008,2.5709,2.571,2.571,0.0,0.0,0.0,0.0,0.0,2.5556,2.5485,2.536,2.5324,2.5274,2.5241,2.5115,2.5075,2.5082,2.5018,2.501,2.501,2.501,2.495,2.4922,2.4922,2.4875,2.4798,2.4723,2.461,2.4459,2.4174,2.4058,2.3979,2.3837,2.3795,2.3795,2.3795,2.381,2.3804,2.3783,2.4311,2.4849,2.5052,2.5468,2.5775,2.5674,2.5547,2.5311,2.4798,0.0,0.0,0.0,0.0,0.0,0.0,2.1178,2.1131,2.0645,2.0653,0.0,0.0,0.0,0.0,0.0,0.0,0.0,0.0,0.0,0.0,2.1515,2.1689,2.1794,2.1773,2.1894,2.178,2.1483,2.142,2.1283,2.1131,2.0809,2.0685,2.0769,2.0906,2.0961,2.0961,2.0961,2.0662,2.0348,2.0767,2.1066,2.121,3.2363,3.213,3.1832,3.2651,3.2785,3.2538,3.1815,3.3237,3.3488,3.0962,3.3706,3.5407,3.4119,3.2084,3.0804,3.0799,3.0799,3.0799,3.0799,3.0795,3.0057,0.0,0.0,2.7492,2.5759,2.572,2.5707,2.5699,0.0,0.0,2.5699,0.0,2.5565,2.5499,2.5427,2.5352,2.5284,2.5154,2.5096,2.5101,2.5031,2.501,2.501,2.501,2.501,2.501,2.501,2.4861,2.4707,2.4707,2.4559,2.4441,2.4642,2.4425,2.4116,2.4116,2.3959,2.3795,2.3795,2.3795,2.3795,2.3795,2.381,2.3783,2.3721,2.4262,2.4998,2.564,2.58,2.5699,2.5366,2.4994,2.4481,2.3736,0.0,0.0,0.0,0.0,0.0,0.0,2.1746,2.1309,2.1309,2.0399,0.0,0.0,0.0,0.0,0.0,0.0,0.0,1.835,2.0243,0.0,2.0822,2.1475,2.1762,2.17,2.2031,2.2193,2.2189,2.1914,2.2449,2.3445,2.1749,2.1794,2.2948,2.193,2.1498,2.1498,2.1498,2.1498,2.1498,2.1498,2.1864,2.2402,3.0731,3.0786,3.0791,3.1059,3.1098,3.1226,3.1639,3.2735,3.3468,3.3345,3.384,3.3893,3.3122,3.2762,3.2087,0.0,3.0801,3.0806,0.0,3.0798,3.0293,2.917,2.8559,2.7688,2.6532,2.5987,2.571,2.5699,0.0,0.0,0.0,2.5609,2.5556,2.5499,2.5387,2.5293,2.5233,2.5145,2.5069,2.5031,2.5023,2.501,2.501,2.501,2.501,2.501,2.501,2.495,2.4875,2.4738,2.4578,2.4389,2.4301,2.4192,2.4059,2.3939,2.3858,2.3795,2.3795,2.3792,2.3807,2.3807,2.3721,2.3652,2.3629,2.4587,2.5861,2.7174,2.7262,2.7077,2.6964,2.6638,2.6217,2.5609,2.5105,0.0,0.0,0.0,0.0,0.0,2.1762,2.1131,2.0661,2.0204,0.0,0.0,0.0,0.0,0.0,0.0,0.0,0.0,2.0926,0.0,2.2089,2.1887,2.2004,2.2392,2.2481,2.2646,2.2817,2.2944,2.3117,2.3299,2.2573,2.2375,2.2604,2.2272,2.21,2.2126,2.2126,2.2113,2.2086,2.2086,2.2452,2.2884,3.0486,3.0458,3.0349,3.0349,3.0367,3.0689,3.1632,3.2567,3.3498,3.4374,3.405,3.3456,3.2675,3.248,0.0,3.0899,3.0806,3.0793,3.0799,3.0801,3.0404,2.9542,2.8675,2.7784,2.6926,2.6108,0.0,2.5699,2.5671,2.5643,2.561,2.5568,2.5511,2.5426,2.5312,2.5214,2.513,2.5088,2.5044,2.501,2.501,2.501,2.501,2.501,2.501,2.4996,2.4922,2.4846,2.4734,2.4526,2.4337,2.4155,2.4037,2.3998,2.3958,2.3837,2.3813,2.3792,2.3792,2.3768,2.3743,2.3743,2.3674,2.3723,2.4135,2.5093,2.6239,2.7542,2.7642,2.7474,2.7352,2.7002,2.6497,2.5897,2.5463,2.4962,2.4248,0.0,0.0,0.0,0.0,0.0,0.0,2.0862,2.035,0.0,0.0,0.0,0.0,0.0,0.0,2.1012,2.1454,2.1915,2.2526,2.252,2.2634,2.2837,2.3126,2.3263,2.3264,2.328,2.3289,2.3339,2.2711,2.2643,2.3001,2.2779,2.2701,2.2714,2.2714,2.2701,2.2688,2.2688,2.3184,2.3799,3.1335,3.0905,3.041,0.0,3.0451,3.0847,3.1836,3.2745,3.3574,3.4312,3.4413,3.3964,3.2773,3.1621,3.0899,3.0801,0.0,0.0,3.08,3.0792,3.044,2.9637,2.8696,2.7823,2.7004,2.6147,2.5699,2.5695,2.5639,2.5605,2.5581,2.5525,2.5426,2.5303,2.5233,2.513,2.501,2.501,2.501,2.501,2.501,2.501,2.501,2.501,2.4996,2.495,2.4768,2.4559,2.4372,2.4155,2.3979,2.3816,2.3807,2.3804,2.3786,2.3792,2.3789,2.3804,2.3804,2.3743,2.37,2.37,2.3665,2.3952,2.513,2.5698,2.6234,2.7026,2.7181,2.7053,2.6758,2.6247,2.5692,2.497,2.504,2.4809,2.3775,0.0,0.0,0.0,0.0,0.0,2.3032,2.213,2.1241,0.0,0.0,0.0,0.0,0.0,1.9924,2.0753,2.177,2.2338,2.224,2.3198,2.3512,2.3168,2.3864,2.4021,2.3699,2.3124,2.3171,2.3643,2.2512,2.276,2.4073,2.3511,2.3276,2.3276,2.3276,2.3276,2.3289,2.3328,2.4034,2.4896,0.0,0.0,3.0414,3.0462,3.0482,3.1067,3.2725,3.3161,3.3847,3.5402,3.5603,3.4998,3.3398,3.2597,3.1804,3.0874,3.0798,3.0801,3.0808,3.0799,3.0707,3.0501,2.9015,2.8095,2.7901,2.6459,2.5671,2.5615,2.5609,2.5562,2.5518,2.5456,2.5374,2.5283,2.5179,2.5113,2.5063,2.5018,2.501,2.501,2.501,2.501,2.501,2.501,2.4889,2.4753,2.4723,2.4559,2.4355,2.4117,2.4001,2.3921,2.3768,2.3721,2.3721,2.3725,2.3721,2.3721,2.3721,2.3656,2.3629,2.3629,2.3851,2.4435,2.5883,2.608,2.6234,2.7026,2.6989,2.6741,2.659,2.6216,2.5889,2.555,2.553,2.5428,2.5167,2.4742,2.4434,0.0,2.3751,2.3098,2.2415,2.2104,2.1689,0.0,0.0,0.0,2.1945,2.1932,2.1773,2.1456,2.2206,2.2704,2.2873,2.3124,2.3449,2.3892,2.446,2.4769,2.4665,2.4801,2.4778,2.4662,2.4086,2.3923,2.4112,2.3968,2.3903,2.3903,2.3903,2.3903,2.3955,2.4387,2.4726,2.5009,3.0367,3.0398,3.054,3.1014,3.075,3.1406,3.4077,3.4515,3.5174,3.6967,3.615,3.5193,3.4647,3.2916,3.1675,3.1426,3.1035,3.0798,3.0794,3.0801,3.0802,3.0804,2.9513,2.8621,2.8212,2.6918,2.6043,2.5609,2.5576,2.5518,2.5456,2.5382,2.5303,2.5222,2.513,2.5088,2.5057,2.5023,2.501,2.501,2.501,2.501,2.4996,2.4908,2.4802,2.4657,2.4459,2.4319,2.4174,2.3941,2.3858,2.3855,2.37,2.3634,2.3652,2.3611,2.3629,2.3634,2.3634,2.3607,2.3651,2.4009,2.4676,2.5425,2.6133,2.6316,2.6411,2.669,2.6538,2.6349,2.628,2.6049,2.5713,2.5314,2.5468,2.5431,2.4725,2.4855,2.4871,2.4531,2.4394,2.4108,2.349,2.3296,2.3058,2.2617,2.2521,0.0,2.3358,2.3335,2.3146,2.2818,2.3131,2.3425,2.3533,2.3814,2.4278,2.491,2.5233,2.5348,2.5228,2.5549,2.5597,2.5412,2.4949,2.4714,2.4728,2.4564,2.4347,2.4151,2.44,2.4504,2.4543,2.4857,2.5363,2.5707,3.0571,3.0652,3.0921,3.169,3.1243,3.1955,3.5398,3.6114,3.6774,3.8219,3.6462,3.5213,3.5564,3.2962,3.1367,3.1851,3.1339,3.0921,3.0807,3.0798,3.0774,3.0774,2.9951,2.9134,2.8394,2.74,2.6454,2.5564,2.5492,2.5441,2.5376,2.5303,2.5203,2.5101,2.5088,2.5038,2.501,2.501,2.501,2.501,2.501,2.4977,2.4936,2.4753,2.4642,2.4543,2.4155,2.3981,2.3921,2.3747,2.3678,2.3656,2.3607,2.3585,2.3598,2.3659,2.3647,2.3585,2.3585,2.3629,2.3909,2.4819,2.5782,2.6475,2.6298,2.6461,2.6623,2.6443,2.6181,2.6007,2.6085,2.5893,2.5505,2.4935,2.5248,2.5195,2.3981,0.0,2.5422,2.4887,2.5223,2.5447,2.5306,2.5105,2.4859,2.4625,2.4567,2.4574,2.4467,2.4568,2.4535,2.4399,2.4301,2.4301,2.4385,2.4854,2.543,2.6034,2.6034,2.598,2.5841,2.6095,2.614,2.6081,2.5502,2.5382,2.5621,2.5274,2.4818,2.4426,2.4909,2.5092,2.5105,2.5184,2.5837,2.6608,3.1352,3.1763,3.198,3.1891,3.2,3.2976,3.5591,3.6811,3.7458,3.7497,3.7145,3.6111,3.4022,3.3278,3.24,3.1118,3.1492,3.1525,3.0847,3.0745,3.0728,3.0728,2.9887,2.9344,2.9227,2.764,2.6357,2.5426,2.5365,2.5303,2.5224,2.5157,2.5118,2.5101,2.5044,2.5023,2.501,2.501,2.501,2.501,2.501,2.4908,2.4738,2.4657,2.4407,2.4098,2.4037,2.3894,2.3725,2.3652,2.3607,2.3607,2.3539,2.3517,2.3642,2.432,2.4034,2.3517,2.3517,2.3998,2.4855,2.6282,2.656,2.6672,2.7291,2.698,2.669,2.7257,2.6584,2.6077,2.6586,2.6124,2.5631,2.5491,2.5535,2.5535,2.5308,0.0,2.5794,2.6296,2.6419,2.6535,2.6667,2.663,2.6475,2.6101,2.6211,2.6176,2.5806,2.65,2.6489,2.5626,2.5107,2.5093,2.5612,2.5697,2.6062,2.6666,2.6666,2.6961,2.7437,2.7477,2.7374,2.7051,2.6693,2.6405,2.6161,2.5805,2.5641,2.5563,2.5654,2.5694,2.5746,2.6229,2.6517,2.6661,3.1086,3.1961,3.2848,3.3051,3.2936,3.3745,3.6495,3.84,3.9496,3.9357,3.8288,3.7161,3.6249,3.4431,3.3163,3.2814,3.2316,3.1832,3.1475,3.1417,3.1197,3.0717,3.0309,2.9654,2.872,2.7438,2.6328,2.5348,2.5803,2.5936,2.5803,2.5755,2.5971,2.6336,2.5422,2.5503,2.6299,2.5389,2.5522,2.6285,2.5806,2.5725,2.5918,2.5744,2.55,2.5236,2.5077,2.4712,2.4351,2.4653,2.4504,2.4254,2.4623,2.4748,2.4819,2.5176,2.4748,2.4159,2.4159,2.4591,2.5348,2.6684,2.6944,2.6978,2.7344,2.6987,2.664,2.6712,2.6294,2.5959,2.6157,2.5924,2.5491,2.5065,2.5341,0.0,2.5065,2.5697,2.6328,2.6652,2.6905,2.708,2.7015,2.6891,2.6912,2.7113,2.701,2.7019,2.7341,2.751,2.7371,2.6919,2.6287,2.6104,2.6385,2.6736,2.7045,2.7326,2.7326,2.7481,2.779,2.7742,2.7759,2.7759,2.7085,2.676,2.676,2.6396,2.6099,2.585,2.6164,2.6282,2.6321,2.6582,2.687,2.7131,3.1004,3.2443,3.4,3.4422,3.4135,3.4815,3.7653,3.981,4.1101,4.1101,3.9331,3.8027,3.7906,3.5266,3.3604,3.3874,3.2776,3.1961,3.1689,3.1845,3.1581,3.0715,3.0688,2.9955,2.8412,2.7726,2.6876,2.5861,2.6332,2.6477,2.6281,2.6281,2.6616,2.7153,2.6072,2.6299,2.7418,2.6129,2.6304,2.7392,2.6673,2.6587,2.6879,2.6665,2.6414,2.6191,2.5949,2.5517,2.5099,2.5622,2.5426,2.5051,2.5622,2.58,2.5854,2.6015,2.5625,2.5131,2.5131,2.5341,2.5823,2.6808,2.7098,2.7164,2.7164,2.6873,2.6521,2.6316,2.62,2.6069,2.5961,2.5881,2.5616,2.4871,0.0,2.5664,2.5082,2.6118,2.7057,2.7397,2.7775,2.7971,2.7996,2.7837,2.7922,2.8319,2.7966,2.7998,2.8495,2.8322,2.8127,2.7987,2.7369,2.7031,2.7031,2.7523,2.7846,2.7987,2.7987,2.8057,2.8212,2.8051,2.8132,2.8346,2.745,2.7194,2.7373,2.7064,2.6608,2.6269,2.67,2.687,2.687,2.687,2.7157,2.7523,3.1787,3.4046,3.5777,3.5685,3.5747,3.6587,3.8912,4.0303,4.1107,4.1107,3.998,3.8394,3.6321,3.4852,3.3504,3.2214,3.221,3.1835,3.0762,3.14,3.1458,3.0649,3.0615,3.0162,2.9233,2.9156,2.8579,2.7524,2.6833,2.6395,2.6205,2.6205,2.6242,2.6337,2.702,2.738,2.7494,2.738,2.732,2.7301,2.7245,2.6989,2.6622,2.6542,2.6259,2.5918,2.5825,2.5765,2.5729,2.5783,2.5765,2.5729,2.5783,2.58,2.5961,2.6693,2.6667,2.6367,2.6367,2.6374,2.6545,2.7061,2.7112,2.7017,2.7017,2.6623,2.6412,2.7075,2.6902,2.6659,2.6604,2.662,2.6377,2.5648,0.0,0.0,2.6539,2.717,2.8126,2.9513,2.968,3.0052,3.0829,3.0858,3.0657,3.0207,2.9953,2.9572,2.9072,2.9311,2.9209,2.8647,2.8029,2.7706,2.7706,2.7762,2.8057,2.8619,2.8619,2.8928,2.9476,2.9142,2.903,2.8967,2.8274,2.8012,2.8012,2.7604,2.7445,2.7406,2.7445,2.7471,2.7471,2.7471,2.7497,2.7523,3.2621,3.4514,3.5981,3.5926,3.596,3.628,3.7159,3.765,3.7948,3.7948,3.841,3.8274,3.7019,3.5852,3.4908,3.4313,3.3693,3.3237,3.2977,3.2745,3.201,3.0664,3.0607,3.0192,2.9321,2.9217,2.8692,2.7704,2.7842,2.7616,2.702,2.7517,2.7744,2.7744,2.757,2.8032,2.8858,2.7818,2.7924,2.8742,2.8145,2.7958,2.8029,2.7958,2.7671,2.7326,2.7299,2.6978,2.6621,2.7121,2.696,2.6621,2.7139,2.7299,2.7371,2.7656,2.7664,2.7452,2.7056,2.6389,2.6014,2.6862,2.7013,2.7019,2.7247,2.7314,2.7356,2.7629,2.7571,2.7429,2.7332,2.7316,2.7235,2.696,0.0,2.7478,2.7931,2.8207,2.8903,3.036,3.0218,3.0323,3.1112,3.0639,3.0236,3.0173,2.9809,2.9492,2.9428,2.952,2.949,2.9265,2.904,2.8731,2.8352,2.8717,2.9026,2.9265,2.908,2.9191,2.9617,2.9421,2.9326,2.9234,2.8812,2.8545,2.8236,2.7747,2.7523,2.7562,2.7915,2.8059,2.8098,2.8477,2.8621,2.8621,3.3156,3.4714,3.6004,3.6003,3.6009,3.6363,3.7437,3.6699,3.5994,3.5999,3.7831,3.8803,3.7883,3.6569,3.5747,3.5706,3.4999,3.438,3.4021,3.3189,3.2184,3.1023,3.0733,3.0298,2.9651,2.9562,2.9167,2.846,2.8706,2.8493,2.7877,2.8446,2.8695,2.8676,2.8389,2.8834,2.9732,2.8565,2.8684,2.957,2.8932,2.879,2.8948,2.8845,2.8594,2.8291,2.8209,2.8013,2.7799,2.8102,2.8013,2.7817,2.812,2.8182,2.8182,2.8182,2.8276,2.8235,2.7764,2.7247,2.6893,2.7131,2.7348,2.764,2.8002,2.819,2.8249,2.8184,2.82,2.8078,2.7753,2.8077,2.8239,2.7786,2.8466,2.9065,2.913,2.9609,3.0338,3.1338,3.1039,3.1031,3.1656,3.096,3.0493,3.0508,2.9959,2.9711,2.9855,2.9715,2.9701,2.9897,2.9715,2.949,2.9265,2.949,2.9715,2.9897,2.9644,2.9742,3.0207,2.991,2.974,2.9726,2.928,2.895,2.8634,2.8242,2.8085,2.8124,2.8503,2.866,2.8712,2.9131,2.9274,2.9274,3.3336,3.4719,3.6005,3.6048,3.6032,3.7186,4.0584,3.8197,3.6007,3.6027,3.8819,4.0185,3.8555,3.6784,3.5695,3.5697,3.5697,3.4971,3.3228,3.229,3.1816,3.1806,3.1023,3.054,3.0398,3.0398,3.0304,3.0109,2.9308,2.885,2.8695,2.8695,2.8695,2.8733,2.9529,2.9857,2.9808,2.9808,2.9682,2.9492,2.9492,2.933,2.9067,2.8887,2.8694,2.8466,2.8264,2.8727,2.928,2.8495,2.8762,2.928,2.8449,2.82,2.82,2.82,2.8417,2.8627,2.8627,2.9316,2.9623,2.8015,2.8279,2.8983,2.9336,2.9108,2.8806,2.8806,2.8806,2.8579,2.7883,2.8919,2.9464,2.798,3.015,3.1526,3.0145,3.1469,3.2572,3.2588,3.2352,3.2379,3.2834,3.2398,3.1992,3.1739,3.0866,3.0368,3.0502,2.9954,2.9897,3.0516,2.994,2.9912,3.053,2.9926,2.9926,3.053,3.053,3.0867,3.1485,3.0719,3.0433,3.0364,2.9627,2.9287,2.9287,2.9274,2.9274,2.9274,2.9287,2.9287,2.9287,2.9287,2.9287,2.9287,3.5079,3.5618,3.6774,3.9216,3.9647,3.998,4.1008,3.8224,3.6809,3.9071,4.021,3.9703,3.6822,3.6016,3.5704,3.5695,3.5695,3.5482,3.4969,3.4118,3.3583,3.3496,3.1529,3.0439,3.0398,3.0267,3.0147,3.0109,2.9772,2.9292,2.8714,2.9282,2.9225,2.8733,2.9498,2.979,2.9719,2.9626,2.9531,2.9429,2.9429,2.9304,2.9067,2.8887,2.8694,2.8557,2.8917,2.9208,2.944,2.9726,2.9976,3.0,2.91,2.8841,2.89,2.9347,2.9878,3.0433,3.0751,3.0967,3.0619,2.8884,2.9204,2.9823,2.9428,2.9475,2.9594,2.9594,2.9939,3.0376,3.0668,3.1494,3.1979,3.1558,3.2206,3.2627,3.219,3.2175,3.2482,3.3262,3.2704,3.2379,3.2834,3.2319,3.1931,3.1871,3.1406,3.1124,3.119,3.1021,3.1021,3.1204,3.1021,3.1021,3.1204,3.0572,3.0572,3.1204,3.0912,3.101,3.1499,3.1446,3.1419,3.1323,3.0905,3.0566,3.0268,2.9587,2.9274,2.9327,2.9719,2.9876,2.9928,3.0333,3.0477,3.0477,3.5953,3.656,3.7909,4.0703,4.119,4.1205,4.1208,3.9321,3.8598,4.0546,3.9617,3.8005,3.5921,3.5701,3.5693,3.5693,3.5704,3.5549,3.5201,3.4646,3.4137,3.3698,3.2122,3.1124,3.0797,3.0682,3.0422,3.0015,2.9937,2.9642,2.9169,2.9647,2.9593,2.9158,2.9564,2.9719,2.9626,2.9531,2.9451,2.9407,2.9407,2.9283,2.9067,2.8887,2.8869,2.9007,2.9311,2.9797,3.0332,3.0475,3.0451,3.029,2.966,2.9457,2.9545,2.9895,3.0464,3.1062,3.1357,3.1748,3.1768,3.054,3.0506,3.0724,3.0419,3.0746,3.1056,3.0765,3.1283,3.1915,3.2352,3.3016,3.3404,3.3129,3.3809,3.4002,3.3047,3.2915,3.3019,3.3335,3.2763,3.2446,3.2767,3.2288,3.1951,3.1777,3.1588,3.1597,3.1836,3.1626,3.1597,3.185,3.1612,3.1597,3.185,3.1457,3.1471,3.185,3.162,3.1678,3.1997,3.1943,3.1897,3.1741,3.1312,3.1036,3.0791,3.0243,2.9954,2.998,3.0333,3.0477,3.0516,3.0869,3.0986,3.0986,3.6444,3.7538,3.9159,4.0898,4.1203,4.1186,4.1163,4.0954,4.081,4.0801,3.8089,3.6168,3.6168,3.6153,3.6029,3.5739,3.5693,3.5356,3.4563,3.4395,3.3936,3.3134,3.2909,3.2422,3.1588,3.1527,3.1004,3.0002,3.0002,2.9948,2.9891,2.9882,2.9903,2.9903,2.9907,2.9851,2.9716,2.9716,2.9655,2.9588,2.9588,2.9462,2.9265,2.9059,2.9323,2.9782,2.9651,3.0511,3.1599,3.0909,3.0538,3.0349,3.0141,3.0091,3.0094,3.0234,3.0644,3.1133,3.1342,3.2169,3.2947,3.2644,3.206,3.1643,3.1967,3.2619,3.2902,3.2238,3.2676,3.3178,3.3178,3.3744,3.3937,3.3323,3.4875,3.5352,3.3051,3.3657,3.399,3.3201,3.2951,3.2749,3.2705,3.2416,3.2097,3.172,3.1654,3.1893,3.2455,3.1963,3.1907,3.2469,3.1949,3.1921,3.2483,3.2483,3.2483,3.2483,3.2483,3.2556,3.2704,3.2345,3.1982,3.1629,3.1198,3.1061,3.1061,3.0986,3.0986,3.0986,3.0986,3.0986,3.0986,3.0986,3.0986,3.0986,3.8476,3.8633,3.914,4.0898,4.1203,4.1136,4.0925,4.084,4.0801,4.0804,4.015,3.9681,3.9693,3.9693,3.8617,3.5933,3.5693,3.5626,3.5433,3.5295,3.5032,3.4642,3.448,3.3922,3.29,3.2428,3.1707,3.0768,3.0768,3.0411,2.9757,3.0377,3.0659,3.0697,3.1255,3.1493,3.1453,3.135,3.1195,3.1033,3.1033,3.0895,3.0633,3.045,3.045,3.063,3.1064,3.1421,3.1729,3.203,3.1717,3.1126,3.0814,3.068,3.0907,3.1963,3.2357,3.2838,3.4616,3.4513,3.3876,3.4082,3.3397,3.274,3.3098,3.3108,3.3032,3.2886,3.3404,3.3874,3.3874,3.432,3.4583,3.4455,3.458,3.4546,3.3994,3.413,3.4368,3.4482,3.441,3.4125,3.3547,3.3089,3.2925,3.289,3.2918,3.2988,3.3115,3.3002,3.2988,3.3115,3.3002,3.2988,3.3115,3.3115,3.3115,3.3115,3.3115,3.2961,3.2704,3.2632,3.2345,3.1982,3.1629,3.1482,3.1408,3.1123,3.0986,3.0986,3.0986,3.0986,3.0986,3.0986,3.0986,3.0986,3.9297,3.9648,4.0136,4.103,4.1205,4.112,4.0836,4.0801,4.0796,4.0796,4.0815,4.0796,4.0796,4.006,3.8721,3.6644,3.626,3.6126,3.6093,3.5507,3.51,3.4961,3.4832,3.4485,3.3926,3.3615,3.2826,3.1525,3.1525,3.128,3.0846,3.1238,3.1424,3.1442,3.1747,3.189,3.189,3.1733,3.1616,3.1495,3.1359,3.1162,3.0957,3.0848,3.097,3.1249,3.1607,3.2125,3.2776,3.3266,3.3143,3.2739,3.2506,3.2431,3.255,3.327,3.3473,3.3731,3.4921,3.4541,3.3977,3.4699,3.4308,3.3707,3.3524,3.3534,3.3566,3.3566,3.4424,3.5153,3.5153,3.5508,3.5742,3.5742,3.5522,3.5133,3.4635,3.4603,3.4617,3.4705,3.4528,3.4147,3.3601,3.3303,3.3237,3.3297,3.3326,3.3326,3.3326,3.3326,3.3326,3.3326,3.3326,3.3326,3.3326,3.3326,3.3326,3.3326,3.3326,3.3086,3.2704,3.2704,3.2417,3.185,3.1703,3.1482,3.1272,3.1061,3.0986,3.0986,3.0986,3.0986,3.0986,3.0986,3.0986,3.0986,3.9296,4.0272,4.1168,4.1163,4.1153,4.105,4.082,4.0796,4.079,4.079,4.079,4.079,4.079,3.9328,3.8131,3.7623,3.7103,3.6688,3.6457,3.5533,3.4981,3.4961,3.4703,3.4614,3.4742,3.4592,3.3808,3.2289,3.2289,3.2212,3.2042,3.2126,3.2157,3.2157,3.2199,3.221,3.221,3.1998,3.19,3.185,3.1581,3.1437,3.1348,3.1204,3.1536,3.2068,3.2068,3.2882,3.3953,3.4222,3.4318,3.4279,3.4138,3.4093,3.4111,3.4231,3.418,3.4145,3.4347,3.4138,3.4109,3.5044,3.5148,3.4808,3.4283,3.4414,3.4619,3.4505,3.5542,3.6448,3.6319,3.6451,3.6525,3.6525,3.6273,3.5844,3.5085,3.5023,3.4953,3.4858,3.4403,3.3908,3.3604,3.3382,3.3326,3.3326,3.3326,3.3326,3.3326,3.3326,3.3326,3.3326,3.3326,3.3326,3.3326,3.3326,3.3326,3.3326,3.3326,3.3086,3.2704,3.2632,3.22,3.1629,3.1556,3.1347,3.0986,3.0986,3.0986,3.0986,3.0986,3.0986,3.0986,3.0986,3.0986,3.0986,3.8639,3.9923,4.1026,4.1037,4.0926,4.0848,4.081,4.0796,4.079,4.079,4.079,4.079,4.079,3.9663,3.8857,3.878,3.8019,3.719,3.6291,3.5988,3.579,3.5687,3.4854,3.4736,3.5367,3.4636,3.3869,3.3044,3.3044,3.2646,3.1846,3.2553,3.2846,3.2883,3.3566,3.3881,3.3863,3.3659,3.3476,3.3305,3.3013,3.3206,3.3577,3.2894,3.298,3.3541,3.3525,3.3953,3.4475,3.4359,3.4318,3.4279,3.4138,3.4093,3.4214,3.4852,3.4594,3.4329,3.5309,3.5477,3.5459,3.5578,3.6058,3.653,3.6771,3.6805,3.6724,3.6125,3.6627,3.6999,3.6416,3.5918,3.5577,3.5577,3.5123,3.4901,3.5336,3.5397,3.5613,3.6138,3.5364,3.4721,3.4677,3.3839,3.3326,3.3326,3.3326,3.3326,3.3326,3.3326,3.3326,3.3326,3.3326,3.3326,3.3326,3.3326,3.3326,3.3326,3.3326,3.3086,3.2704,3.2345,3.1982,3.1556,3.1198,3.1061,3.0986,3.0986,3.0986,3.0986,3.0986,3.0986,3.0986,3.0986,3.0986,3.0986,3.9334,4.0173,4.0998,4.0945,4.0896,4.0849,4.0807,4.0788,4.079,4.079,4.0778,4.0746,4.0746,4.0077,3.9615,3.9614,3.8652,3.7845,3.7397,3.6765,3.6363,3.6315,3.5472,3.5181,3.5479,3.4643,3.4277,3.4479,3.3995,3.3562,3.3138,3.3491,3.3658,3.3677,3.3907,3.4023,3.4023,3.3662,3.3455,3.3357,3.3147,3.338,3.3876,3.3521,3.3756,3.4305,3.4633,3.4888,3.5105,3.5364,3.5405,3.5405,3.5359,3.5318,3.5387,3.5714,3.5702,3.571,3.6208,3.6316,3.6388,3.6818,3.7003,3.7118,3.7242,3.763,3.7728,3.7015,3.6932,3.6917,3.6612,3.6394,3.6272,3.6272,3.59,3.5707,3.5999,3.6045,3.6091,3.6054,3.535,3.481,3.4476,3.4084,3.3691,3.3354,3.3635,3.3691,3.334,3.3326,3.3326,3.3326,3.3326,3.3326,3.3326,3.3326,3.3326,3.3326,3.3326,3.3241,3.3016,3.2874,3.2574,3.22,3.1776,3.1482,3.1347,3.1061,3.0986,3.0986,3.0986,3.0986,3.0986,3.0986,3.0986,3.0986]}]]